[[{"header":{"parameterUnit":"m.s-1","parameterCategory":1,"la1":30.6,"la2":28.766,"lo1":-90.7593,"lo2":-88.6598,"dy":0.0162,"dx":0.0183,"nx":116,"ny":114,"refTime":"2024-08-03T06:00:00:Z","depth":0,"parameterNumber":2,"parameterNumberName":"U-component_of_WINDS"},"data":[0.0,0.0,0.0,0.0,0.0,0.0,0.0,0.0,0.0,0.0,0.0,0.0,0.0,0.0,0.0,0.0,0.0,0.0,0.0,0.0,0.0,0.0,0.0,0.0,0.0,0.0,0.0,0.0,0.0,0.0,0.0,0.0,0.0,0.0,0.0,0.0,0.0,0.0,0.0,0.0,0.0,0.0,0.0,0.0,0.0,0.0,0.0,0.0,0.0,0.0,0.0,0.0,0.0,0.0,0.0,0.0,0.0,0.0,0.0,0.0,0.0,0.0,0.0,0.0,0.0,0.0,0.0,0.0,0.0,0.0,0.0,0.0,0.0,0.0,0.0,0.0,0.0,0.0,0.0,0.0,0.0,0.0,0.0,0.0,0.0,0.0,0.0,0.0,0.0,0.0,0.0,0.0,0.0,0.0,0.0,0.0,0.0,0.0,0.0,0.0,0.0,0.0,0.0,0.0,0.0,0.0,0.0,0.0,0.0,0.0,0.0,0.0,0.0,0.0,0.0,0.0,0.0,0.0,0.0,0.0,0.0,0.0,0.0,0.0,0.0,0.0,0.0,0.0,0.0,0.0,0.0,0.0,0.0,0.0,0.0,0.0,0.0,0.0,0.0,0.0,0.0,0.0,0.0,0.0,0.0,0.0,0.0,0.0,0.0,0.0,0.0,0.0,0.0,0.0,0.0,0.0,0.0,0.0,0.0,0.0,0.0,0.0,0.0,0.0,0.0,0.0,0.0,0.0,0.0,0.0,0.0,0.0,0.0,0.0,0.0,0.0,0.0,0.0,0.0,0.0,0.0,0.0,0.0,0.0,0.0,0.0,0.0,0.0,0.0,0.0,0.0,0.0,0.0,0.0,0.0,0.0,0.0,0.0,0.0,0.0,0.0,0.0,0.0,0.0,0.0,0.0,0.0,0.0,0.0,0.0,0.0,0.0,0.0,0.0,0.0,0.0,0.0,0.0,0.0,0.0,0.0,0.0,0.0,0.0,0.0,0.0,0.0,0.0,0.0,0.0,0.0,0.0,0.0,0.0,0.0,0.0,0.0,0.0,0.0,0.0,0.0,0.0,0.0,0.0,0.0,0.0,0.0,0.0,0.0,0.0,0.0,0.0,0.0,0.0,0.0,0.0,0.0,0.0,0.0,0.0,0.0,0.0,0.0,0.0,0.0,0.0,0.0,0.0,0.0,0.0,0.0,0.0,0.0,0.0,0.0,0.0,0.0,0.0,0.0,0.0,0.0,0.0,0.0,0.0,0.0,0.0,0.0,0.0,0.0,0.0,0.0,0.0,0.0,0.0,0.0,0.0,0.0,0.0,0.0,0.0,0.0,0.0,0.0,0.0,0.0,0.0,0.0,0.0,0.0,0.0,0.0,0.0,0.0,0.0,0.0,0.0,0.0,0.0,0.0,0.0,0.0,0.0,0.0,0.0,0.0,0.0,0.0,0.0,0.0,0.0,0.0,0.0,0.0,0.0,0.0,0.0,0.0,0.0,0.0,0.0,0.0,0.0,0.0,0.0,0.0,0.0,0.0,0.0,0.0,0.0,0.0,0.0,0.0,0.0,0.0,0.0,0.0,0.0,0.0,0.0,0.0,0.0,0.0,0.0,0.0,0.0,0.0,0.0,0.0,0.0,0.0,0.0,0.0,0.0,0.0,0.0,0.0,0.0,0.0,0.0,0.0,0.0,0.0,0.0,0.0,0.0,0.0,0.0,0.0,0.0,0.0,0.0,0.0,0.0,0.0,0.0,0.0,0.0,0.0,0.0,0.0,0.0,0.0,0.0,0.0,0.0,0.0,0.0,0.0,0.0,0.0,0.0,0.0,0.0,0.0,0.0,0.0,0.0,0.0,0.0,0.0,0.0,0.0,0.0,0.0,0.0,0.0,0.0,0.0,0.0,0.0,0.0,0.0,0.0,0.0,0.0,0.0,0.0,0.0,0.0,0.0,0.0,0.0,0.0,0.0,0.0,0.0,0.0,0.0,0.0,0.0,0.0,0.0,0.0,0.0,0.0,0.0,0.0,0.0,0.0,0.0,0.0,0.0,0.0,0.0,0.0,0.0,0.0,0.0,0.0,0.0,0.0,0.0,0.0,0.0,0.0,0.0,0.0,0.0,0.0,0.0,0.0,0.0,0.0,0.0,0.0,0.0,0.0,0.0,0.0,0.0,0.0,0.0,0.0,0.0,0.0,0.0,0.0,0.0,0.0,0.0,0.0,0.0,0.0,0.0,0.0,0.0,0.0,0.0,0.0,0.0,0.0,0.0,0.0,0.0,0.0,0.0,0.0,0.0,0.0,0.0,0.0,0.0,0.0,0.0,0.0,0.0,0.0,0.0,0.0,0.0,0.0,0.0,0.0,0.0,0.0,0.0,0.0,0.0,0.0,0.0,0.0,0.0,0.0,0.0,0.0,0.0,0.0,0.0,0.0,0.0,0.0,0.0,0.0,0.0,0.0,0.0,0.0,0.0,0.0,0.0,0.0,0.0,0.0,0.0,0.0,0.0,0.0,0.0,0.0,0.0,0.0,0.0,0.0,0.0,0.0,0.0,0.0,0.0,0.0,0.0,0.0,0.0,0.0,0.0,0.0,0.0,0.0,0.0,0.0,0.0,0.0,0.0,0.0,0.0,0.0,0.0,0.0,0.0,0.0,0.0,0.0,0.0,0.0,0.0,0.0,0.0,0.0,0.0,0.0,0.0,0.0,0.0,0.0,0.0,0.0,0.0,0.0,0.0,0.0,0.0,0.0,0.0,0.0,0.0,0.0,0.0,0.0,0.0,0.0,0.0,0.0,0.0,0.0,0.0,0.0,0.0,0.0,0.0,0.0,0.0,0.0,0.0,0.0,0.0,0.0,0.0,0.0,0.0,0.0,0.0,0.0,0.0,0.0,0.0,0.0,0.0,0.0,0.0,0.0,0.0,0.0,0.0,0.0,0.0,0.0,0.0,0.0,0.0,0.0,0.0,0.0,0.0,0.0,0.0,0.0,0.0,0.0,0.0,0.0,0.0,0.0,0.0,0.0,0.0,0.0,0.0,0.0,0.0,0.0,0.0,0.0,0.0,0.0,0.0,0.0,0.0,0.0,0.0,0.0,0.0,0.0,0.0,0.0,0.0,0.0,0.0,0.0,0.0,0.0,0.0,0.0,0.0,0.0,0.0,0.0,0.0,0.0,0.0,0.0,0.0,0.0,0.0,0.0,0.0,0.0,0.0,0.0,0.0,0.0,0.0,0.0,0.0,0.0,0.0,0.0,0.0,0.0,0.0,0.0,0.0,0.0,0.0,0.0,0.0,0.0,0.0,0.0,0.0,0.0,0.0,0.0,0.0,0.0,0.0,0.0,0.0,0.0,0.0,0.0,0.0,0.0,0.0,0.0,0.0,0.0,0.0,0.0,0.0,0.0,0.0,0.0,0.0,0.0,0.0,0.0,0.0,0.0,0.0,0.0,0.0,0.0,0.0,0.0,0.0,0.0,0.0,0.0,0.0,0.0,0.0,0.0,0.0,0.0,0.0,0.0,0.0,0.0,0.0,0.0,0.0,0.0,0.0,0.0,0.0,0.0,0.0,0.0,0.0,0.0,0.0,0.0,0.0,0.0,0.0,0.0,0.0,0.0,0.0,0.0,0.0,0.0,0.0,0.0,0.0,0.0,0.0,0.0,0.0,0.0,0.0,0.0,0.0,0.0,0.0,0.0,0.0,0.0,0.0,0.0,0.0,0.0,0.0,0.0,0.0,0.0,0.0,0.0,0.0,0.0,0.0,0.0,0.0,0.0,0.0,0.0,0.0,0.0,0.0,0.0,0.0,0.0,0.0,0.0,0.0,0.0,0.0,0.0,0.0,0.0,0.0,0.0,0.0,0.0,0.0,0.0,0.0,0.0,0.0,0.0,0.0,0.0,0.0,0.0,0.0,0.0,0.0,0.0,0.0,0.0,0.0,0.0,0.0,0.0,0.0,0.0,0.0,0.0,0.0,0.0,0.0,0.0,0.0,0.0,0.0,0.0,0.0,0.0,0.0,0.0,0.0,0.0,0.0,0.0,0.0,0.0,0.0,0.0,0.0,0.0,0.0,0.0,0.0,0.0,0.0,0.0,0.0,0.0,0.0,0.0,0.0,0.0,0.0,0.0,0.0,0.0,0.0,0.0,0.0,0.0,0.0,0.0,0.0,0.0,0.0,0.0,0.0,0.0,0.0,0.0,0.0,0.0,0.0,0.0,0.0,0.0,0.0,0.0,0.0,0.0,0.0,0.0,0.0,0.0,0.0,0.0,0.0,0.0,0.0,0.0,0.0,0.0,0.0,0.0,0.0,0.0,0.0,0.0,0.0,0.0,0.0,0.0,0.0,0.0,0.0,0.0,0.0,0.0,0.0,0.0,0.0,0.0,0.0,0.0,0.0,0.0,0.0,0.0,0.0,0.0,0.0,0.0,0.0,0.0,0.0,0.0,0.0,0.0,0.0,0.0,0.0,0.0,0.0,0.0,0.0,0.0,0.0,0.0,0.0,0.0,0.0,0.0,0.0,0.0,0.0,0.0,0.0,0.0,0.0,0.0,0.0,0.0,0.0,0.0,0.0,0.0,0.0,0.0,0.0,0.0,0.0,0.0,0.0,0.0,0.0,0.0,0.0,0.0,0.0,0.0,0.0,0.0,0.0,0.0,0.0,0.0,0.0,0.0,0.0,0.0,0.0,0.0,0.0,0.0,0.0,0.0,0.0,0.0,0.0,0.0,0.0,0.0,0.0,0.0,0.0,0.0,0.0,0.0,0.0,0.0,0.0,0.0,0.0,0.0,0.0,0.0,0.0,0.0,0.0,0.0,0.0,0.0,0.0,0.0,0.0,0.0,0.0,0.0,0.0,0.0,0.0,0.0,0.0,0.0,0.0,0.0,0.0,0.0,0.0,0.0,0.0,0.0,0.0,0.0,0.0,0.0,0.0,0.0,0.0,0.0,0.0,0.0,0.0,0.0,0.0,0.0,0.0,0.0,0.0,0.0,0.0,0.0,0.0,0.0,0.0,0.0,0.0,0.0,0.0,0.0,0.0,0.0,0.0,0.0,0.0,0.0,0.0,0.0,0.0,0.0,0.0,0.0,0.0,0.0,0.0,0.0,0.0,0.0,0.0,0.0,0.0,0.0,0.0,0.0,0.0,0.0,0.0,0.0,0.0,0.0,0.0,0.0,0.0,0.0,0.0,0.0,0.0,0.0,0.0,0.0,0.0,0.0,0.0,0.0,0.0,0.0,0.0,0.0,0.0,0.0,0.0,0.0,0.0,0.0,0.0,0.0,0.0,0.0,0.0,0.0,0.0,0.0,0.0,0.0,0.0,0.0,0.0,0.0,0.0,0.0,0.0,0.0,0.0,0.0,0.0,0.0,0.0,0.0,0.0,0.0,0.0,0.0,0.0,0.0,0.0,0.0,0.0,0.0,0.0,0.0,0.0,0.0,0.0,0.0,0.0,0.0,0.0,0.0,0.0,0.0,0.0,0.0,0.0,0.0,0.0,0.0,0.0,0.0,0.0,0.0,0.0,0.0,0.0,0.0,0.0,0.0,0.0,0.0,0.0,0.0,0.0,0.0,0.0,0.0,0.0,0.0,0.0,0.0,0.0,0.0,0.0,0.0,0.0,0.0,0.0,0.0,0.0,0.0,0.0,0.0,0.0,0.0,0.0,0.0,0.0,0.0,0.0,0.0,0.0,0.0,0.0,0.0,0.0,0.0,0.0,0.0,0.0,0.0,0.0,0.0,0.0,0.0,0.0,0.0,0.0,0.0,0.0,0.0,0.0,0.0,0.0,0.0,0.0,0.0,0.0,0.0,0.0,0.0,0.0,0.0,0.0,0.0,0.0,0.0,0.0,0.0,0.0,0.0,0.0,0.0,0.0,0.0,0.0,0.0,0.0,0.0,0.0,0.0,0.0,0.0,0.0,0.0,0.0,0.0,0.0,0.0,0.0,0.0,0.0,0.0,0.0,0.0,0.0,0.0,0.0,0.0,0.0,0.0,0.0,0.0,0.0,0.0,0.0,0.0,0.0,0.0,0.0,0.0,0.0,0.0,0.0,0.0,0.0,0.0,0.0,0.0,0.0,0.0,0.0,0.0,2.2046,2.0187,0.0,0.0,0.0,0.0,0.0,0.0,0.0,0.0,0.0,0.0,0.0,0.0,0.0,0.0,0.0,0.0,0.0,0.0,0.0,0.0,0.0,0.0,0.0,0.8338,0.8367,0.8396,0.846,0.8431,0.8272,0.0,0.0,0.0,0.0,0.0,0.8311,0.8377,0.8578,0.893,0.893,0.95,1.0622,1.0727,1.0435,0.9816,0.0,0.0,0.0,0.0,0.0,0.0,0.0,0.0,0.0,0.0,0.0,0.0,0.0,0.0,0.0,0.0,0.0,0.0,0.0,0.0,0.0,0.0,0.0,0.0,0.0,0.0,0.0,0.0,0.0,0.0,0.0,0.0,0.0,0.0,0.0,0.0,0.0,0.0,0.0,0.0,0.0,0.0,0.0,0.0,0.0,0.0,0.0,0.0,0.0,0.0,0.0,0.0,0.0,0.0,0.0,0.0,0.0,0.0,0.0,0.0,0.0,0.0,0.0,0.0,0.0,0.0,0.0,0.0,0.0,0.0,2.5845,2.3823,0.0,0.0,0.0,0.0,0.0,0.0,0.0,0.0,0.0,0.0,0.0,0.0,0.0,0.0,0.0,0.0,0.0,0.0,0.0,0.0,0.0,0.7409,0.8151,0.8287,0.8316,0.8316,0.833,0.8258,0.8077,0.8094,0.0,0.0,0.0,0.8216,0.8094,0.8216,0.8616,0.9325,0.9749,1.0702,1.2201,1.2983,1.2811,1.1788,1.1302,0.0,0.0,0.0,0.0,0.0,0.0,0.0,0.0,0.0,0.0,0.0,0.0,0.0,0.0,0.0,0.0,0.0,0.0,0.0,0.0,0.0,0.0,0.0,0.0,0.0,0.0,0.0,0.0,0.0,0.0,0.0,0.0,0.0,0.0,0.0,0.0,0.0,0.0,0.0,0.0,0.0,0.0,0.0,0.0,0.0,0.0,0.0,0.0,0.0,0.0,0.0,0.0,0.0,0.0,0.0,0.0,0.0,0.0,0.0,0.0,0.0,0.0,0.0,3.4016,3.3413,3.3864,3.4161,3.4682,3.5044,3.0339,2.857,2.8898,2.6745,0.0,0.0,0.0,0.0,0.0,0.0,0.0,0.0,0.0,0.0,0.0,0.0,0.0,0.0,0.0,0.0,0.0,0.0,0.0,0.7124,0.7881,0.7957,0.7971,0.7971,0.8068,0.8082,0.7927,0.804,0.0,0.0,0.8054,0.8108,0.8094,0.8108,0.8433,0.9065,1.1098,1.2783,1.4164,1.5108,1.582,1.6151,1.3638,1.247,1.2308,0.0,0.0,0.0,0.0,0.0,0.0,0.0,0.0,0.0,0.0,0.0,0.0,0.0,0.0,0.0,0.0,0.0,0.0,0.0,0.0,0.0,0.0,0.0,0.0,0.0,0.0,0.0,0.0,0.0,0.0,0.0,0.0,0.0,0.0,0.0,0.0,0.0,0.0,0.0,0.0,0.0,1.5361,1.6411,0.0,0.0,0.0,0.0,0.0,0.0,0.0,0.0,0.0,0.0,0.0,0.0,0.0,2.2381,1.965,2.9035,3.3917,3.4137,3.5248,3.5874,3.6046,3.7607,3.8393,3.8441,3.7705,0.0,3.0829,2.9419,0.0,0.0,0.0,0.0,0.0,0.0,0.0,0.0,0.0,0.0,0.0,0.0,0.0,0.0,0.0,0.0,0.0,0.0,0.0,0.0,0.0,0.8199,0.8407,0.8407,0.8816,0.8845,0.8328,0.8236,0.8028,0.7589,0.7592,0.7563,0.7485,0.8002,0.9193,1.1072,1.339,1.498,1.5868,1.6685,1.7223,1.7444,1.6215,1.4938,1.3685,1.2867,0.0,0.0,0.0,0.0,0.0,0.0,0.0,0.0,0.0,0.0,0.0,0.0,0.0,0.0,0.0,0.0,0.0,0.0,0.0,0.0,0.0,0.0,0.0,0.0,0.0,0.0,0.0,0.0,0.0,0.0,0.0,0.0,0.0,0.0,0.0,0.0,0.0,0.0,0.0,1.5451,1.7827,1.8857,1.9648,2.0022,0.0,0.0,0.0,0.0,0.0,0.0,0.0,0.0,0.0,2.7661,2.839,2.9364,3.0628,3.4555,3.7548,3.9505,3.7423,3.6915,3.7848,3.956,4.0407,4.055,4.146,4.003,3.682,3.3483,3.0355,2.7517,0.0,0.0,0.0,0.0,3.0369,3.0785,0.0,0.0,0.0,0.0,0.0,0.0,0.0,0.0,0.0,0.0,0.0,0.0,0.8035,0.8447,0.8785,0.8962,0.9419,0.942,0.0,0.8433,0.8021,0.745,0.7253,0.7176,0.7203,0.8451,1.0292,1.2736,1.483,1.6217,1.6954,1.7543,1.7888,1.8,1.8052,1.7061,1.5318,1.4535,1.3047,0.0,0.0,0.0,0.0,0.0,0.0,0.0,0.0,0.0,0.0,0.0,0.0,0.0,0.0,0.0,0.0,0.0,0.0,0.0,0.0,0.0,0.0,0.0,0.0,0.0,0.0,0.0,0.0,0.0,0.0,0.0,0.0,0.0,0.0,0.0,0.0,0.0,0.0,1.7431,1.9867,2.1015,2.1807,2.219,0.0,0.0,0.0,0.0,0.0,0.0,2.6729,2.8844,3.0947,3.2992,3.351,3.5699,3.9882,3.9111,4.0025,4.26,3.8923,3.7785,3.8987,4.0207,4.1285,4.2277,4.3485,4.3095,4.1274,3.7151,3.403,3.1908,3.2034,3.2972,3.4245,3.4396,3.4452,3.4708,0.0,0.0,0.0,0.0,0.0,0.0,0.0,0.0,0.0,0.0,0.0,0.7821,0.8412,0.8498,0.8773,0.9407,0.9437,0.9303,0.0,0.0,0.8081,0.7782,0.7286,0.7246,0.7751,0.9852,1.1594,1.2887,1.443,1.5805,1.7093,1.7396,1.7876,1.8573,1.8559,1.8262,1.7608,1.5735,1.4867,1.4521,0.0,0.0,0.0,0.0,0.0,0.0,0.0,0.0,0.0,0.0,0.0,0.0,0.0,0.0,0.0,0.0,0.0,0.0,0.0,0.0,0.0,0.0,0.0,0.0,0.0,0.0,0.0,0.0,0.0,0.0,0.0,0.0,0.0,0.0,0.0,0.0,0.0,0.0,0.0,2.2722,2.3739,0.0,0.0,0.0,0.0,2.7487,2.8524,3.0019,3.2183,3.3617,3.4466,3.4564,3.7028,3.995,4.3222,4.023,3.8781,3.8977,3.8979,3.9027,3.9101,3.9175,4.0921,4.3875,4.3968,4.3095,4.146,3.9602,3.8767,3.8915,4.2002,4.2337,4.1165,4.1686,4.1239,4.0365,0.0,0.0,0.0,0.536,0.5585,0.5872,0.6068,0.6387,0.6813,0.7413,0.7888,0.8235,0.0,0.9208,0.9736,0.9751,1.0286,1.0335,0.9625,0.8954,0.8652,0.883,0.8022,0.8393,1.0128,1.1387,1.2845,1.4568,1.5548,1.6409,1.7223,1.7316,1.7503,1.7679,1.7746,1.766,1.7483,1.6673,1.5634,1.4454,1.3187,1.1948,0.0,0.0,0.0,0.0,0.0,0.0,0.0,0.0,0.0,0.0,0.0,0.0,0.0,0.0,0.0,0.0,0.0,0.0,0.0,0.0,0.0,0.0,0.0,0.0,0.0,0.0,0.0,0.0,0.0,0.0,0.0,0.0,0.0,0.0,0.0,0.0,0.0,2.5879,2.7169,0.0,2.835,2.8532,2.9213,3.061,3.1452,3.2633,3.4237,3.5232,3.6181,3.7238,3.7718,3.9202,4.1937,3.979,3.8707,3.8707,3.881,4.003,4.2259,4.2259,4.289,4.4005,4.4005,4.328,4.2073,4.1479,4.1014,4.0828,4.1999,4.2314,4.2147,4.2333,4.1943,4.1293,0.0,0.5164,0.0,0.5088,0.5338,0.5647,0.6007,0.6433,0.6909,0.7488,0.8053,0.8529,0.8861,0.9686,1.0163,1.009,1.0611,1.0656,0.9947,0.9263,0.8987,0.9156,0.8702,0.9369,1.132,1.2177,1.3325,1.4854,1.5467,1.5944,1.6305,1.6305,1.6373,1.6497,1.6373,1.6403,1.6579,1.6634,1.6019,1.4965,1.4254,1.3304,1.2215,0.0,0.0,0.0,0.0,0.0,0.0,0.0,0.0,0.0,0.0,0.0,0.0,0.0,0.0,0.0,0.0,0.0,0.0,0.0,0.0,0.0,0.0,0.0,0.0,0.0,0.0,0.0,0.0,0.0,0.0,0.0,0.0,0.0,0.0,0.0,2.569,2.827,2.981,3.0838,3.121,3.1863,3.2615,3.3534,3.4279,3.5087,3.5904,3.6572,3.7556,3.9022,3.9013,3.9583,4.0804,4.057,4.0436,4.0436,4.0436,4.1699,4.4005,4.4005,4.4005,4.4005,4.4005,4.3596,4.2946,4.2946,4.2723,4.237,4.211,4.2166,4.2445,4.2816,4.2705,4.2407,0.3898,0.3854,0.3967,0.4435,0.5022,0.5548,0.595,0.6636,0.7326,0.7981,0.8162,0.865,0.9761,0.9854,0.9972,1.0356,1.0335,1.0185,0.9893,0.9378,0.8971,0.8754,0.9328,1.0138,1.1171,1.225,1.3086,1.3641,1.4087,1.4305,1.4305,1.4305,1.4582,1.5062,1.4536,1.4582,1.5108,1.5579,1.6031,1.6336,1.5131,1.4538,1.411,0.0,0.0,0.0,0.0,0.0,0.0,0.0,0.0,0.0,0.0,0.0,0.0,0.0,0.0,0.0,0.0,0.0,0.0,0.0,0.0,0.0,0.0,0.0,0.0,0.0,0.0,0.0,0.0,0.0,0.0,0.0,0.0,0.0,2.249,2.4968,2.7554,2.9769,3.1608,3.2848,3.3196,3.4984,3.6165,3.6335,3.7077,3.7508,3.7508,3.7923,3.8669,3.9768,4.1124,4.1354,4.0377,4.2636,4.3804,4.3804,4.3804,4.3883,4.4005,4.4005,4.4005,4.4005,4.4005,4.4005,4.4005,4.4005,4.4005,4.3912,4.3132,4.2686,4.2593,4.3615,4.4005,4.4005,0.3749,0.4052,0.4409,0.4739,0.5292,0.5826,0.6237,0.6587,0.691,0.7203,0.8177,0.8924,0.9145,0.999,1.0395,1.0059,1.021,1.011,0.9633,0.9107,0.9044,0.9555,1.0738,1.1888,1.2885,1.3205,1.3596,1.412,1.4239,1.4305,1.4305,1.4305,1.4398,1.449,1.4351,1.4398,1.4536,1.4663,1.4801,1.4952,1.5627,1.5562,1.4869,0.0,0.0,0.0,0.0,0.0,0.0,0.0,0.0,0.0,0.0,0.0,0.0,0.0,0.0,0.0,0.0,0.0,0.0,0.0,0.0,0.0,0.0,0.0,0.0,0.0,0.0,0.0,0.0,0.0,0.0,0.0,2.2713,2.4356,2.5259,2.8029,3.0798,3.3117,3.4294,3.5249,3.6079,3.6672,3.7033,3.7163,3.7853,3.8284,3.8284,3.8901,3.953,4.0134,4.0468,4.0906,4.1442,4.2886,4.3652,4.3804,4.3915,4.3974,4.4005,4.4005,4.4005,4.4005,4.4005,4.4005,4.4005,4.4005,4.4005,4.3986,4.3763,4.3633,4.3596,4.3893,4.4005,4.4005,0.3616,0.4006,0.4426,0.472,0.53,0.5823,0.6183,0.6425,0.6709,0.7096,0.8082,0.8816,0.8982,0.9739,1.0072,0.9593,0.9569,0.9451,0.9155,0.9134,0.9537,1.0446,1.1443,1.2394,1.3242,1.3271,1.3455,1.3705,1.3658,1.3658,1.3705,1.361,1.3695,1.3978,1.3752,1.3752,1.4025,1.4025,1.4025,1.4086,1.5112,1.5533,1.5364,1.41,1.3645,1.3568,1.2909,1.2926,1.3216,1.2704,0.0,0.0,0.0,0.0,0.0,0.0,0.0,0.0,0.0,0.0,0.0,0.0,0.0,0.0,0.0,0.0,0.0,0.0,0.0,0.0,0.0,0.0,0.0,0.0,2.5401,2.7503,2.8706,3.07,3.2871,3.5304,3.622,3.6939,3.7564,3.7661,3.7689,3.7833,3.8291,3.867,3.9043,3.9163,3.9735,4.0788,4.0479,4.0829,4.1996,4.285,4.3356,4.3479,4.3749,4.3929,4.3961,4.3961,4.3974,4.4005,4.4005,4.4005,4.4005,4.4005,4.4005,4.4005,0.0,0.0,0.0,0.0,4.4005,4.4005,0.3561,0.3937,0.4339,0.4621,0.5184,0.5695,0.5929,0.6165,0.656,0.7269,0.0,0.8415,0.888,0.9241,0.9343,0.9054,0.8823,0.8663,0.8714,0.9351,1.0176,1.1248,1.1612,1.2113,1.2782,1.2819,1.2881,1.2881,1.2735,1.2735,1.2832,1.2627,1.2861,1.3467,1.291,1.2958,1.3478,1.3478,1.3478,1.3525,1.3978,1.4755,1.5504,1.4201,1.4333,1.5145,1.4319,1.3914,1.3816,1.3769,0.0,0.0,0.0,0.0,0.0,0.0,0.0,0.0,0.0,0.0,0.0,0.0,0.0,0.0,0.0,0.0,0.0,0.0,0.0,0.0,0.0,0.0,0.0,0.0,2.8099,3.0795,3.2234,3.2978,3.4202,3.6488,3.7292,3.7759,3.7848,3.7963,3.8103,3.8259,3.8414,3.89,3.9664,0.0,0.0,0.0,0.0,4.1014,4.224,4.2673,4.2958,4.2995,4.3532,4.3837,4.3883,4.3865,4.3929,4.4005,4.3942,4.3923,4.4005,4.3974,4.3974,4.4005,4.4005,4.4005,4.4005,4.4005,4.4005,4.4005,0.3942,0.4609,0.5143,0.5097,0.5416,0.5704,0.5749,0.5797,0.6007,0.6475,0.7238,0.7791,0.7953,0.8649,0.8996,0.8712,0.889,0.9151,0.0,0.0,1.0252,1.1161,1.1592,1.2109,1.2686,1.2638,1.2627,1.2735,1.2578,1.2529,1.2578,1.2529,1.2578,1.2715,1.2578,1.2627,1.2715,1.2822,1.2861,1.291,1.3104,1.3752,1.4595,1.4744,1.4912,1.5065,1.5281,1.581,1.6344,1.5965,1.5962,1.5927,1.4599,0.0,0.0,0.0,0.0,0.0,0.0,0.0,0.0,0.0,0.0,0.0,0.0,0.0,0.0,0.0,0.0,0.0,0.0,0.0,0.0,2.7774,2.9837,3.1762,3.3587,3.446,3.53,3.6225,3.6424,3.6534,3.6467,3.7032,3.7438,3.7494,3.862,3.9404,3.9698,4.0164,4.0884,4.186,4.1168,4.1366,4.2572,4.2436,4.2537,4.292,4.3532,0.0,4.3837,4.3716,4.3795,4.3974,4.3529,4.3597,4.3974,4.3763,4.3795,4.4005,4.4005,4.4005,4.4005,4.4005,4.4005,4.4005,0.4428,0.4843,0.5115,0.4975,0.5364,0.5667,0.5555,0.563,0.5771,0.5966,0.6624,0.7056,0.7055,0.7523,0.7787,0.7654,0.8047,0.0,0.0,0.9512,1.0052,1.0655,1.1002,1.1389,1.1742,1.1692,1.1692,1.1742,1.1592,1.1592,1.1642,1.1493,1.1543,1.1642,1.1592,1.1592,1.1642,1.1742,1.1742,1.1792,1.2197,1.2618,1.313,1.4014,1.4654,1.512,1.5593,1.6252,1.6851,1.6523,1.6665,1.6796,1.592,1.4977,1.4008,0.0,0.0,0.0,0.0,0.0,0.0,0.0,0.0,0.0,0.0,0.0,0.0,0.0,0.0,2.2394,2.3707,0.0,2.8528,2.9943,3.1449,3.2863,3.4151,3.4363,3.4881,3.605,3.6144,3.6222,3.6572,3.6816,3.7385,3.8305,3.9025,3.9873,4.0802,4.0871,4.1216,4.1974,4.1267,4.1202,4.1801,4.1816,4.1948,4.2216,4.2714,4.3087,4.325,4.3196,4.3303,4.3563,4.3304,4.3339,4.3597,4.3479,4.3563,4.3795,4.3795,4.3892,4.4005,4.4005,4.4005,4.4005,0.4782,0.4875,0.4875,0.4854,0.525,0.5509,0.529,0.5404,0.5499,0.5482,0.5909,0.6202,0.6192,0.6363,0.6528,0.0,0.0,0.0,0.0,0.9331,0.9919,1.0367,1.0515,1.0618,1.0762,1.0762,1.0762,1.0762,1.0618,1.0618,1.0712,1.0517,1.0517,1.0712,1.0618,1.0618,1.0712,1.0762,1.0762,1.0813,1.1466,1.1765,1.1913,1.3025,1.3988,1.4869,1.5344,1.5816,1.6241,1.6288,1.6507,1.6783,1.6687,1.6039,1.5181,1.4642,1.3585,0.0,0.0,0.0,0.0,0.0,0.0,0.0,0.0,0.0,2.0431,2.1452,2.3555,2.5553,2.6673,2.9022,3.0982,3.149,3.2613,3.3598,3.4183,3.3767,3.3979,3.5486,3.5565,3.5809,3.662,3.6686,3.7422,3.9242,3.9464,4.0206,4.1667,4.1198,4.1164,4.175,4.1198,4.0888,4.0888,4.1283,4.1472,4.1534,4.199,4.236,4.2616,4.2634,4.2826,4.3123,4.316,4.3214,4.3214,4.3214,4.341,4.3646,4.3612,4.3763,4.4005,4.4005,4.4005,4.4005,0.4623,0.4768,0.4924,0.5266,0.5233,0.5078,0.4814,0.4805,0.4785,0.4736,0.4983,0.5232,0.5401,0.5592,0.5952,0.0,0.0,0.0,0.9549,0.9829,1.031,1.1123,1.0712,1.0466,1.0618,1.0517,1.0517,1.0618,1.0466,1.0415,1.0415,1.0415,1.0415,1.0415,1.0415,1.0415,1.0466,1.0559,1.0618,1.0661,1.1342,1.1683,1.1864,1.2559,1.319,1.3847,1.4305,1.453,1.4705,1.5653,1.599,1.6099,1.6414,1.6729,1.6601,1.4999,0.0,1.409,1.3499,1.3735,1.4704,1.6973,1.7754,1.8797,0.0,0.0,2.4117,2.6462,2.8062,2.944,3.0566,3.1559,3.2198,3.2275,3.2906,3.3429,3.3506,3.346,3.3486,3.3661,3.3712,3.4109,3.5237,3.5929,3.7133,3.9084,3.9812,4.0402,4.0817,4.0748,4.0827,4.1009,4.0922,4.0888,4.0888,4.1283,4.1472,4.1534,4.2038,4.2306,4.2364,4.24,4.2559,4.2865,4.3105,4.3214,4.3214,4.3214,4.3513,4.3923,4.3679,4.3763,4.4005,4.4005,4.4005,4.4005,0.4803,0.4829,0.4817,0.501,0.4843,0.4655,0.4538,0.4486,0.4446,0.4426,0.452,0.4599,0.465,0.4741,0.5029,0.5686,0.6635,0.7697,0.8857,0.931,0.9755,1.0305,0.9769,0.951,0.9562,0.951,0.951,0.9562,0.951,0.9465,0.9465,0.9465,0.9465,0.9465,0.9465,0.9465,0.9458,0.9517,0.9562,0.9614,1.0379,1.0872,1.1316,1.2058,1.2513,1.2856,1.3355,1.3737,0.0,0.0,1.4636,1.474,1.5362,1.5452,1.5301,1.511,1.5033,0.0,1.554,1.6512,1.7741,0.0,2.0605,2.2301,2.4261,2.5358,2.6533,2.8684,3.016,3.133,3.2394,3.3136,3.3598,0.0,3.349,3.3398,3.3398,3.3398,3.326,3.2859,3.3167,3.4029,3.5671,3.6362,3.7618,3.9695,4.0217,4.0485,4.0697,4.0793,4.084,4.0888,4.0888,4.0888,4.0888,4.1522,4.1806,4.1824,4.2474,4.2868,4.2986,4.3022,4.3244,4.3692,4.3917,4.3998,4.3998,4.3998,4.4375,4.4909,4.4802,4.4773,4.4692,4.4191,4.4005,4.4005,0.4848,0.4778,0.4584,0.4578,0.435,0.4208,0.4268,0.4216,0.4142,0.4089,0.4068,0.4055,0.4022,0.4001,0.4229,0.4823,0.5887,0.6909,0.7874,0.8465,0.8996,0.9453,0.8989,0.8724,0.8804,0.8804,0.8804,0.8804,0.8804,0.8804,0.8804,0.8804,0.8804,0.8804,0.8804,0.8804,0.8804,0.8804,0.8804,0.8857,0.9614,1.0167,1.0618,1.1601,1.1916,1.1929,1.2538,1.2832,0.0,0.0,1.3111,1.3219,1.3963,1.4072,1.4125,1.513,1.5537,1.5875,1.6801,0.0,0.0,2.0837,2.3019,2.5063,2.6068,2.7285,2.8713,3.0499,3.1663,3.2615,3.3762,3.4245,3.4398,3.4214,3.3737,3.3336,3.3152,3.329,3.3152,3.2475,3.2982,3.402,3.5605,3.6427,3.76,3.9345,4.0052,4.0436,4.037,4.068,4.0888,4.0888,4.1078,4.1181,4.1181,4.1923,4.2319,4.2319,4.2938,4.3264,4.3426,4.3475,4.381,4.4324,4.4467,4.4624,4.4736,4.4668,4.497,4.5585,4.5585,4.5553,4.5397,4.4767,4.4332,4.4005,0.4675,0.449,0.4254,0.4047,0.3794,0.3709,0.3971,0.3888,0.3737,0.3541,0.3527,0.3527,0.3527,0.3527,0.3669,0.4002,0.4965,0.5968,0.697,0.7479,0.8187,0.9158,0.8677,0.8517,0.8798,0.8804,0.8804,0.8804,0.8804,0.8804,0.8804,0.8804,0.8804,0.8804,0.8804,0.8804,0.8804,0.8804,0.8804,0.8857,0.9413,0.9718,0.9969,1.115,1.1354,1.1143,1.1939,0.0,0.0,0.0,1.1673,1.1674,1.2279,1.3031,0.0,1.4905,1.5865,0.0,0.0,0.0,1.9698,2.2562,2.4586,2.6343,2.8169,2.9532,3.0892,3.257,3.2948,3.3496,3.511,3.4906,3.4245,3.3552,3.3413,3.3167,3.2521,3.2982,3.3152,3.2475,3.2982,3.3665,3.4273,3.554,3.6625,3.7373,3.9225,4.0121,3.9662,4.032,4.0745,4.0888,4.1578,4.1957,4.1957,4.2733,4.318,4.318,4.3214,4.3214,4.3214,4.3426,4.381,4.4324,4.4324,4.4581,4.507,4.4736,4.497,4.551,4.5585,4.5773,4.5973,4.5936,4.513,4.4005,0.4534,0.4272,0.3981,0.3999,0.3738,0.3584,0.371,0.3668,0.3584,0.3506,0.3506,0.0,0.0,0.0,0.0,0.0,0.4759,0.5638,0.6609,0.716,0.7787,0.8564,0.8498,0.8424,0.8517,0.8711,0.8804,0.8804,0.8804,0.8804,0.8804,0.8804,0.8804,0.8804,0.8804,0.8804,0.8804,0.8804,0.8804,0.8804,0.9106,0.9465,0.9865,1.0372,1.0253,0.9923,0.0,0.0,0.0,0.0,1.02,1.0323,1.1101,0.0,0.0,1.465,0.0,1.7303,0.0,0.0,2.2118,2.4041,2.6352,2.8538,3.0197,3.1112,3.1904,3.2775,3.2837,3.2885,3.3345,3.3244,3.3013,3.2782,3.2736,3.2659,3.2428,3.3383,3.369,3.2536,3.3814,0.0,3.3758,3.4462,0.0,3.7183,3.8363,3.9143,3.9456,4.0713,4.1435,4.1484,4.2322,4.2768,4.2768,4.3526,4.3906,4.3957,4.4423,4.4665,4.4665,4.4937,4.512,4.5334,4.567,4.595,4.6114,4.6195,4.6442,4.6807,4.6866,4.6684,4.6448,4.6448,4.5846,4.5003,0.4268,0.4032,0.3799,0.3808,0.3653,0.0,0.0,0.0,0.0,0.0,0.0,0.0,0.0,0.0,0.0,0.0,0.0,0.4946,0.5609,0.6089,0.6639,0.7217,0.7334,0.7448,0.7551,0.773,0.7821,0.7923,0.7923,0.7923,0.7967,0.8067,0.8059,0.8118,0.8376,0.8474,0.848,0.8699,0.8804,0.8798,0.8795,0.8999,0.9322,0.943,0.9144,0.0,0.0,0.0,0.0,0.8732,0.0,0.0,0.0,0.0,0.0,0.0,1.6512,1.8289,1.9744,2.1724,2.3891,2.5814,2.7987,2.9984,3.1216,3.2037,3.245,3.2229,3.1842,3.1479,3.1336,3.1136,3.1136,3.1613,3.209,3.2475,3.2721,3.3952,3.4414,3.3275,3.4522,3.5029,0.0,0.0,0.0,3.6533,3.7941,3.8949,3.945,4.0934,4.1915,4.219,4.3097,4.3611,4.3611,4.4302,4.4682,4.4699,4.5182,4.5423,4.5423,4.5563,4.5701,4.5837,4.6186,4.6429,4.6637,4.6795,4.7025,4.7338,4.7468,4.7295,4.6989,4.6989,4.6662,4.6136,0.3855,0.3799,0.3729,0.0,0.0,0.0,0.0,0.0,0.0,0.0,0.0,0.0,0.0,0.0,0.0,0.0,0.0,0.0,0.4073,0.4442,0.0,0.5239,0.5471,0.5722,0.5973,0.5984,0.6072,0.6271,0.6271,0.6337,0.6464,0.6651,0.6766,0.6777,0.7489,0.7811,0.787,0.8429,0.8698,0.8659,0.8437,0.8317,0.8342,0.8392,0.0,0.0,0.0,0.0,0.0,0.0,0.0,0.0,0.0,0.0,0.0,0.0,0.0,1.9588,2.1608,2.3213,2.4983,2.7681,2.9428,3.0662,3.1359,3.225,3.2522,3.1026,3.0045,2.9395,2.9173,0.0,2.8778,3.012,3.152,3.2675,3.3306,3.4599,3.523,0.0,0.0,0.0,0.0,0.0,0.0,3.5537,0.0,3.9417,3.9569,4.1083,4.2241,4.2945,4.3872,4.4337,4.4337,4.5061,4.5423,4.5423,4.5423,4.5423,4.5423,4.5423,4.5563,4.5786,4.5786,4.6087,4.6542,4.659,4.6731,4.698,4.7338,4.7468,4.7468,4.7468,4.7468,4.7277,0.0,0.0,0.0,0.0,0.0,0.0,0.0,0.0,0.0,0.0,0.0,0.0,0.0,0.0,0.0,0.0,0.0,0.0,0.3933,0.0,0.0,0.0,0.0,0.0,0.5558,0.5694,0.0,0.0,0.0,0.6007,0.6069,0.6164,0.6192,0.6203,0.655,0.6712,0.6729,0.6956,0.717,0.732,0.0,0.7283,0.7348,0.0,0.0,0.0,0.0,0.0,0.0,0.0,0.0,0.0,0.0,0.0,1.5322,0.0,0.0,2.1224,2.1307,2.3872,2.6659,2.7548,2.9107,3.0513,3.131,3.1074,3.0338,2.8949,2.7874,2.6887,2.5782,2.6839,0.0,2.8808,3.1006,0.0,3.3326,3.4599,0.0,3.4552,0.0,3.5968,3.5291,3.5691,0.0,0.0,3.8046,3.8884,3.943,4.1933,4.3442,4.363,4.4577,4.513,4.513,4.5337,4.5423,4.5423,4.5423,4.5423,4.5423,4.5423,4.5423,4.5511,4.5701,4.5887,4.6038,4.6235,4.6447,4.6684,4.6778,4.6962,4.7116,4.7116,4.7116,4.7062,0.0,0.0,0.0,0.0,0.0,0.0,0.0,0.0,0.0,0.0,0.0,0.0,0.0,0.0,0.0,0.0,0.0,0.0,0.0,0.0,0.0,0.0,0.0,0.4091,0.4187,0.4328,0.0,0.0,0.0,0.0,0.0,0.4905,0.4988,0.4998,0.5482,0.5718,0.5734,0.6088,0.0,0.0,0.0,0.0,0.0,0.0,0.0,0.0,0.0,0.0,0.0,0.0,0.0,1.1846,1.3029,1.4596,1.6243,1.7771,0.0,2.2115,2.3025,2.5044,2.6993,2.7741,2.8692,2.9479,2.9429,2.9127,2.8181,2.5877,2.5122,0.0,2.284,2.4292,0.0,0.0,0.0,0.0,3.3706,3.4799,3.546,0.0,3.603,0.0,3.6384,3.6707,3.7215,0.0,3.8254,3.8809,3.9818,4.2119,4.3555,4.3931,4.4847,4.5371,4.5423,4.5423,4.5423,4.5423,4.5423,4.5423,4.5423,4.5423,4.5423,4.5423,4.5563,4.5701,4.5786,4.5938,4.6186,4.6447,4.6542,4.6684,4.6842,4.6952,4.6998,4.6998,0.0,0.0,0.0,0.0,0.0,0.0,0.0,0.0,0.0,0.0,0.0,0.0,0.0,0.0,0.0,0.0,0.0,0.0,0.0,0.0,0.0,0.0,0.0,0.0,0.0,0.0,0.0,0.0,0.0,0.0,0.0,0.0,0.0,0.0,0.0,0.0,0.0,0.0,0.0,0.0,0.0,0.0,0.0,0.0,0.0,0.0,0.0,0.0,0.0,0.0,1.1015,1.273,1.3849,1.5389,1.7238,1.9511,2.1043,2.2604,2.5218,2.6208,2.6779,2.801,2.8306,2.8056,2.7125,2.6873,2.5936,2.2717,0.0,2.1918,2.0419,2.1756,2.3774,2.5935,0.0,3.1313,3.4091,3.506,3.5737,3.6415,3.6569,3.6861,3.7446,3.7584,3.7923,3.86,3.8575,3.9125,4.0419,4.2005,4.3246,4.4135,4.4835,4.5247,4.5423,4.5423,4.5423,4.5423,4.5423,4.5423,4.5423,4.5423,4.5423,4.5423,4.5423,4.5511,4.5735,4.5735,4.5887,4.6186,4.6429,4.659,4.6637,4.6888,4.6998,4.6998,0.0,0.0,0.0,0.0,0.0,0.0,0.0,0.0,0.0,0.0,0.0,0.0,0.0,0.0,0.0,0.0,0.0,0.0,0.0,0.0,0.0,0.0,0.0,0.0,0.0,0.0,0.0,0.0,0.0,0.0,0.0,0.0,0.0,0.0,0.0,0.0,0.0,0.0,0.0,0.0,0.0,0.0,0.0,0.0,0.0,0.0,0.0,0.0,0.0,0.0,1.193,1.3783,1.4676,1.6004,1.772,1.9775,2.1538,2.3132,2.4601,2.5995,2.7258,2.817,2.7719,2.7121,2.7561,2.5507,0.0,0.0,2.0399,1.958,1.95,2.0795,2.2843,2.5814,0.0,0.0,0.0,0.0,3.5737,0.0,0.0,0.0,3.7492,3.8,0.0,0.0,3.9298,3.9629,4.0482,4.2463,4.4051,4.4944,4.5123,4.5247,4.5423,4.5423,4.5423,4.5423,4.5423,4.5423,4.5423,4.5423,4.5423,4.5423,4.5423,0.0,4.5459,4.5459,4.5615,4.5887,4.6186,4.6381,4.6637,4.6888,4.6998,4.6998,0.0,0.0,0.0,0.0,0.0,0.0,0.0,0.0,0.0,0.0,0.0,0.0,0.0,0.0,0.0,0.0,0.0,0.0,0.0,0.0,0.0,0.0,0.0,0.0,0.0,0.0,0.0,0.0,0.0,0.0,0.0,0.0,0.0,0.0,0.0,0.0,0.0,0.0,0.0,0.0,0.0,0.0,0.0,0.0,0.0,0.0,0.0,0.0,0.0,0.0,1.141,1.3461,1.4708,1.667,1.8808,2.0317,2.2136,2.3945,2.5038,2.5792,2.6524,2.7618,2.6788,2.5694,2.5827,0.0,0.0,0.0,1.8593,1.8017,1.7746,0.0,0.0,0.0,0.0,0.0,0.0,0.0,0.0,0.0,0.0,0.0,0.0,3.8646,3.9323,4.0001,4.0047,4.0168,4.0473,4.1917,4.3453,4.4923,4.4763,4.4872,4.53,4.5371,4.5423,4.5423,4.5423,4.5423,4.5423,4.5423,4.5423,4.5423,4.5423,4.5423,4.5423,4.5423,4.5476,4.5649,4.6038,4.6284,4.6429,4.6842,4.6998,4.6998,0.0,0.0,0.0,0.0,0.0,0.0,0.0,0.0,0.0,0.0,0.0,0.0,0.0,0.0,0.0,0.0,0.0,0.0,0.0,0.0,0.0,0.0,0.0,0.0,0.0,0.0,0.0,0.0,0.0,0.0,0.0,0.0,0.0,0.0,0.0,0.0,0.0,0.0,0.0,0.0,0.0,0.0,0.0,0.0,0.0,0.0,0.0,0.0,0.0,0.0,1.0481,1.2466,1.3965,1.6315,1.8871,2.0281,2.2034,2.3815,2.5205,2.5565,2.5849,2.7136,2.6073,2.4633,2.4173,2.1945,0.0,0.0,1.7166,1.6886,1.6493,0.0,2.0654,0.0,2.3517,0.0,0.0,0.0,0.0,0.0,0.0,0.0,3.8462,3.9262,0.0,4.0493,4.0524,4.0593,4.0715,4.1343,4.2599,4.4536,4.4299,4.4451,4.514,4.53,4.5371,4.5371,4.5371,4.5423,4.5423,4.5423,4.5423,4.5423,4.5423,4.5423,4.5423,4.5423,4.5423,4.5476,4.5955,4.6137,4.6186,4.6749,4.6888,4.6934,0.0,0.0,0.0,0.0,0.0,0.0,0.0,0.0,0.0,0.0,0.0,0.0,0.0,0.0,0.0,0.0,0.0,0.0,0.0,0.0,0.0,0.0,0.0,0.0,0.0,0.0,0.0,0.0,0.0,0.0,0.0,0.0,0.0,0.0,0.0,0.0,0.0,0.0,0.0,0.0,0.0,0.0,0.0,0.0,0.0,0.0,0.0,0.0,0.0,0.0,0.0,1.0754,1.1957,1.3802,1.6046,1.8895,0.0,0.0,2.4272,2.563,2.6483,2.7284,2.6158,2.4664,2.4194,0.0,0.0,1.7573,1.6493,1.5951,1.6921,1.7362,1.8576,0.0,0.0,2.581,0.0,0.0,0.0,0.0,0.0,0.0,3.8508,3.9677,4.0462,4.0524,4.0524,4.0783,4.1409,4.1459,4.2269,4.3839,4.3839,4.4202,4.5032,4.514,4.5247,4.5247,4.5371,4.5423,4.5423,4.5423,4.5423,4.5423,4.5423,4.5423,0.0,4.5423,4.5423,4.5423,4.5752,4.5837,4.5887,4.6429,4.6637,4.6684,0.0,0.0,0.0,0.0,0.0,0.0,0.0,0.0,0.0,0.0,0.0,0.0,0.0,0.0,0.0,0.0,0.0,0.0,0.0,0.0,0.0,0.0,0.0,0.0,0.0,0.0,0.0,0.0,0.0,0.0,0.0,0.0,0.0,0.0,0.0,0.0,0.0,0.0,0.0,0.0,0.0,0.0,0.0,0.0,0.0,0.0,0.0,0.0,0.0,0.0,0.0,0.0,1.0481,1.1691,0.0,0.0,1.9372,2.1481,2.393,2.5477,2.6582,2.7258,2.637,2.5075,2.3775,0.0,1.8281,1.7544,1.6404,1.5713,1.6447,1.6932,1.7777,1.9528,2.0654,2.2548,2.6226,0.0,0.0,0.0,0.0,0.0,0.0,0.0,4.0524,4.0524,4.0524,4.0593,4.0904,4.0904,4.1706,4.3571,4.335,4.3722,4.4886,4.5032,4.514,4.5177,4.5247,4.53,4.5423,4.5423,4.5423,4.5423,4.5423,4.5423,0.0,4.5423,4.5423,4.5423,4.5701,4.5786,4.5837,4.6235,4.6332,4.6381,0.0,0.0,0.0,0.0,0.0,0.0,0.0,0.0,0.0,0.0,0.0,0.0,0.0,0.0,0.0,0.0,0.0,0.0,0.0,0.0,0.0,0.0,0.0,0.0,0.0,0.0,0.0,0.0,0.0,0.0,0.0,0.0,0.0,0.0,0.0,0.0,0.0,0.0,0.0,0.0,0.0,0.0,0.0,0.0,0.0,0.0,0.0,0.0,0.0,0.0,0.0,0.0,0.0,0.0,0.0,0.0,1.8008,2.0476,2.2769,2.4661,2.6165,2.6492,2.5908,2.4833,0.0,2.0485,1.8152,1.7549,1.6436,1.5726,1.6139,1.6747,1.7423,1.8099,1.9315,2.1245,2.4179,2.6303,0.0,0.0,0.0,3.6722,0.0,3.9616,4.0524,4.0524,4.0524,4.0524,4.0524,4.0524,4.1209,4.2892,4.2583,4.297,4.4088,4.4446,4.4725,4.4818,4.5069,4.5247,4.5423,4.5423,4.5423,4.5423,4.5423,4.5423,0.0,4.5423,4.5423,4.5423,4.5598,4.5701,4.5701,4.5988,4.6087,4.6087,0.0,0.0,0.0,0.0,0.0,0.0,0.0,0.0,0.0,0.0,0.0,0.0,0.0,0.0,0.0,0.0,0.0,0.0,0.0,0.0,0.0,0.0,0.0,0.0,0.0,0.0,0.0,0.0,0.0,0.0,0.0,0.0,0.0,0.0,0.0,0.0,0.0,0.0,0.0,0.0,0.0,0.0,0.0,0.0,0.0,0.0,0.0,0.0,0.0,0.0,0.0,0.0,0.0,0.0,1.0925,0.0,1.5931,1.7744,2.0488,2.3065,2.4996,2.4849,2.4475,2.3758,0.0,1.9962,1.7791,1.748,1.6605,1.5957,1.6166,1.6747,1.7423,1.8099,2.0501,2.2978,2.501,2.8179,0.0,0.0,0.0,3.603,3.7384,3.9339,4.0524,4.0524,4.0524,0.0,4.0524,4.0524,4.0836,4.1525,4.1525,4.1836,4.252,4.3393,4.3898,4.4037,4.4818,4.5247,4.5423,4.5423,4.5423,4.5423,4.5423,4.5423,0.0,4.5423,4.5423,4.5423,4.5423,4.5423,4.5423,4.5701,4.5786,4.5837,0.0,0.0,0.0,0.0,0.0,0.0,0.0,0.0,0.0,0.0,0.0,0.0,0.0,0.0,0.0,0.0,0.0,0.0,0.0,0.0,0.0,0.0,0.0,0.0,0.0,0.0,0.0,0.0,0.0,0.0,0.0,0.0,0.0,0.0,0.0,0.0,0.0,0.0,0.0,0.0,0.0,0.0,0.0,0.0,0.0,0.0,0.0,0.0,0.0,0.0,0.0,0.0,0.0,0.0,0.0,1.1857,1.4089,1.6508,1.8932,2.0853,2.2205,2.19,2.2183,2.1991,2.0105,1.8729,1.7662,1.6881,1.6278,1.5957,1.6166,1.6363,1.7331,1.99,2.1039,0.0,0.0,0.0,0.0,0.0,3.5445,3.8077,0.0,0.0,4.0524,4.0524,4.0524,4.0524,4.0524,4.0524,4.0836,4.1459,4.1525,4.1836,4.252,4.2769,4.3257,4.398,4.4282,4.4763,4.5423,4.5423,4.5423,4.5423,4.5423,4.5423,4.5423,4.5423,4.5423,4.5423,4.5423,4.5423,4.5423,4.5528,4.5511,4.5563,0.0,0.0,0.0,0.0,0.0,0.0,0.0,0.0,0.0,0.0,0.0,0.0,0.0,0.0,0.0,0.0,0.0,0.0,0.0,0.0,0.0,0.0,0.0,0.0,0.0,0.0,0.0,0.0,0.0,0.0,0.0,0.0,0.0,0.0,0.0,0.0,0.0,0.0,0.0,0.0,0.0,0.0,0.5786,0.0,0.0,0.0,0.0,0.0,0.0,0.0,0.0,0.0,0.0,0.0,0.0,0.0,1.2556,1.4798,0.0,1.8635,1.9759,1.9863,2.0114,1.9995,1.8789,1.7919,1.7151,1.6547,1.6189,1.6055,1.6166,1.6609,1.7638,1.9793,2.0993,0.0,0.0,0.0,0.0,0.0,0.0,0.0,0.0,4.0232,4.0524,4.0524,4.0524,4.0524,4.0524,4.0524,4.0715,4.1091,4.1158,4.1343,4.1771,4.2029,4.252,4.3376,4.363,4.4243,4.514,4.514,4.5247,4.5423,4.5423,4.5423,0.0,4.5423,4.5423,4.5423,4.5423,4.5423,4.5423,4.5423,4.5423,4.5423,0.0,0.0,0.0,0.0,0.0,0.0,0.0,0.0,0.0,0.0,0.0,0.0,0.0,0.0,0.0,0.0,0.0,0.0,0.0,0.0,0.0,0.0,0.0,0.0,0.0,0.0,0.0,0.0,0.4721,0.5128,0.5626,0.0,0.0,0.0,0.0,0.0,0.0,0.0,0.0,0.0,0.0,0.6061,0.0,0.0,0.0,0.0,0.0,0.0,0.0,0.0,0.0,0.0,0.0,0.0,0.0,0.0,0.0,0.0,0.0,1.6355,1.7511,1.8325,1.8173,1.7875,1.8173,1.7317,0.0,1.639,1.6291,1.624,1.6379,1.7362,1.8268,1.8653,2.0855,0.0,0.0,0.0,0.0,0.0,3.6799,0.0,3.8585,3.9801,4.0524,4.0524,4.0524,4.0524,4.0524,4.0524,4.0524,4.0524,4.0524,4.0524,4.0524,4.1158,4.1722,4.2253,4.2941,4.3722,4.4652,4.4635,4.4944,4.5371,4.5371,4.5423,4.5423,4.5423,4.5423,4.5423,4.5423,4.5423,4.5423,4.5423,4.5423,4.5423,0.0,0.0,0.0,0.0,0.0,0.0,0.0,0.0,0.0,0.0,0.0,0.0,0.0,0.0,0.0,0.0,0.0,0.0,0.0,0.0,0.0,0.0,0.0,0.0,0.0,0.0,0.0,0.4388,0.5086,0.5578,0.59,0.59,0.0,0.0,0.0,0.0,0.0,0.0,0.0,0.0,0.5823,0.6002,0.0,0.0,0.0,0.0,0.6637,0.6883,0.0,0.0,0.0,0.0,0.0,0.0,0.0,0.0,1.04,1.1335,1.2437,0.0,1.479,1.4883,1.5372,1.5895,0.0,1.6213,1.6332,1.6069,0.0,1.6699,1.8285,1.7961,1.8791,2.2939,0.0,0.0,0.0,0.0,0.0,3.7367,3.8077,3.8739,3.9939,4.0339,4.0524,4.0524,4.0524,4.0524,4.0524,4.0524,4.0524,4.0524,4.0524,4.0524,4.0524,4.0646,4.1158,4.1917,4.2364,4.297,4.3806,4.4412,4.4763,4.4889,4.5247,4.5423,4.5423,4.5423,4.5423,4.5423,4.5423,4.5423,4.5423,4.5423,4.5423,4.5423,0.0,0.0,0.0,0.0,0.0,0.0,0.0,0.0,0.0,0.0,0.0,0.0,0.0,0.0,0.0,0.0,0.0,0.0,0.0,0.0,0.0,0.0,0.0,0.0,0.0,0.0,0.0,0.0,0.0,0.5681,0.0,0.0,0.0,0.0,0.0,0.0,0.0,0.0,0.0,0.0,0.5613,0.0,0.0,0.0,0.0,0.0,0.6547,0.6832,0.0,0.7366,0.7666,0.7966,0.0,0.0,0.0,0.0,0.9768,1.0467,1.1268,1.2516,1.3745,1.4397,1.4804,1.5223,1.5764,0.0,0.0,0.0,0.0,1.6847,1.8006,1.8407,0.0,0.0,2.44,0.0,0.0,0.0,0.0,3.7791,3.808,3.8613,0.0,4.0106,4.0246,4.0455,4.0524,4.0524,4.0524,4.0524,4.0524,4.0524,4.0524,4.0524,4.0524,4.0524,4.0851,4.1491,4.1688,4.2173,4.297,4.3571,4.4037,4.4507,4.4872,4.5194,4.5423,4.5423,4.5423,4.5423,4.5423,4.5423,4.5423,4.5423,4.5423,4.5423,0.0,0.0,0.0,0.0,0.0,0.0,0.0,0.0,0.0,0.0,0.0,0.0,0.0,0.0,0.0,0.0,0.0,0.0,0.0,0.0,0.0,0.0,0.0,0.0,0.0,0.0,0.0,0.0,0.0,0.0,0.0,0.0,0.0,0.0,0.0,0.0,0.0,0.0,0.0,0.0,0.5373,0.0,0.0,0.0,0.0,0.0,0.0,0.0,0.0,0.7555,0.7934,0.8301,0.8544,0.0,0.0,0.0,0.0,0.0,1.0898,1.2238,1.3709,1.5105,1.5292,1.5378,1.641,0.0,0.0,0.0,0.0,0.0,0.0,1.9269,0.0,0.0,0.0,0.0,0.0,3.3411,3.545,3.6985,3.7231,0.0,3.9182,3.9391,3.9737,4.0316,4.0385,4.0385,4.0539,4.0524,4.0524,4.0524,4.0524,4.0524,4.0524,4.0524,4.0662,4.1003,4.107,4.144,4.2126,4.2553,4.3136,4.3946,4.4395,4.4872,4.5247,4.5371,4.5423,4.5423,4.5423,4.5423,4.5423,4.5423,4.5423,4.5423,0.0,0.0,0.0,0.0,0.0,0.0,0.0,0.0,0.0,0.0,0.0,0.0,0.0,0.0,0.0,0.0,0.0,0.0,0.0,0.0,0.0,0.0,0.0,0.0,0.0,0.0,0.0,0.0,0.0,0.0,0.6064,0.6532,0.61,0.0,0.0,0.0,0.0,0.0,0.0,0.5152,0.0,0.0,0.0,0.0,0.0,0.0,0.0,0.0,0.0,0.7413,0.7927,0.8544,0.86,0.0,0.0,0.0,0.0,0.0,1.1011,1.2771,1.4233,1.4641,1.5425,1.6157,1.6409,0.0,0.0,0.0,0.0,0.0,0.0,0.0,0.0,0.0,0.0,2.9135,0.0,0.0,3.2887,3.4905,0.0,3.6346,3.7579,3.8106,3.8738,3.9753,3.9824,4.0036,4.0455,4.0524,4.0524,4.0524,4.0524,4.0524,4.0524,4.0524,4.0524,4.0593,4.0935,4.1189,4.1323,4.2061,4.2427,4.2661,4.3789,4.4305,4.4434,4.5123,4.5423,4.5423,4.5423,4.5423,4.5423,4.5423,4.5423,4.5423,0.0,0.0,0.0,0.0,0.0,0.0,0.0,0.0,0.0,0.0,0.0,0.0,0.0,0.0,0.0,0.0,0.0,0.0,0.0,0.0,0.0,0.0,0.0,0.0,0.0,0.0,0.0,0.0,0.0,0.6386,0.6533,0.629,0.5901,0.5425,0.0,0.0,0.0,0.0,0.0,0.4829,0.0,0.0,0.0,0.0,0.0,0.0,0.0,0.0,0.0,0.0,0.7934,0.848,0.876,0.0,0.0,0.0,0.0,0.0,1.1025,1.2531,1.3915,1.4954,1.6323,1.7476,1.762,0.0,0.0,0.0,0.0,0.0,0.0,0.0,0.0,0.0,0.0,3.116,3.1914,3.2429,3.3101,0.0,0.0,3.5147,3.6333,3.6928,3.7767,3.9233,3.9595,3.9895,4.0455,4.0524,4.0524,4.0524,4.0524,4.0524,4.0524,4.0524,4.0524,4.0524,4.0662,4.0799,4.0799,4.1374,4.1819,4.211,4.2998,4.3714,4.4249,4.4818,4.5177,4.5423,4.5423,4.5423,4.5423,4.5423,4.5423,4.5423,0.0,0.0,0.0,0.0,0.0,0.0,0.0,0.0,0.0,0.0,0.0,0.0,0.0,0.0,0.0,0.0,0.0,0.0,0.0,0.0,0.0,0.0,0.0,0.0,0.0,0.0,0.0,0.5902,0.6323,0.6684,0.6972,0.6259,0.5878,0.0,0.0,0.0,0.0,0.0,0.0,0.4555,0.0,0.0,0.0,0.0,0.0,0.0,0.0,0.0,0.0,0.0,0.0,0.0,0.0,0.0,0.0,0.9092,0.9092,0.9433,1.0961,1.2324,1.3688,1.5224,0.0,1.8395,1.9048,0.0,0.0,0.0,0.0,0.0,0.0,2.3428,0.0,2.8862,3.0966,3.2024,3.1439,3.2345,3.3099,3.3179,3.3298,3.3798,3.4858,3.5613,3.6735,3.8297,3.8971,3.9523,4.0091,4.0091,4.0176,4.0316,4.0316,4.0385,4.0524,4.0524,4.0524,4.0524,4.0524,4.0524,4.0524,4.0799,4.1174,4.1541,4.2221,4.2937,4.3714,4.4322,4.4818,4.5123,4.5318,4.5423,4.5423,4.5423,4.5423,4.5423,0.0,0.0,0.0,0.0,0.0,0.0,0.0,0.0,0.0,0.0,0.0,0.0,0.0,0.0,0.0,0.0,0.0,0.0,0.0,0.0,0.0,0.0,0.0,0.0,0.0,0.4992,0.5297,0.6162,0.6322,0.6605,0.6907,0.6901,0.6307,0.5247,0.0,0.0,0.0,0.0,0.0,0.4773,0.4624,0.0,0.0,0.0,0.0,0.0,0.0,0.0,0.0,0.0,0.0,0.0,0.0,0.0,0.9092,0.9092,0.9092,0.9414,1.0904,1.2578,1.415,1.5191,1.6494,0.0,2.0283,2.0502,0.0,2.3149,0.0,0.0,0.0,2.4655,2.7412,3.143,3.1308,3.0771,3.0974,0.0,3.1211,3.1189,3.1662,3.217,3.2693,3.4086,3.5452,3.6532,3.7465,3.8263,3.8855,3.8929,3.9162,3.9753,3.9753,3.9965,4.0539,4.0524,4.0524,4.0524,4.0524,4.0524,4.0524,4.0524,4.0593,4.0646,4.1475,4.1917,4.2094,4.3597,4.4249,4.4361,4.5123,4.5423,4.5423,4.5423,4.5423,4.5423,0.0,0.0,0.0,0.0,0.0,0.0,0.0,0.0,0.0,0.0,0.0,0.0,0.0,0.0,0.0,0.0,0.0,0.0,0.0,0.0,0.0,0.0,0.0,0.4692,0.5377,0.5776,0.6127,0.6465,0.6693,0.6882,0.7029,0.6392,0.0,0.0,0.0,0.0,0.0,0.0,0.0,0.5028,0.4811,0.4753,0.0,0.0,0.0,0.0,0.0,0.0,0.0,0.0,0.7338,0.7957,0.0,0.8817,0.9092,0.9092,0.9092,0.9401,1.0747,1.2782,1.4675,1.5212,1.7169,0.0,0.0,2.2008,2.3144,2.48,2.5468,0.0,0.0,0.0,2.8452,3.1116,3.0804,3.0421,3.0944,3.0986,3.0986,3.0986,3.1169,3.152,3.2027,3.3078,3.4396,3.5849,3.6839,3.7767,3.8767,3.8782,3.8929,3.9162,3.9538,3.9824,3.9965,4.0316,4.0524,4.0524,4.0524,4.0524,4.0524,4.0524,4.0524,4.0524,4.1107,4.1557,4.1917,4.3136,4.3555,4.3522,4.4322,4.4927,4.5423,4.5423,4.5423,4.5423,0.0,0.0,0.0,0.0,0.0,0.0,0.0,0.0,0.0,0.0,0.0,0.0,0.0,0.0,0.0,0.0,0.0,0.0,0.0,0.0,0.0,0.0,0.0,0.4579,0.5144,0.6,0.645,0.6495,0.6933,0.7085,0.6967,0.0,0.0,0.0,0.0,0.0,0.0,0.0,0.0,0.0,0.4988,0.4902,0.0,0.0,0.0,0.0,0.0,0.0,0.0,0.0,0.6943,0.7473,0.0,0.0,0.0,0.0,0.931,0.9805,1.0826,1.2938,1.5018,0.0,0.0,0.0,2.2369,2.3371,2.4413,2.6491,2.6935,0.0,0.0,0.0,0.0,0.0,3.062,3.0398,3.1143,3.1104,3.0986,3.0986,3.0986,3.1143,3.1535,3.2328,3.3451,3.4761,3.5874,3.69,3.7868,3.8161,3.8337,3.8486,3.8943,3.9307,3.9681,4.0036,4.0316,4.0524,4.0524,4.0524,4.0524,4.0524,4.0524,4.0524,4.0799,4.1107,4.1475,4.2427,4.3031,4.336,4.3905,4.4635,4.5371,4.5371,4.5353,4.5423,0.0,0.0,0.0,0.0,0.0,0.0,0.0,0.0,0.0,0.0,0.0,0.0,0.0,0.0,0.0,0.0,0.0,0.0,0.0,0.0,0.0,0.0,0.0,0.4454,0.4592,0.5377,0.5951,0.6301,0.6888,0.7029,0.6718,0.6757,0.0,0.0,0.0,0.0,0.0,0.0,0.0,0.0,0.5182,0.5098,0.5127,0.0,0.0,0.0,0.0,0.0,0.0,0.0,0.6799,0.697,0.0,0.0,0.0,0.8932,0.9816,1.0711,1.1193,1.2962,1.5106,0.0,0.0,0.0,2.4747,2.4433,2.4387,2.8438,0.0,2.8255,3.0555,2.9104,0.0,3.1365,3.0807,3.0529,3.1589,3.1339,3.0986,3.0986,3.0986,3.0986,3.0986,3.1938,3.2662,3.3064,3.4609,3.5669,3.6065,3.6641,3.7275,3.7872,3.7886,3.8486,3.9681,3.9681,3.9965,4.0455,4.0524,4.0524,4.0524,4.0524,4.0524,4.0524,4.0524,4.0524,4.0593,4.1409,4.2645,4.398,4.398,4.4451,4.5177,4.5177,4.53,4.5423,0.0,0.0,0.0,0.0,0.0,0.0,0.0,0.0,0.0,0.0,0.0,0.0,0.0,0.0,0.0,0.0,0.0,0.0,0.0,0.0,0.0,0.0,0.0,0.0,0.0,0.0,0.5548,0.6584,0.6478,0.6554,0.0,0.0,0.0,0.6246,0.0,0.0,0.0,0.0,0.0,0.0,0.0,0.5133,0.495,0.0,0.0,0.0,0.0,0.0,0.0,0.0,0.0,0.0,0.76,0.0,0.0,0.9138,1.0045,1.1181,1.16,1.3309,0.0,0.0,0.0,0.0,0.0,2.3689,0.0,0.0,2.8337,2.8497,3.0103,2.9447,0.0,3.0963,3.062,3.0398,3.113,3.1091,3.0986,3.0986,3.0986,3.0986,3.0986,3.1505,3.2057,3.2635,3.3376,3.4149,3.5016,3.5628,3.6179,3.6637,3.7429,3.8037,3.8412,3.9307,3.9753,3.9965,4.0316,4.0524,4.0524,4.0524,4.0524,4.0524,4.0524,4.0524,4.0524,4.0783,4.2094,4.3823,4.3333,4.3939,4.5086,4.5086,4.514,4.5247,0.0,0.0,0.0,0.0,0.0,0.0,0.0,0.0,0.0,0.0,0.0,0.3208,0.0,0.0,0.0,0.0,0.0,0.0,0.0,0.0,0.0,0.0,0.0,0.0,0.0,0.4629,0.5258,0.0,0.0,0.0,0.0,0.0,0.0,0.6263,0.0,0.6189,0.0,0.0,0.0,0.0,0.0,0.538,0.5225,0.0,0.0,0.0,0.0,0.0,0.0,0.0,0.0,0.0,0.0,0.0,0.0,0.9287,1.0435,1.1791,1.2646,0.0,0.0,0.0,0.0,0.0,0.0,0.0,0.0,0.0,0.0,2.831,2.9478,2.9427,0.0,3.079,3.0693,3.0673,3.1248,3.113,3.0986,3.0986,3.0986,3.0986,3.0986,3.1198,3.1554,3.2123,3.2603,3.32,3.3943,3.4761,3.5246,3.5474,3.6594,3.7286,3.7512,3.8502,3.9235,3.9681,4.0036,4.0316,4.0524,4.0524,4.0524,4.0524,4.0524,4.0524,4.0524,4.0524,4.1459,4.2892,4.2707,4.3453,4.4558,4.4814,4.4978,4.514,0.0,0.0,0.3208,0.3208,0.0,0.0,0.0,0.0,0.0,0.0,0.0,0.3208,0.0,0.0,0.0,0.3485,0.0,0.0,0.0,0.0,0.0,0.0,0.0,0.0,0.0,0.0,0.0,0.0,0.0,0.0,0.0,0.0,0.6246,0.6315,0.0,0.6721,0.0,0.0,0.0,0.0,0.5751,0.5667,0.5703,0.6139,0.0,0.0,0.0,0.0,0.0,0.0,0.0,0.0,0.6753,0.7336,0.806,0.9356,1.0883,1.2493,1.391,0.0,0.0,0.0,0.0,0.0,0.0,0.0,2.6735,2.7299,0.0,2.7716,2.8823,2.9035,2.9454,3.0542,3.0766,3.1005,3.1448,3.12,3.0888,3.0911,3.095,3.0963,3.0986,3.0986,3.1123,3.1482,3.2049,3.2506,3.2969,3.3916,3.4471,3.4471,3.5432,3.6208,3.679,3.7425,3.8311,3.9358,3.95,3.9813,4.0363,4.0424,4.0524,4.0524,4.0524,4.0524,4.0524,4.0524,4.0904,4.1591,4.2141,4.2953,4.3839,4.4463,4.4814,4.4978,0.0,0.0,0.3208,0.3208,0.0,0.0,0.0,0.0,0.3208,0.3208,0.3208,0.3208,0.3208,0.3336,0.0,0.3506,0.3835,0.0,0.0,0.0,0.0,0.0,0.0,0.0,0.0,0.0,0.0,0.0,0.0,0.0,0.0,0.0,0.0,0.6901,0.0,0.6358,0.0,0.0,0.0,0.5086,0.5535,0.5515,0.5293,0.6034,0.6048,0.0,0.0,0.0,0.0,0.0,0.0,0.0,0.7692,0.8599,0.931,0.9264,1.0883,1.2854,0.0,1.5215,0.0,0.0,0.0,0.0,0.0,0.0,2.5604,2.6663,2.6809,2.7079,2.8243,2.8414,2.8615,2.9386,2.9481,2.9521,2.9633,2.9945,3.0152,3.0177,3.0585,3.092,3.1026,3.0986,3.1061,3.1123,3.1241,3.1532,3.1904,3.2603,3.3076,3.339,3.443,3.4974,3.5111,3.5951,3.6519,3.6807,3.7739,3.8439,3.9107,4.0071,4.0524,4.0524,4.0524,4.0524,4.0524,4.0524,4.0904,4.1525,4.1641,4.2458,4.3571,4.3706,4.4202,4.4831,0.0,0.0,0.0,0.0,0.0,0.0,0.0,0.0,0.3208,0.3208,0.3208,0.3229,0.3336,0.3442,0.0,0.0,0.398,0.4035,0.0,0.0,0.0,0.0,0.0,0.0,0.0,0.0,0.0,0.0,0.0,0.0,0.0,0.0,0.0,0.6996,0.0,0.6593,0.0,0.0,0.0,0.5272,0.5578,0.5625,0.5593,0.6097,0.6048,0.5723,0.5925,0.0,0.0,0.0,0.0,0.0,0.0,0.0,0.9127,0.9356,1.0711,1.2378,0.0,0.0,0.0,0.0,0.0,0.0,0.0,0.0,2.5662,2.5822,2.5781,2.6066,2.7228,2.7687,2.8028,2.8597,2.8937,2.9081,2.9081,2.934,2.9492,2.9599,3.0061,3.0265,3.0088,3.0291,3.0341,3.0126,3.0355,3.0583,3.0797,3.1611,3.2171,3.2395,3.3349,3.3963,3.4098,3.4882,3.5536,3.6028,3.6597,3.7347,3.8273,3.9772,4.0524,4.0524,4.0524,4.0524,4.0524,4.0524,4.0715,4.1024,4.1393,4.1965,4.2645,4.3257,4.3764,4.4219,0.0,0.0,0.0,0.0,0.0,0.0,0.0,0.0,0.0,0.3251,0.3251,0.3336,0.352,0.3584,0.3772,0.0,0.0,0.0,0.4207,0.0,0.0,0.0,0.0,0.0,0.0,0.0,0.0,0.0,0.0,0.0,0.0,0.0,0.0,0.7072,0.0,0.0,0.0,0.0,0.5461,0.5547,0.558,0.5708,0.5909,0.6117,0.6022,0.5778,0.5943,0.5998,0.6101,0.6719,0.0,0.0,0.0,0.0,0.8587,0.9437,1.0401,1.1583,0.0,0.0,0.0,0.0,0.0,0.0,0.0,0.0,2.6117,2.5337,2.5107,2.5291,2.606,2.6808,2.738,2.7806,2.8414,2.8779,2.8779,2.8852,2.8955,2.8937,2.9426,2.9585,2.9278,2.9573,2.9635,2.9253,2.9702,3.0037,3.0037,3.0947,3.1482,3.1482,3.2334,3.2962,3.323,3.3886,3.458,3.5339,3.5597,3.6351,3.7594,3.9261,4.0094,4.0355,4.0478,4.0524,4.0524,4.0524,4.0524,4.0524,4.1075,4.1393,4.1641,4.2769,4.3196,4.3393,0.0,0.0,0.0,0.0,0.0,0.0,0.0,0.0,0.0,0.0,0.3464,0.3541,0.3737,0.3973,0.4158,0.4273,0.4374,0.4394,0.0,0.0,0.0,0.0,0.0,0.0,0.0,0.0,0.0,0.0,0.0,0.0,0.0,0.0,0.0,0.0,0.0,0.0,0.0,0.0,0.0,0.4926,0.5116,0.5303,0.5497,0.5708,0.5852,0.5961,0.5979,0.5998,0.6146,0.7162,0.7496,0.0,0.0,0.0,0.0,0.915,0.9907,1.0849,0.0,0.0,0.0,0.0,0.0,0.0,0.0,0.0,2.5899,0.0,2.5911,2.5509,2.5176,2.5931,2.6644,2.6713,2.7174,2.7464,2.7464,2.7846,2.8198,2.8307,2.8769,2.9232,2.9751,2.9438,2.9376,2.9794,2.9927,3.0037,3.0037,3.0672,3.1061,3.1061,3.1575,3.1823,3.1884,3.2258,3.2518,3.265,3.4014,3.547,3.6833,3.7721,3.8659,3.9693,4.0278,4.0524,4.0524,4.0524,4.0524,4.0524,4.0593,4.0956,4.1525,4.1706,4.2141,4.2645,0.0,0.0,0.0,0.0,0.0,0.0,0.0,0.0,0.0,0.0,0.0,0.3647,0.404,0.4191,0.4273,0.4293,0.4394,0.0,0.0,0.0,0.0,0.0,0.0,0.0,0.0,0.0,0.0,0.0,0.0,0.0,0.0,0.7238,0.7864,0.0,0.0,0.0,0.0,0.0,0.0,0.5303,0.5145,0.565,0.6409,0.5783,0.6104,0.6815,0.6095,0.0,0.6158,0.7243,0.76,0.7772,0.8797,0.0,0.0,0.0,0.0,0.0,0.0,0.0,0.0,0.0,0.0,0.0,0.0,0.0,2.6026,2.567,2.5888,2.598,2.5463,2.5486,2.5693,2.5991,2.6232,2.6473,2.676,2.699,2.7313,2.7615,2.8069,2.8421,2.8397,2.8409,2.8502,2.8361,2.8778,2.9106,2.9484,3.0114,3.0583,3.0986,3.1198,3.1347,3.1629,3.1776,3.1909,3.2128,3.3367,3.4459,3.537,3.6588,3.8029,3.9539,3.9831,4.017,4.0524,4.0524,4.0524,4.0524,4.0524,4.0646,4.0956,4.1327,4.1706,4.2013,0.0,0.0,0.0,0.0,0.0,0.0,0.0,0.0,0.0,0.0,0.0,0.3786,0.4313,0.0,0.0,0.0,0.4362,0.0,0.0,0.0,0.0,0.0,0.0,0.0,0.0,0.0,0.0,0.0,0.0,0.0,0.7743,0.7752,0.8721,0.0,0.9417,0.0,0.0,0.0,0.0,0.5903,0.5599,0.6178,0.7124,0.6491,0.6986,0.7835,0.6755,0.0,0.0,0.0,0.0,0.0,0.0,0.0,0.0,0.0,0.0,0.0,0.0,0.0,0.0,0.0,0.0,0.0,0.0,0.0,2.5429,0.0,2.5624,2.5991,2.5761,2.5383,2.5199,2.5463,2.5624,2.5842,2.6221,2.6381,2.66,2.699,2.7483,2.769,2.7449,2.7644,2.769,2.7438,2.794,2.8486,2.9081,2.9639,3.0279,3.0986,3.0986,3.1123,3.1408,3.1408,3.1629,3.1982,3.2676,3.3422,3.4124,3.5496,3.7044,3.8815,3.9302,3.9893,4.0524,4.0524,4.0524,4.0524,4.0524,4.0524,4.0593,4.1091,4.1276,4.1343,0.0,0.0,0.0,0.0,0.0,0.0,0.0,0.0,0.0,0.0,0.0,0.4055,0.4524,0.4414,0.4333,0.4391,0.4333,0.0,0.0,0.0,0.0,0.0,0.0,0.0,0.0,0.0,0.0,0.0,0.0,0.0,0.7784,0.7743,0.9039,1.1388,1.0554,0.9105,0.7251,0.0,0.0,0.0,0.652,0.6682,0.7042,0.8191,0.8804,0.8935,0.0,0.0,0.0,0.0,0.0,0.0,0.0,0.0,0.8233,0.0,0.0,0.0,0.0,0.0,0.0,0.0,0.0,0.0,0.0,0.0,0.0,2.5291,2.5314,2.5142,2.5624,2.5693,2.552,2.5027,2.5383,2.5716,2.575,2.6163,2.6473,2.6496,2.6955,2.7449,2.7897,2.7529,2.7461,2.7908,2.8139,2.8486,2.9081,2.9639,3.0279,3.0986,3.0986,3.0986,3.1061,3.1061,3.1198,3.1629,3.1703,3.2318,3.3575,3.4138,3.5274,3.6914,3.8754,3.9893,4.0524,4.0524,4.0524,4.0524,4.0524,4.0524,4.0524,4.0524,4.0524,4.0593,0.0,0.0,0.0,0.0,0.0,0.0,0.0,0.0,0.0,0.0,0.0,0.0,0.0,0.4163,0.4081,0.4027,0.4158,0.0,0.0,0.0,0.0,0.0,0.0,0.0,0.0,0.0,0.0,0.0,0.0,0.5478,0.6971,0.7236,0.7994,0.9123,0.9389,0.9409,0.9078,0.7479,0.0,0.0,0.7095,0.7679,0.0,0.863,0.9223,0.9925,0.0,0.0,0.0,0.0,0.0,0.0,0.0,0.8383,0.7818,0.7646,0.0,0.0,0.0,0.0,0.0,0.0,0.0,0.0,0.0,2.1399,2.319,2.327,2.4154,2.4877,2.4763,2.5268,2.5647,2.5451,2.5302,2.5325,2.5658,2.5578,2.5601,2.5945,2.6427,2.6806,2.699,2.7139,2.73,2.7483,2.7568,2.7857,2.8474,2.8712,2.9341,3.0355,3.0355,3.0583,3.0986,3.0986,3.1061,3.1198,3.1482,3.2042,3.2791,3.3492,3.4729,3.6402,3.7313,3.8498,3.9908,4.0355,4.0524,4.0524,4.0524,4.0524,4.0524,4.0524,4.0524,4.0524,0.0,0.0,0.0,0.3208,0.0,0.3208,0.3208,0.0,0.0,0.0,0.0,0.0,0.0,0.0,0.3888,0.3813,0.4027,0.0,0.0,0.0,0.0,0.0,0.0,0.0,0.0,0.0,0.0,0.0,0.0,0.0,0.0,0.6657,0.7168,0.7803,0.8124,0.8885,0.0,0.0,0.0,0.8209,0.0,0.0,0.9701,0.0,1.0414,0.0,0.0,0.0,0.0,0.0,0.0,0.0,0.0,0.8277,0.7369,0.7542,0.8187,0.0,1.0057,0.0,0.0,0.0,0.0,0.0,1.7775,0.0,2.1456,2.1629,2.3006,2.412,2.3971,2.4763,2.544,2.544,2.5302,2.5302,2.5658,2.5406,2.5314,2.567,2.6003,2.6209,2.6209,2.668,2.6978,2.6978,2.7128,2.7464,2.8179,2.8179,2.8712,2.996,3.0203,3.0508,3.0986,3.0986,3.0986,3.0986,3.1272,3.169,3.216,3.2804,3.3844,3.5073,3.6067,3.7501,3.9231,3.9908,4.0185,4.0216,4.0432,4.0524,4.0524,4.0524,4.0524,4.0524,0.3208,0.3208,0.3208,0.3208,0.3208,0.3208,0.3208,0.3208,0.0,0.0,0.0,0.0,0.0,0.0,0.0,0.0,0.0,0.0,0.0,0.0,0.0,0.0,0.0,0.0,0.0,0.0,0.0,0.0,0.0,0.0,0.0,0.0,0.6611,0.0,0.6958,0.7519,0.9032,0.0,0.9041,0.9142,0.0,0.9683,0.9949,0.0,0.0,0.0,1.1969,1.1655,0.0,1.0815,0.0,0.0,0.0,0.8075,0.6936,0.7484,0.798,0.0,0.0,0.0,0.0,0.0,0.0,0.0,1.7283,0.0,1.8058,2.06,2.1858,2.2731,2.327,2.4166,2.4832,2.4866,2.5325,2.5681,2.5704,2.5704,2.5693,2.5693,2.5704,2.5704,2.5693,2.6152,2.6439,2.6439,2.6921,2.7441,2.8155,2.8167,2.8724,2.9883,3.0583,3.0986,3.0986,3.0986,3.0986,3.0986,3.0986,3.1198,3.1629,3.2101,3.2577,3.296,3.5088,3.6917,3.8427,3.9164,3.9524,3.9585,4.0262,4.0524,4.0524,4.0524,4.0524,4.0524,0.3208,0.3208,0.3208,0.3208,0.3208,0.3208,0.3208,0.0,0.0,0.0,0.0,0.0,0.0,0.0,0.0,0.0,0.0,0.0,0.0,0.0,0.0,0.0,0.0,0.0,0.0,0.0,0.0,0.0,0.0,0.0,0.0,0.0,0.0,0.0,0.6584,0.7013,0.7693,0.7095,0.0,0.0,0.9032,0.9723,0.0,0.0,0.0,0.0,0.0,1.251,1.2734,0.0,1.2341,1.188,0.0,0.0,0.0,0.8544,0.9012,0.0,0.9724,0.0,0.0,0.0,0.0,0.0,0.0,0.0,1.714,1.8208,1.9229,2.032,2.156,2.2317,2.2995,2.3729,2.4281,2.4877,2.5612,2.5383,2.513,2.513,2.5474,2.5566,2.5176,2.5612,2.5922,2.5922,2.6393,2.6748,2.6988,2.7726,2.8327,2.8724,2.9729,3.0279,3.0279,3.0748,3.0986,3.0986,3.0986,3.1061,3.1198,3.1616,3.2101,3.2577,3.3452,3.4456,3.5644,3.84,3.9524,3.9585,4.0262,4.0524,4.0524,4.0524,4.0524,4.0524,0.3236,0.3236,0.3229,0.3208,0.3321,0.3395,0.3372,0.0,0.0,0.0,0.0,0.0,0.0,0.0,0.0,0.0,0.0,0.0,0.0,0.0,0.0,0.0,0.0,0.0,0.0,0.0,0.0,0.0,0.0,0.0,0.0,0.0,0.0,0.0,0.5729,0.6073,0.6401,0.5757,0.0,0.0,0.9342,0.0,0.0,1.1792,1.231,0.0,0.0,0.0,1.3308,1.3308,1.29,0.0,0.0,1.0131,0.9269,0.9357,0.9884,0.0,0.0,0.0,0.0,0.0,0.0,0.0,1.4316,1.5142,1.5957,0.0,1.7875,1.885,1.9734,2.0504,2.1261,2.2053,2.2604,2.35,2.5153,2.5107,2.4912,2.4912,2.5015,2.4958,2.4648,2.5073,2.5383,2.5383,2.5853,2.6244,2.6462,2.7375,2.7953,2.8167,2.9094,2.9729,3.0037,3.0355,3.0748,3.0986,3.0986,3.0986,3.0986,3.1272,3.1556,3.1809,3.2448,3.3003,3.3716,3.6404,3.8016,3.8803,3.9695,4.0278,4.0524,4.0524,4.0524,4.0524,0.0,0.33,0.3291,0.3272,0.3497,0.3687,0.0,0.0,0.0,0.0,0.0,0.0,0.0,0.0,0.0,0.0,0.0,0.0,0.0,0.0,0.0,0.0,0.0,0.0,0.0,0.0,0.0,0.0,0.0,0.0,0.0,0.0,0.0,0.0,0.4793,0.5004,0.5324,0.5129,0.0,0.8448,0.9826,1.0705,0.0,0.0,1.2786,1.3112,1.3453,1.3503,1.3369,1.3424,1.2805,0.0,0.0,1.1255,1.0794,1.0289,1.0826,0.0,0.0,1.1905,0.0,0.0,1.3397,0.0,1.5096,1.4959,1.4752,0.0,1.6962,1.7638,1.7809,1.869,1.9505,1.9998,2.0641,2.1939,2.4407,2.4751,2.4751,2.4751,2.443,2.4177,2.412,2.4556,2.4832,2.4832,2.5325,2.5842,2.6347,2.698,2.753,2.7992,2.8676,2.9328,2.9871,2.996,3.0355,3.0986,3.0986,3.0986,3.0986,3.0986,3.0986,3.1061,3.1882,3.2304,3.2403,3.3818,3.5627,3.7617,3.8864,3.9741,4.0363,4.0424,4.0455,4.0455,0.3302,0.3294,0.3368,0.3563,0.365,0.3756,0.0,0.0,0.0,0.0,0.0,0.0,0.0,0.0,0.0,0.0,0.0,0.0,0.0,0.0,0.0,0.0,0.0,0.0,0.0,0.0,0.0,0.0,0.0,0.0,0.0,0.0,0.0,0.0,0.4793,0.4849,0.4984,0.6151,0.0,0.7206,0.793,0.0,1.167,1.1692,1.2378,1.3327,1.3292,1.3526,1.3911,1.4091,1.3815,1.3368,0.0,0.0,1.2782,1.2408,1.2686,1.3064,1.2674,1.3237,1.3902,1.3776,0.0,0.0,1.373,1.3948,1.435,0.0,1.4339,1.4867,1.6118,1.683,1.7392,1.7886,1.9424,2.1296,2.3431,2.3658,2.3658,2.3658,2.4005,2.4039,2.3638,2.4039,2.4338,2.4338,2.4786,2.5302,2.583,2.6401,2.6746,2.6839,2.7873,2.8633,2.9238,2.9716,3.0355,3.0986,3.0986,3.0986,3.0986,3.0986,3.0986,3.0986,3.1185,3.1482,3.1836,3.2557,3.4157,3.6363,3.7674,3.8662,3.936,4.0063,4.0331,4.0331,0.3309,0.3309,0.3375,0.3602,0.3793,0.0,0.0,0.0,0.0,0.0,0.0,0.0,0.0,0.0,0.0,0.0,0.0,0.0,0.0,0.0,0.0,0.0,0.0,0.0,0.0,0.0,0.0,0.0,0.0,0.0,0.0,0.0,0.0,0.0,0.5024,0.5161,0.5344,0.0,0.6686,0.7098,0.8422,0.0,1.155,1.1799,1.2636,1.3608,1.3549,1.3731,1.4007,1.4002,1.371,0.0,0.0,1.3767,1.3408,0.0,1.3683,1.3848,1.367,1.4006,1.4454,1.4683,0.0,0.0,0.0,1.4396,1.4454,1.4695,1.435,1.4304,1.5326,1.5705,1.6038,1.6554,1.8127,1.9572,2.0591,2.2099,2.3064,2.3064,2.3282,2.3339,2.3087,2.3523,2.3925,2.4177,2.4418,2.4774,2.5279,2.5555,2.5922,2.645,2.7023,2.7894,2.9081,2.9406,3.0037,3.0986,3.0986,3.0986,3.0986,3.0986,3.0986,3.0986,3.0986,3.1136,3.1347,3.1616,3.2626,3.4185,3.6131,3.757,3.8547,3.9343,3.9832,4.0137,0.3294,0.3309,0.3368,0.3578,0.0,0.0,0.0,0.0,0.0,0.0,0.0,0.0,0.0,0.0,0.0,0.0,0.0,0.0,0.0,0.0,0.0,0.0,0.0,0.3759,0.0,0.0,0.0,0.0,0.0,0.0,0.0,0.0,0.0,0.0,0.0,0.0,0.0,0.0,0.0,0.7512,0.0,1.0389,1.1023,1.1802,1.2592,1.3382,1.3528,1.37,1.3888,1.3656,1.3372,1.3158,1.372,1.3777,0.0,0.0,0.0,0.0,0.0,0.0,0.0,0.0,0.0,1.5452,0.0,0.0,0.0,1.5349,1.4809,0.0,0.0,0.0,0.0,1.5395,0.0,0.0,0.0,2.0047,0.0,2.1789,2.2065,2.2237,2.2237,2.2708,2.3259,2.3856,2.3821,2.4016,2.4602,2.4809,2.5348,2.629,2.6416,2.7238,2.8924,2.8937,2.9484,3.0672,3.0748,3.0823,3.0823,3.0911,3.0986,3.0986,3.0986,3.0986,3.0986,3.0986,3.1334,3.2141,3.4454,3.6277,3.7674,3.8472,3.9249,3.9996,0.3302,0.3309,0.3381,0.3632,0.0,0.0,0.0,0.0,0.0,0.0,0.0,0.0,0.0,0.0,0.0,0.0,0.0,0.0,0.4322,0.0,0.0,0.0,0.3726,0.3619,0.3961,0.0,0.0,0.0,0.0,0.0,0.0,0.0,0.4372,0.4634,0.4846,0.0,0.0,0.0,0.6848,0.0,0.8602,0.9322,0.0,1.0705,1.1265,1.1784,1.241,1.3009,1.3511,0.0,1.3407,1.3423,0.0,1.4282,1.4621,1.4716,0.0,0.0,0.0,0.0,0.0,0.0,1.7507,0.0,0.0,0.0,1.5372,1.4109,0.0,0.0,0.0,0.0,0.0,0.0,0.0,0.0,1.6153,1.7415,1.841,1.8609,1.9849,2.0664,2.0664,2.1123,2.1812,2.2777,2.2444,2.2604,2.3486,2.4441,2.5187,2.5784,2.6232,2.7102,2.8327,2.8327,2.8633,2.9316,2.9883,3.0114,3.0114,3.0748,3.0986,3.0986,3.0986,3.0986,3.0986,3.0986,3.1061,3.125,3.2839,3.4649,3.6574,3.7445,3.8597,3.9768,0.3245,0.3272,0.3365,0.3608,0.0,0.0,0.0,0.0,0.0,0.0,0.0,0.0,0.0,0.0,0.0,0.0,0.0,0.4444,0.0,0.0,0.0,0.4644,0.4212,0.4015,0.4107,0.0,0.0,0.0,0.3584,0.0,0.0,0.0,0.4222,0.467,0.5224,0.0,0.6671,0.0,0.6965,0.0,0.0,0.0,0.0,1.0292,1.1135,1.1571,1.2279,1.2696,1.2984,0.0,1.3287,0.0,0.0,0.0,0.0,0.0,0.0,0.0,0.0,0.0,0.0,0.0,0.0,0.0,1.5645,0.0,1.5349,0.0,0.0,0.0,0.0,0.0,0.0,0.0,1.4385,0.0,0.0,0.0,1.6961,1.8289,0.0,0.0,2.0228,2.0292,2.0722,2.172,2.1606,2.1927,2.2949,2.3672,2.443,2.5222,2.5761,2.6581,2.7715,2.8024,2.8474,2.9081,2.9328,2.9484,2.9484,3.0114,3.0432,3.0432,3.0823,3.0986,3.0986,3.0986,3.0986,3.1088,3.1686,3.2921,3.4545,3.5693,3.6763,3.7739,0.3299,0.0,0.0,0.0,0.0,0.0,0.4539,0.528,0.5818,0.0,0.0,0.0,0.6197,0.5824,0.0,0.0,0.4742,0.4657,0.0,0.0,0.4588,0.4846,0.4673,0.4479,0.0,0.0,0.0,0.0,0.0,0.0,0.0,0.0,0.4036,0.4635,0.0,0.6131,0.6777,0.0,0.0,0.7473,0.7774,0.7975,0.8292,0.9952,1.0809,1.1274,1.1772,1.2267,1.2787,1.3411,1.3434,0.0,1.4568,0.0,0.0,0.0,0.0,0.0,1.5556,0.0,0.0,0.0,0.0,0.0,0.0,0.0,0.0,0.0,0.0,0.0,0.0,0.0,0.0,0.0,0.0,1.4201,0.0,1.435,0.0,0.0,0.0,0.0,0.0,1.9315,1.9495,2.063,2.0473,2.0894,2.2191,2.288,2.3695,2.4682,2.536,2.619,2.716,2.7679,2.8167,2.8542,2.8779,2.8858,2.8858,2.9484,2.9871,3.0037,3.0508,3.0823,3.0986,3.0986,3.0986,3.0986,3.0986,3.1598,3.2712,3.4209,3.5325,3.6245,0.3536,0.3378,0.0,0.0,0.0,0.0,0.5055,0.5207,0.5284,0.0,0.0,0.0,0.0,0.0,0.0,0.0,0.0,0.4581,0.4777,0.0,0.4514,0.4703,0.4865,0.4859,0.0,0.4445,0.4249,0.3978,0.3667,0.0,0.0,0.0,0.0,0.0,0.0,0.594,0.6969,0.6855,0.772,0.9077,0.8224,0.8534,0.9466,0.0,0.9913,1.0548,1.0548,0.0,0.0,1.3291,1.3978,0.0,0.0,0.0,0.0,0.0,0.0,0.0,0.0,0.0,0.0,1.6396,0.0,0.0,0.0,0.0,1.6302,0.0,0.0,0.0,0.0,0.0,0.0,0.0,0.0,0.0,0.0,0.0,0.0,0.0,0.0,0.0,0.0,1.7721,1.7875,1.9344,1.8672,1.9103,2.1164,2.2157,2.3167,2.4189,2.5187,2.5957,2.6541,2.6978,2.7231,2.7313,2.7938,2.8247,2.8259,2.8858,2.9484,3.0037,3.0037,3.0432,3.0986,3.0986,3.0986,3.0986,3.0986,3.0999,3.1294,3.3203,3.4858,3.6183,0.0,0.0,0.0,0.0,0.0,0.0,0.5055,0.5448,0.0,0.0,0.0,0.0,0.0,0.5392,0.521,0.0,0.0,0.4872,0.5154,0.4923,0.0,0.0,0.0,0.5337,0.0,0.5216,0.5055,0.4474,0.4262,0.0,0.0,0.0,0.0,0.0,0.0,0.5819,0.0,0.0,0.0,0.0,0.0,0.8687,0.9524,0.0,0.9631,0.9926,1.0358,1.0992,0.0,1.3384,1.3931,1.4197,1.5677,1.5835,1.5589,1.5771,1.6198,1.6702,0.0,0.0,1.8183,1.6794,0.0,0.0,0.0,0.0,0.0,0.0,0.0,0.0,0.0,0.0,0.0,0.0,0.0,0.0,0.0,0.0,0.0,0.0,0.0,0.0,0.0,0.0,1.7013,1.7737,1.7699,1.8517,2.0561,2.1629,2.265,2.3661,2.4671,2.544,2.5968,2.6473,2.6898,2.7231,2.7464,2.7545,2.7545,2.8247,2.8633,2.887,2.9651,3.0114,3.0355,3.0823,3.0986,3.0986,3.0986,3.0986,3.1192,3.2552,3.3407,3.4028,0.3623,0.0,0.0,0.0,0.0,0.0,0.0,0.0,0.0,0.0,0.5921,0.0,0.5207,0.0,0.5192,0.0,0.4774,0.4867,0.5126,0.5035,0.0,0.5259,0.5585,0.0,0.0,0.0,0.5383,0.4622,0.4648,0.4581,0.0,0.0,0.0,0.0,0.0,0.0,0.6385,0.0,0.7607,0.0,0.0,0.9022,0.0,0.0,0.9484,0.9566,0.0,1.0725,1.1519,1.3167,1.3825,1.4274,1.5896,1.6221,1.599,1.6335,1.6736,1.7051,1.7046,1.7548,0.0,1.6768,1.6537,0.0,1.5362,0.0,1.6044,0.0,0.0,0.0,0.0,0.0,0.0,0.0,0.0,0.0,0.0,1.3574,0.0,0.0,0.0,0.0,0.0,0.0,1.6137,1.6716,1.6895,1.7751,0.0,2.0905,2.203,2.2811,2.4212,2.5164,2.5704,2.6209,2.6726,2.7231,2.7056,2.6962,2.6962,2.7441,2.7753,2.7995,2.9172,2.9793,3.0037,3.0748,3.0986,3.0986,3.0986,3.0986,3.1117,3.2267,3.2947,3.3485,0.0,0.0,0.0,0.0,0.4664,0.0,0.0,0.0,0.5544,0.0,0.4894,0.4816,0.4604,0.4635,0.4687,0.4752,0.4708,0.458,0.4636,0.4911,0.0,0.0,0.5408,0.5523,0.4927,0.0,0.0,0.0,0.0,0.0,0.0,0.0,0.0,0.0,0.5301,0.0,0.6082,0.7127,0.7997,0.8729,0.9268,0.9484,0.9484,0.9484,0.9502,0.9568,0.9965,1.0855,1.1977,1.2709,1.3754,1.4948,1.6261,1.6698,1.6734,1.7115,1.7796,1.8118,1.6793,1.7406,1.8015,1.6364,1.6367,0.0,0.0,0.0,1.6573,0.0,0.0,0.0,0.0,0.0,0.0,0.0,0.0,0.0,0.0,0.0,0.0,0.0,0.0,0.0,0.0,0.0,1.538,1.6264,1.6303,1.6828,0.0,2.001,2.1342,2.1904,2.3821,2.5107,2.567,2.6175,2.668,2.7115,2.6693,2.6445,2.6445,2.6445,2.6846,2.7476,2.8518,2.9316,2.9871,3.0583,3.0911,3.0911,3.0986,3.1026,3.1209,3.2293,3.3417,3.4397,0.3588,0.3944,0.4267,0.0,0.479,0.5089,0.0,0.0,0.0,0.0,0.4982,0.4646,0.4623,0.471,0.4725,0.4625,0.4731,0.0,0.0,0.0,0.0,0.484,0.5489,0.56,0.512,0.5571,0.0,0.4798,0.0,0.0,0.4677,0.0,0.0,0.0,0.0,0.0,0.6349,0.7018,0.7828,0.8729,0.9268,0.9484,0.9484,0.0,0.9724,1.014,1.023,1.0728,1.1465,1.2795,1.3552,1.4314,1.6098,1.6698,1.683,1.7561,1.7966,1.8035,1.7874,1.7941,1.7707,1.6857,1.6296,1.5835,0.0,0.0,0.0,0.0,0.0,0.0,0.0,0.0,0.0,0.0,0.0,0.0,0.0,0.0,0.0,1.5183,0.0,0.0,0.0,1.4966,1.5315,1.5489,1.5821,1.6604,1.8004,1.9367,2.0641,2.1893,2.3155,2.4235,2.5107,2.5304,2.5667,2.6186,2.6052,2.6052,2.6052,2.6052,2.6135,2.6373,2.7069,2.7464,2.7695,2.9069,2.9561,2.9639,3.0457,3.1356,3.2293,3.2581,3.3417,3.4397,0.3667,0.0,0.0,0.4675,0.0,0.0,0.5132,0.5079,0.0,0.4927,0.4716,0.0,0.4489,0.4662,0.4729,0.4657,0.4729,0.0,0.47,0.0,0.0,0.489,0.53,0.5407,0.517,0.5493,0.0,0.473,0.0,0.0,0.4342,0.0,0.0,0.0,0.0,0.5766,0.0,0.7424,0.8135,0.867,0.9199,0.935,0.0,0.9538,0.9941,1.0408,1.0754,1.1139,1.1605,1.2504,1.3003,1.3502,1.5065,1.5786,1.6288,1.7204,1.77,1.8031,1.8201,1.7925,1.757,1.7037,1.6427,1.5859,1.5487,1.5687,1.5895,0.0,1.6086,1.6487,0.0,0.0,0.0,0.0,0.0,0.0,0.0,0.0,0.0,0.0,1.4967,0.0,1.3826,1.4274,1.459,1.4494,1.5072,1.5834,0.0,1.8453,1.9916,2.0971,2.24,2.3553,2.4385,2.4803,2.5149,2.551,2.5572,2.5633,2.5633,2.5633,2.5633,2.5633,2.6412,2.6812,2.6894,2.8016,2.8755,2.9172,3.0203,3.1125,3.2008,3.2447,3.3336,3.4397,0.0,0.0,0.0,0.0,0.0,0.0,0.0,0.5016,0.0,0.4365,0.0,0.4507,0.4393,0.4564,0.4756,0.4773,0.0,0.4682,0.4606,0.4821,0.4974,0.4915,0.5074,0.5108,0.5068,0.5318,0.514,0.0,0.0,0.4509,0.3854,0.0,0.0,0.0,0.0,0.0,0.0,0.7833,0.8398,0.8425,0.8948,0.9121,0.9165,0.9542,1.0064,1.0683,1.1359,1.1784,1.2011,1.2276,1.2518,1.2869,1.3711,1.4552,1.5387,1.637,1.7196,1.7861,1.7891,1.768,1.7304,1.6935,1.655,1.6145,1.5743,1.564,1.5696,1.5882,1.5694,1.5908,1.7216,0.0,0.0,0.0,0.0,0.0,0.0,0.0,0.0,0.0,0.0,0.0,1.38,1.3728,1.3708,1.3587,1.4252,1.4783,0.0,0.0,1.9063,1.9749,2.1632,2.2917,2.359,2.4371,2.4812,2.5006,2.5059,2.5062,2.5115,2.5115,2.5115,2.52,2.6091,2.6483,2.6565,2.7279,2.8096,2.9003,2.9716,3.0382,3.0984,3.1873,3.2998,3.4134,0.0,0.0,0.0,0.0,0.0,0.4709,0.446,0.4568,0.4635,0.4636,0.466,0.4779,0.4882,0.4838,0.4844,0.4944,0.4953,0.0,0.0,0.0,0.0,0.4924,0.5155,0.5189,0.4954,0.4903,0.4643,0.0,0.4153,0.3927,0.3641,0.0,0.0,0.0,0.0,0.0,0.6489,0.6852,0.0,0.7922,0.8122,0.8793,0.9582,0.9672,1.0245,1.1095,1.1473,1.1897,1.2282,1.2548,1.2662,1.2869,1.3711,1.4126,1.4545,1.6198,1.678,1.705,1.7488,1.7295,1.6918,1.6533,1.6165,1.584,1.5782,1.5731,1.58,1.5991,1.5894,1.5819,1.6132,0.0,0.0,0.0,0.0,0.0,0.0,0.0,0.0,0.0,0.0,1.5231,0.0,1.3816,1.3792,1.3371,1.3633,0.0,0.0,0.0,1.7545,1.9434,2.0632,2.1699,2.2582,2.3102,2.3624,2.4036,2.4094,2.4262,2.4615,2.4615,2.4615,2.4615,2.4775,2.4861,2.4946,2.583,2.6801,2.7799,2.7947,2.8656,2.9726,3.0762,3.1717,3.2834,0.0,0.0,0.0,0.0,0.0,0.0,0.0,0.472,0.4693,0.4627,0.4773,0.4839,0.4822,0.4887,0.4953,0.5012,0.5069,0.508,0.5021,0.5174,0.5271,0.5144,0.5303,0.5287,0.5083,0.4944,0.4687,0.4307,0.4,0.3712,0.3512,0.3536,0.0,0.3595,0.0,0.5426,0.0,0.0,0.0,0.7114,0.7863,0.8516,0.8983,0.9835,1.0551,1.1151,1.1498,1.1836,1.221,1.2577,1.2705,1.279,1.3209,1.3626,1.4183,1.4928,1.5701,1.6437,1.6554,1.6581,1.6567,1.6388,1.6071,1.5805,1.5805,1.5805,1.5797,1.5938,1.6022,1.6183,1.626,1.6296,0.0,0.0,0.0,0.0,0.0,0.0,0.0,0.0,0.0,0.0,0.0,0.0,0.0,0.0,0.0,0.0,0.0,0.0,1.6798,1.8642,1.9943,2.0962,2.1679,2.2637,2.3192,2.3507,2.3743,2.4115,2.454,2.454,2.454,2.454,2.454,2.454,2.454,2.5421,2.583,2.6008,2.6905,2.7748,2.8632,3.0085,3.1283,3.2488,0.0,0.4493,0.0,0.0,0.459,0.0,0.4919,0.4974,0.4953,0.4629,0.484,0.4927,0.4878,0.4953,0.5064,0.5091,0.5173,0.5186,0.5097,0.5314,0.5377,0.5249,0.5401,0.5366,0.5201,0.5044,0.4794,0.0,0.4031,0.3693,0.0,0.3423,0.3505,0.3643,0.0,0.0,0.0,0.0,0.6041,0.6339,0.7433,0.8078,0.8562,0.9739,1.0541,1.1083,1.1422,1.1629,1.1878,1.2289,1.2493,1.2529,1.2469,1.295,1.3572,1.3594,1.4488,1.5528,1.5557,1.5798,1.6091,1.6251,1.6019,1.5805,1.5805,1.5805,1.5822,1.5899,1.6208,1.6538,1.6675,1.6694,0.0,0.0,0.0,0.0,0.0,0.0,0.0,0.0,0.0,0.0,1.3613,0.0,0.0,0.0,0.0,0.0,1.3928,1.474,1.5956,1.7719,1.92,2.0197,2.0751,2.2166,2.294,2.3194,2.3557,2.4012,2.454,2.454,2.454,2.454,2.454,2.454,2.454,2.5263,2.5094,2.4625,2.6008,2.6779,2.7392,2.911,3.0431,3.1532,0.0,0.0,0.0,0.0,0.0,0.464,0.4408,0.4852,0.517,0.4988,0.5064,0.5181,0.529,0.5222,0.5216,0.5328,0.5344,0.5349,0.5336,0.5243,0.5135,0.5021,0.5246,0.5254,0.511,0.5021,0.4889,0.0,0.0,0.3794,0.3419,0.3527,0.3803,0.4226,0.3996,0.0,0.0,0.4744,0.52,0.6026,0.6075,0.7318,0.911,0.9086,0.9847,1.1017,1.1013,1.1115,1.1115,1.1352,1.1747,1.1981,1.1746,1.1912,1.2228,1.3074,1.3464,1.3789,1.4909,1.5247,1.5373,1.5791,1.5831,1.5805,1.5805,1.5805,1.5891,1.6216,1.6593,1.6784,1.6729,1.726,1.756,0.0,0.0,0.0,0.0,0.0,0.0,0.0,0.0,0.0,0.0,1.3083,0.0,0.0,1.2114,1.2551,1.4106,1.3683,1.4482,1.6782,1.7978,1.895,1.9617,2.1147,2.2392,2.3184,2.3225,2.3701,2.454,2.454,2.454,2.454,2.454,2.454,2.454,2.4625,2.4529,2.454,2.47,2.5013,2.5591,2.702,2.7944,2.8746,0.0,0.0,0.0,0.0,0.0,0.0,0.0,0.4947,0.5091,0.5031,0.5061,0.5102,0.5151,0.5113,0.5105,0.5154,0.5219,0.526,0.526,0.5281,0.5276,0.523,0.5306,0.5328,0.5202,0.5104,0.4933,0.0,0.0,0.0,0.3627,0.355,0.3722,0.4053,0.4092,0.4332,0.4789,0.4702,0.4887,0.5365,0.6036,0.6809,0.7624,0.8804,0.9538,1.0085,1.0584,1.08,1.0778,1.0715,1.1066,1.1578,1.1635,1.1686,1.181,1.212,1.2538,1.3006,1.3369,1.4167,1.4864,1.5015,1.5426,1.5805,1.5805,1.5805,1.5908,1.6259,1.6816,1.7304,1.7438,1.7455,1.7478,1.7272,0.0,0.0,0.0,0.0,0.0,0.0,0.0,0.0,0.0,0.0,0.0,0.0,0.0,1.2591,1.3949,1.3887,1.4569,1.6252,1.7905,1.8955,1.9274,2.0969,2.2273,2.3184,2.3184,2.366,2.454,2.454,2.454,2.454,2.454,2.454,2.454,2.454,2.454,2.454,2.454,2.483,2.5373,2.6855,2.7588,2.8239,0.4336,0.0,0.4618,0.0,0.5018,0.5018,0.5018,0.5018,0.5021,0.5029,0.4553,0.4467,0.4937,0.5018,0.5018,0.5018,0.5091,0.5137,0.5137,0.5216,0.5265,0.5265,0.5298,0.0,0.5186,0.5154,0.5029,0.4722,0.458,0.0,0.3999,0.3893,0.3986,0.4206,0.4355,0.4507,0.468,0.4746,0.4855,0.4904,0.5811,0.6347,0.6709,0.8248,0.9052,0.9375,1.0126,1.0423,1.0401,1.0239,1.0528,1.0897,1.1134,1.1292,1.1335,1.1307,1.1707,1.2257,1.2284,1.3091,1.4027,1.4458,1.5054,1.5505,1.5726,1.5882,1.6096,1.6567,1.7184,1.7723,1.7989,1.7751,1.7308,1.6741,0.0,0.0,0.0,1.4781,0.0,0.0,1.4063,1.3542,1.3134,1.315,0.0,0.0,0.0,1.322,1.4369,1.4388,1.4953,1.639,1.8135,1.9204,1.9406,2.0959,2.2273,2.3184,2.3184,2.366,2.454,2.454,2.454,2.454,2.454,2.454,2.454,2.454,2.454,2.454,2.454,2.4736,2.5186,2.6459,2.7144,2.7601,0.4279,0.4683,0.501,0.5015,0.5018,0.5018,0.5018,0.5018,0.5021,0.5029,0.3532,0.3137,0.4781,0.5018,0.5018,0.5018,0.5018,0.5018,0.5018,0.5021,0.5021,0.0,0.0,0.5186,0.5186,0.5075,0.4955,0.483,0.0,0.0,0.448,0.4606,0.4737,0.4859,0.4718,0.472,0.4731,0.4781,0.4904,0.5026,0.514,0.5825,0.6829,0.74,0.8211,0.9139,0.9703,0.9927,0.9927,0.9927,0.9927,0.9927,1.0154,1.0524,1.0824,1.0818,1.0968,1.1267,1.2077,1.2298,1.2659,1.4243,1.4601,1.4832,1.5647,1.6079,1.6633,1.7304,1.7766,1.8031,1.804,1.8023,1.7406,1.567,0.0,0.0,0.0,1.3893,0.0,1.4987,1.4105,1.3401,1.3406,1.3267,0.0,0.0,0.0,1.46,1.5596,1.5057,1.551,1.7296,1.8478,1.9427,2.0081,2.1261,2.2273,2.3184,2.3184,2.366,2.454,2.454,2.454,2.454,2.454,2.454,2.454,2.454,2.454,2.454,2.454,2.4464,2.4654,2.5554,2.5875,2.6191,0.1801,0.1458,0.1568,0.1568,0.1568,0.1568,0.1568,0.3536,0.4967,0.4969,0.2277,0.1019,0.2743,0.4153,0.5018,0.0,0.5018,0.5018,0.0,0.5018,0.5018,0.5018,0.5053,0.5108,0.5184,0.5151,0.5075,0.4958,0.0,0.0,0.4483,0.4522,0.4607,0.4734,0.4828,0.4901,0.4915,0.5116,0.5173,0.5135,0.5173,0.5322,0.5674,0.6407,0.7239,0.8082,0.8799,0.9463,0.9922,0.9922,0.9922,0.9949,1.0198,1.0286,1.0443,1.0588,1.0738,1.0962,1.1186,1.1781,1.2519,1.36,1.425,1.4824,1.5647,1.6285,1.6807,1.7047,1.7595,1.804,1.804,1.804,1.7509,1.5953,1.5781,0.0,1.3976,0.0,1.2922,1.3241,1.2955,1.2698,1.2739,1.2986,0.0,0.0,0.0,1.423,1.5163,1.5764,1.6314,1.6874,1.8624,1.9682,1.9896,2.1188,2.2273,2.3184,2.3184,2.366,2.454,2.454,2.454,2.454,2.454,2.454,2.454,2.454,2.454,2.454,2.454,2.454,2.4654,2.5544,2.5875,2.61,0.0392,-0.0,-0.0079,-0.0493,-0.0482,-0.0471,-0.0471,0.1257,0.2596,0.2596,0.0567,-0.0247,0.1625,0.3197,0.0,0.4716,0.4779,0.4779,0.4779,0.4779,0.4779,0.4779,0.4779,0.4813,0.488,0.488,0.0,0.4859,0.4905,0.4912,0.4806,0.4806,0.4847,0.5002,0.5034,0.508,0.5089,0.5192,0.5192,0.5124,0.5124,0.508,0.5093,0.5857,0.6546,0.7161,0.8318,0.9057,0.9668,0.998,1.0175,1.0347,1.0503,1.0589,1.0655,1.0623,1.0798,1.0935,1.0842,1.1268,1.199,1.276,1.3528,1.4425,1.5753,1.637,1.6747,1.6893,1.7406,1.7826,1.7826,1.7946,1.7543,1.6045,1.5805,1.5215,1.3545,0.0,1.2616,0.0,0.0,0.0,0.0,1.3395,1.4098,0.0,0.0,0.0,0.0,1.6242,1.6979,1.7523,1.9168,2.0172,2.0524,2.1148,2.1951,2.2768,2.3113,2.3571,2.411,2.4368,2.454,2.454,2.454,2.454,2.454,2.454,2.454,2.454,2.454,2.454,2.4654,2.5544,2.5875,2.6009,-0.0079,-0.0079,-0.0411,-0.125,-0.1352,-0.1277,-0.1281,-0.1282,-0.1282,-0.1282,-0.146,-0.0712,0.1472,0.2206,0.3035,0.4223,0.0,0.0,0.4406,0.4406,0.4401,0.4394,0.4394,0.4394,0.4394,0.4394,0.447,0.4698,0.4962,0.5233,0.5344,0.5344,0.5344,0.5339,0.5224,0.5175,0.5167,0.5069,0.5029,0.5029,0.5048,0.5053,0.5132,0.5914,0.6227,0.6457,0.8086,0.8911,0.931,1.0121,1.0654,1.1009,1.1031,1.1192,1.1284,1.098,1.1087,1.1192,1.0948,1.0964,1.1134,1.1834,1.2627,1.3777,1.578,1.6255,1.6374,1.6807,1.7175,1.7432,1.7432,1.7723,1.7475,1.6002,1.5762,1.512,1.3271,1.3014,1.305,0.0,0.0,1.3677,1.3157,1.4314,1.4823,0.0,0.0,0.0,0.0,1.6437,1.7349,1.8765,1.9788,2.075,2.1645,2.1098,2.1224,2.202,2.2992,2.3406,2.3503,2.411,2.4454,2.454,2.454,2.454,2.454,2.454,2.454,2.454,2.454,2.454,2.4654,2.5544,2.5875,2.6009,0.0,0.0,-0.1252,-0.1471,-0.1512,-0.1478,-0.1525,-0.1532,-0.1532,-0.1532,-0.1502,-0.1015,0.0458,0.1264,0.2043,0.3047,0.4173,0.4716,0.4637,0.4627,0.4592,0.4508,0.4503,0.4503,0.4503,0.4503,0.4465,0.4462,0.4565,0.4592,0.4617,0.4617,0.4698,0.4857,0.4831,0.4896,0.5061,0.5121,0.5146,0.5162,0.5349,0.5423,0.5434,0.5698,0.6245,0.6922,0.8118,0.8998,0.9804,1.0757,1.1176,1.1295,1.1472,1.1569,1.1558,1.1268,1.1352,1.146,1.1293,1.1308,1.1566,1.2164,1.2772,1.3457,1.4543,1.5016,1.5462,1.6317,1.679,1.7047,1.7047,1.7124,1.6781,1.5548,1.5352,1.4889,1.3571,1.3382,1.3408,0.0,1.3761,1.3969,1.3821,1.4395,1.476,0.0,0.0,1.515,1.5404,1.6158,1.7139,1.8161,1.9072,1.9782,2.0362,2.0216,2.0579,2.1441,2.2275,2.295,2.3503,2.3677,2.4024,2.454,2.454,2.454,2.454,2.454,2.454,2.454,2.454,2.454,2.4654,2.5544,2.5875,2.6009,-0.1335,-0.1451,-0.1617,-0.1617,-0.159,-0.1573,-0.1588,-0.1605,-0.1617,-0.1617,-0.1578,-0.0968,0.0677,0.0955,0.1703,0.3503,0.4211,0.4614,0.4506,0.4499,0.4475,0.442,0.4418,0.4418,0.4418,0.4418,0.4477,0.4506,0.4592,0.4592,0.4592,0.4592,0.4675,0.476,0.476,0.4843,0.4931,0.5155,0.5265,0.5276,0.5494,0.5632,0.5643,0.5708,0.5997,0.6523,0.7489,0.8504,0.9549,1.0436,1.1201,1.186,1.1989,1.2102,1.2161,1.2032,1.1928,1.1794,1.1548,1.1563,1.173,1.2337,1.266,1.2979,1.3644,1.405,1.4529,1.5049,1.5799,1.6363,1.6363,1.6648,1.6542,1.5403,1.5215,1.4761,1.3451,1.3562,1.3708,1.3528,1.4161,1.4547,1.4384,1.4872,1.5102,1.4967,1.5107,1.537,1.5738,1.6403,1.7098,1.7907,1.8751,1.942,1.9894,1.9972,2.0063,2.0268,2.1406,2.2148,2.252,2.2862,2.3396,2.4024,2.4024,2.4196,2.454,2.454,2.454,2.454,2.454,2.454,2.4654,2.5544,2.5875,2.6009,-0.1308,-0.1476,-0.1617,-0.1617,-0.1617,-0.1605,-0.1571,-0.1595,-0.1617,-0.1617,-0.1617,-0.0806,0.1204,0.1106,0.1811,0.4312,0.4454,0.4369,0.4342,0.434,0.4334,0.432,0.432,0.432,0.432,0.4306,0.4389,0.4569,0.475,0.4842,0.4842,0.4842,0.4842,0.4842,0.4842,0.4842,0.4931,0.5121,0.5305,0.531,0.5528,0.5724,0.5724,0.5743,0.5748,0.5929,0.6824,0.78,0.8922,0.9926,1.1184,1.2273,1.2373,1.2603,1.2764,1.2764,1.2474,1.2102,1.1871,1.1779,1.1822,1.2295,1.2328,1.2462,1.299,1.329,1.3506,1.3755,1.4676,1.5528,1.561,1.6162,1.6314,1.524,1.5112,1.4709,1.3262,0.0,1.4119,1.3733,1.4641,1.5189,1.4881,1.5429,1.5685,1.5403,1.5694,1.6045,1.6413,1.679,1.7232,1.7752,1.8586,1.9177,1.959,1.976,1.958,1.9093,2.0359,2.1078,2.1168,2.1774,2.2403,2.3135,2.3232,2.3667,2.4186,2.4368,2.4454,2.4454,2.4454,2.4454,2.4643,2.5471,2.5823,2.5999,-0.154,-0.1591,-0.1617,-0.1617,-0.1617,-0.1615,-0.1609,-0.1613,-0.1617,-0.1617,-0.1617,-0.1002,0.0392,0.1691,0.2601,0.3348,0.4245,0.4689,0.454,0.453,0.4496,0.4418,0.4414,0.4414,0.4414,0.4338,0.43,0.4389,0.4389,0.4389,0.4389,0.4389,0.448,0.4661,0.4661,0.475,0.4935,0.5108,0.5144,0.516,0.5436,0.5701,0.5901,0.5902,0.6134,0.6423,0.7495,0.7997,0.8405,1.0347,1.1168,1.1521,1.241,1.2732,1.2764,1.2764,1.2711,1.2603,1.2366,1.2151,1.2021,1.1833,1.1817,1.1927,1.2453,1.2437,1.2706,1.3834,1.405,1.4191,1.472,1.5121,1.5184,1.4405,1.4807,1.4795,1.3596,1.4358,1.4906,1.4547,1.5215,1.5694,1.5634,1.5737,1.5908,1.6156,1.6306,1.643,1.6807,1.7184,1.7303,1.6983,1.774,1.8212,1.8264,1.8515,1.8629,1.8551,1.902,1.9546,2.0167,2.0249,2.0683,2.1391,2.2208,2.2668,2.2755,2.357,2.4024,2.4292,2.4292,2.4368,2.4602,2.514,2.5564,2.5958,-0.1593,-0.1617,-0.1617,-0.1617,-0.1617,-0.1617,-0.1617,-0.1617,-0.1617,-0.1617,-0.1617,-0.1408,-0.0695,0.1832,0.3626,0.389,0.4436,0.4732,0.4651,0.4689,0.4696,0.4651,0.4651,0.4651,0.4651,0.4608,0.4587,0.4587,0.4587,0.4587,0.4587,0.4587,0.4587,0.4685,0.4685,0.478,0.4879,0.5019,0.5133,0.5138,0.5375,0.5584,0.5681,0.5672,0.5858,0.605,0.6628,0.7208,0.8086,0.9715,1.0619,1.1322,1.2425,1.2764,1.2764,1.2764,1.2764,1.2737,1.2635,1.2517,1.2377,1.2145,1.1984,1.1975,1.2054,1.1992,1.2152,1.2823,1.3108,1.3464,1.3911,1.4317,1.4574,1.4624,1.46,1.4552,1.4372,1.4672,1.4883,1.4992,1.5247,1.5581,1.571,1.5691,1.5807,1.5963,1.6312,1.6571,1.6505,1.6904,1.7,1.6718,1.7139,1.7302,1.7302,1.7847,1.811,1.8118,1.8576,1.9004,1.9271,1.9271,1.9712,2.0413,2.0872,2.123,2.1667,2.2658,2.3115,2.3299,2.3754,2.4024,2.4161,2.4608,2.5145,2.5594,-0.1598,-0.1617,-0.1617,-0.1617,-0.1617,-0.1617,-0.1617,-0.1617,-0.1617,-0.1617,-0.1617,-0.1409,-0.0997,0.1985,0.4072,0.4591,0.4649,0.4685,0.4708,0.4769,0.4814,0.4832,0.4834,0.4834,0.4834,0.4834,0.4834,0.4834,0.4834,0.4834,0.4834,0.4834,0.4834,0.4832,0.4814,0.4806,0.4804,0.4984,0.5075,0.5068,0.5192,0.5354,0.5345,0.5358,0.5422,0.5608,0.5608,0.6361,0.7412,0.8562,0.9655,1.0735,1.1955,1.2496,1.2597,1.2597,1.2597,1.2619,1.2732,1.2764,1.2721,1.2538,1.2355,1.2151,1.1919,1.1882,1.1974,1.2085,1.2435,1.2901,1.3308,1.3726,1.4117,1.4516,1.4405,1.434,1.4727,1.4782,1.4907,1.525,1.5435,1.5667,1.587,1.5846,1.5858,1.5858,1.634,1.6573,1.6325,1.6644,1.6686,1.6566,1.6648,1.6778,1.6857,1.7383,1.7636,1.7722,1.8253,1.845,1.845,1.845,1.8719,1.9338,1.9521,1.9968,2.0486,2.1489,2.2031,2.2394,2.3115,2.357,2.3881,2.4233,2.4706,2.5229,-0.1615,-0.1617,-0.1617,-0.1617,-0.1617,-0.1617,-0.1617,-0.1617,-0.1617,-0.1617,-0.1617,-0.0897,0.0864,0.2017,0.3148,0.4276,0.4532,0.4618,0.4704,0.4714,0.4753,0.483,0.4834,0.4834,0.4834,0.4834,0.4834,0.4834,0.4834,0.4834,0.4834,0.4834,0.4834,0.483,0.4753,0.4718,0.4712,0.4628,0.4687,0.4687,0.4681,0.4769,0.5052,0.5043,0.5232,0.5424,0.5424,0.5608,0.5984,0.7117,0.8247,0.9376,1.0408,1.1441,1.2189,1.2189,1.2189,1.2292,1.2641,1.2764,1.2759,1.2743,1.2721,1.2651,1.2414,1.2248,1.2174,1.248,1.2406,1.2468,1.3024,1.3439,1.3681,1.3488,1.4012,1.4404,1.4089,1.4909,1.5502,1.5486,1.6079,1.649,1.6514,1.6545,1.6561,1.6561,1.6585,1.6601,1.669,1.6698,1.6542,1.617,1.6492,1.6806,1.713,1.7077,1.7232,1.7529,1.7435,1.7426,1.7426,1.7426,1.7419,1.7512,1.8519,1.888,1.9063,1.996,2.1042,2.2031,2.2129,2.2843,2.3754,2.3881,2.4434,2.5189,-0.1617,-0.1617,-0.1617,-0.1617,-0.1617,-0.1617,-0.1617,-0.1617,-0.0695,0.1699,0.1077,0.0596,0.1242,0.275,0.393,0.427,0.4434,0.4502,0.4536,0.4591,0.4687,0.4828,0.4834,0.4834,0.4834,0.4834,0.4834,0.4834,0.4834,0.4808,0.4757,0.4757,0.4726,0.4671,0.4638,0.4624,0.4622,0.4587,0.4573,0.4567,0.451,0.458,0.4665,0.4606,0.4767,0.4954,0.4954,0.5134,0.541,0.6581,0.7342,0.8184,0.9864,1.074,1.1298,1.1951,1.214,1.2178,1.2362,1.2431,1.2581,1.2727,1.2764,1.2737,1.2651,1.2447,1.2341,1.2439,1.2309,1.2265,1.2715,1.2946,1.3157,1.3698,1.3708,1.3967,1.4991,1.5131,1.5352,1.6085,1.6238,1.6314,1.653,1.63,1.6139,1.6139,1.6477,1.6385,1.5929,1.5914,1.5839,1.5673,1.5839,1.608,1.642,1.6563,1.6803,1.7123,1.7265,1.7326,1.7326,1.7326,1.7326,1.7326,1.7692,1.7878,1.7971,1.8972,1.9604,2.0141,2.132,2.205,2.2589,2.3135,2.3792,2.4345,-0.1617,-0.1617,-0.1617,-0.1617,-0.1617,-0.1617,-0.1617,-0.1617,-0.0589,0.2171,0.1718,0.1372,0.1595,0.3074,0.4051,0.4308,0.4357,0.4404,0.4432,0.4522,0.4638,0.4787,0.482,0.4834,0.4834,0.4834,0.4834,0.4834,0.4808,0.4765,0.4708,0.4679,0.4632,0.4571,0.4542,0.4528,0.4526,0.45,0.4485,0.4481,0.4418,0.4391,0.4385,0.4322,0.4389,0.4569,0.4569,0.4746,0.5022,0.5905,0.6469,0.7111,0.858,0.9626,1.0448,1.1552,1.1828,1.1844,1.1919,1.2064,1.2264,1.2576,1.2651,1.2673,1.2748,1.2641,1.2527,1.2527,1.2388,1.2406,1.2603,1.2666,1.2939,1.3574,1.3352,1.3554,1.492,1.4776,1.4956,1.5826,1.5849,1.5879,1.6177,1.6024,1.5857,1.5928,1.6171,1.6107,1.5445,1.5431,1.5431,1.5431,1.5533,1.5738,1.6052,1.6265,1.6579,1.7004,1.7223,1.7326,1.7326,1.7326,1.7326,1.7326,1.7326,1.7326,1.7326,1.8056,1.8519,1.8972,2.024,2.097,2.1329,2.2325,2.2955,2.3376,-0.1617,-0.1617,-0.1617,-0.1617,-0.1617,-0.1617,-0.1617,-0.1617,-0.1573,-0.1361,-0.0376,0.0951,0.2253,0.2646,0.3208,0.4216,0.43,0.4338,0.4428,0.452,0.4612,0.4704,0.4787,0.4832,0.4834,0.4834,0.4834,0.4834,0.4749,0.4708,0.4706,0.4614,0.4571,0.4567,0.4475,0.4434,0.4428,0.4338,0.43,0.43,0.43,0.43,0.43,0.43,0.43,0.43,0.43,0.448,0.4661,0.4661,0.545,0.6413,0.6413,0.7906,0.9845,1.0911,1.1262,1.1316,1.1634,1.1698,1.1811,1.2291,1.2414,1.2474,1.2711,1.2759,1.2759,1.2764,1.2764,1.2764,1.2764,1.2764,1.2794,1.2848,1.2854,1.3038,1.3567,1.3856,1.4223,1.4593,1.4873,1.522,1.5667,1.5732,1.5763,1.5878,1.5913,1.5767,1.5445,1.5431,1.5431,1.5431,1.5745,1.606,1.6367,1.6374,1.6696,1.7326,1.7326,1.7326,1.7326,1.7326,1.7326,1.7326,1.7326,1.7326,1.7326,1.7326,1.7878,1.8796,1.8788,1.933,2.0322,2.1329,2.1942,2.2337,-0.1617,-0.1617,-0.1617,-0.1617,-0.1617,-0.1617,-0.1617,-0.1617,-0.1286,-0.0279,0.0668,0.153,0.2615,0.3468,0.4032,0.4308,0.43,0.431,0.4338,0.4424,0.4518,0.461,0.4698,0.4773,0.4832,0.4834,0.4834,0.4834,0.4749,0.4675,0.4612,0.452,0.4442,0.4379,0.4351,0.434,0.4338,0.431,0.43,0.43,0.43,0.43,0.43,0.43,0.43,0.43,0.43,0.4389,0.4389,0.4389,0.4746,0.5364,0.6151,0.7291,0.8519,0.9323,0.9593,0.9781,1.0717,1.0917,1.1113,1.1946,1.2156,1.2221,1.2463,1.2517,1.2565,1.2727,1.2764,1.2764,1.2764,1.2764,1.2758,1.2538,1.2582,1.2766,1.3225,1.3435,1.3695,1.432,1.4494,1.4604,1.4695,1.4966,1.5129,1.5217,1.5439,1.5533,1.5431,1.5431,1.5431,1.5431,1.5745,1.606,1.6367,1.6594,1.6923,1.7326,1.7326,1.7326,1.7326,1.7326,1.7326,1.7326,1.7326,1.7326,1.7326,1.7326,1.7512,1.7785,1.8519,1.8972,1.933,2.0322,2.0762,2.0954,-0.1617,-0.1617,-0.1617,-0.1617,-0.1617,-0.1609,-0.1585,-0.1588,-0.1271,-0.0463,0.0753,0.1695,0.225,0.3532,0.4359,0.4304,0.43,0.4314,0.4351,0.4404,0.4491,0.462,0.4679,0.4749,0.4832,0.4834,0.4818,0.4785,0.4698,0.4608,0.4516,0.4424,0.4351,0.43,0.43,0.43,0.43,0.43,0.43,0.43,0.43,0.43,0.43,0.43,0.43,0.43,0.43,0.43,0.43,0.43,0.4389,0.4746,0.5891,0.6681,0.7291,0.8177,0.8711,0.9065,0.9763,1.0115,1.0532,1.1158,1.1568,1.1973,1.2215,1.2269,1.2307,1.2452,1.2479,1.2479,1.2479,1.2479,1.2436,1.2291,1.2269,1.2401,1.27,1.2768,1.2945,1.3393,1.3393,1.3531,1.369,1.3887,1.4182,1.4679,1.493,1.5082,1.5431,1.5431,1.5489,1.5613,1.5928,1.6243,1.6557,1.6879,1.7135,1.7326,1.7326,1.7326,1.7326,1.7326,1.7326,1.7326,1.7326,1.7326,1.7326,1.7326,1.7326,1.7326,1.7971,1.8241,1.8334,1.933,1.9695,1.9687,-0.1617,-0.1617,-0.1617,-0.1617,-0.1617,-0.1598,-0.1543,-0.1547,-0.153,-0.1453,0.0183,0.1285,0.1256,0.3048,0.4129,0.421,0.4208,0.4334,0.4418,0.443,0.4512,0.4689,0.4704,0.4749,0.4832,0.4826,0.4785,0.4708,0.461,0.4518,0.4432,0.4342,0.43,0.43,0.43,0.43,0.43,0.43,0.43,0.43,0.43,0.43,0.43,0.4308,0.4312,0.4312,0.432,0.4322,0.4322,0.4322,0.4322,0.4501,0.566,0.5925,0.6186,0.7316,0.8109,0.8644,0.8719,0.9244,0.9864,0.9864,1.071,1.1636,1.1871,1.1925,1.193,1.2043,1.2048,1.2048,1.2048,1.214,1.2135,1.2113,1.2016,1.2102,1.1989,1.1989,1.1989,1.1989,1.1989,1.2163,1.2551,1.2616,1.3126,1.4328,1.4398,1.4657,1.5347,1.546,1.5606,1.5906,1.6243,1.6557,1.6941,1.7172,1.7326,1.7326,1.7326,1.7326,1.7326,1.7326,1.7326,1.7326,1.7326,1.7326,1.7326,1.7326,1.7326,1.7326,1.7326,1.7326,1.7419,1.8334,1.8696,1.8759,-0.1617,-0.1617,-0.1617,-0.1617,-0.1617,-0.1612,-0.1599,-0.1575,-0.1545,-0.151,-0.0472,0.028,0.027,0.2,0.31,0.323,0.3851,0.4308,0.4326,0.4395,0.4485,0.4598,0.4671,0.4749,0.4832,0.4769,0.4726,0.4708,0.4545,0.4455,0.4432,0.4342,0.43,0.43,0.43,0.43,0.43,0.43,0.43,0.43,0.43,0.43,0.4306,0.4379,0.4406,0.4416,0.4487,0.4514,0.4514,0.4514,0.4514,0.4606,0.4886,0.4884,0.5055,0.5791,0.6125,0.6463,0.7245,0.8013,0.8636,0.9069,0.9717,1.0426,1.0631,1.068,1.082,1.1461,1.1589,1.1681,1.2048,1.214,1.1989,1.1806,1.1774,1.1709,1.1526,1.1499,1.1499,1.1499,1.1499,1.1483,1.1603,1.2106,1.3016,1.4314,1.4398,1.4657,1.5347,1.5672,1.584,1.5913,1.6462,1.6875,1.6857,1.7172,1.7326,1.7326,1.7326,1.7326,1.7326,1.7326,1.7326,1.7326,1.7326,1.7326,1.7326,1.7326,1.7326,1.7326,1.7326,1.7326,1.7326,1.7512,1.7606,1.7688,-0.1617,-0.1617,-0.1617,-0.1617,-0.1617,-0.1612,-0.1597,-0.1577,-0.1555,-0.153,-0.0668,0.0095,0.0648,0.1939,0.3025,0.3499,0.403,0.4318,0.4361,0.4451,0.4542,0.4632,0.4683,0.473,0.4773,0.4645,0.46,0.4645,0.4504,0.4414,0.4369,0.432,0.43,0.43,0.43,0.43,0.43,0.43,0.43,0.4304,0.4346,0.4363,0.4375,0.4465,0.45,0.4508,0.4555,0.4573,0.4573,0.4573,0.4573,0.4573,0.4573,0.4573,0.4658,0.498,0.5332,0.5678,0.6192,0.6879,0.7585,0.8124,0.854,0.9007,0.9995,1.0195,1.0229,1.0612,1.0726,1.0905,1.1258,1.1347,1.14,1.1465,1.1532,1.1488,1.1283,1.1262,1.1262,1.1262,1.1262,1.1262,1.1262,1.1688,1.2283,1.3379,1.3848,1.4446,1.5135,1.5785,1.6206,1.636,1.6682,1.6923,1.7077,1.7245,1.7326,1.7326,1.7326,1.7326,1.7326,1.7326,1.7326,1.7326,1.7326,1.7326,1.7326,1.7326,1.7326,1.7326,1.7326,1.7326,1.7326,1.7326,1.7326,1.7421,-0.1617,-0.1617,-0.1617,-0.1617,-0.1617,-0.1609,-0.1583,-0.1575,-0.1562,-0.1537,-0.0862,-0.0,0.0853,0.1954,0.3011,0.3946,0.421,0.4332,0.4406,0.4498,0.4583,0.4659,0.4692,0.4702,0.4685,0.4536,0.4487,0.4549,0.4457,0.4373,0.43,0.43,0.43,0.43,0.43,0.43,0.43,0.43,0.4308,0.433,0.4404,0.4444,0.4469,0.4561,0.4596,0.4598,0.4612,0.4618,0.4618,0.4618,0.4618,0.4618,0.4618,0.4618,0.4614,0.46,0.4973,0.5422,0.5405,0.5836,0.6548,0.7062,0.7389,0.7927,0.9345,0.974,0.9777,0.9864,0.9864,1.0038,1.0376,1.0463,1.0641,1.0997,1.1176,1.1176,1.1176,1.1262,1.1262,1.1262,1.1262,1.1278,1.1321,1.1413,1.1684,1.2492,1.3311,1.4057,1.4751,1.5743,1.6393,1.6661,1.6908,1.7062,1.7326,1.7326,1.7326,1.7326,1.7326,1.7326,1.7326,1.7326,1.7326,1.7326,1.7326,1.7326,1.7326,1.7326,1.7326,1.7326,1.7326,1.7326,1.7326,1.7326,1.7326,1.7413,-0.1617,-0.1617,-0.1617,-0.1617,-0.1617,-0.1615,-0.1611,-0.1588,-0.157,-0.1566,-0.1467,-0.1352,-0.1119,0.0546,0.1975,0.3047,0.3851,0.4304,0.4316,0.4402,0.4459,0.4471,0.4624,0.4671,0.4591,0.4565,0.452,0.4455,0.4361,0.4312,0.43,0.43,0.43,0.43,0.43,0.43,0.43,0.43,0.4344,0.4418,0.443,0.4483,0.4563,0.4655,0.4689,0.47,0.4773,0.48,0.48,0.48,0.48,0.48,0.48,0.48,0.4785,0.4712,0.4787,0.4766,0.4767,0.5209,0.5766,0.5844,0.687,0.7902,0.8088,0.8509,0.8915,0.9349,0.9432,0.9519,1.0038,1.0125,1.0125,1.0212,1.0467,1.0727,1.0727,1.1084,1.1262,1.1262,1.1262,1.1429,1.1634,1.1655,1.2004,1.2931,1.3164,1.3537,1.4155,1.5241,1.5789,1.5831,1.6743,1.7282,1.7326,1.7326,1.7326,1.7326,1.7326,1.7326,1.7326,1.7326,1.7326,1.7326,1.7326,1.7326,1.7326,1.7326,1.7326,1.7326,1.7326,1.7326,1.7326,1.7326,1.7326,1.7377,-0.1515,-0.1617,-0.1617,-0.1617,-0.1617,-0.1617,-0.1617,-0.1605,-0.1597,-0.1597,-0.1597,-0.1382,-0.0767,0.1125,0.2766,0.365,0.4101,0.4353,0.4302,0.4385,0.4434,0.4434,0.4561,0.4589,0.4498,0.4496,0.4451,0.4359,0.4318,0.43,0.43,0.43,0.43,0.43,0.43,0.43,0.4302,0.4353,0.4398,0.4444,0.4547,0.4612,0.4659,0.4745,0.4779,0.4783,0.482,0.4834,0.4834,0.4834,0.4834,0.4834,0.4834,0.4834,0.4826,0.479,0.4779,0.4761,0.4671,0.4839,0.5207,0.5526,0.6452,0.7396,0.7778,0.8417,0.8956,0.9133,0.9224,0.9311,0.9759,0.9849,0.9935,1.0206,1.0471,1.0561,1.0561,1.1015,1.1378,1.1741,1.1741,1.1779,1.1887,1.1892,1.2117,1.2495,1.3095,1.3546,1.3811,1.4807,1.5524,1.5992,1.6404,1.6857,1.7326,1.7326,1.7326,1.7326,1.7326,1.7326,1.7326,1.7326,1.7326,1.7326,1.7326,1.7326,1.7326,1.7326,1.7326,1.7326,1.7326,1.7326,1.7326,1.7326,1.7326,1.7377]},{"header":{"parameterUnit":"m.s-1","parameterCategory":1,"la1":30.6,"la2":28.766,"lo1":-90.7593,"lo2":-88.6598,"dy":0.0162,"dx":0.0183,"nx":116,"ny":114,"refTime":"2024-08-03T06:00:00:Z","depth":0,"parameterNumber":3,"parameterNumberName":"V-component_of_WINDS"},"data":[0.0,0.0,0.0,0.0,0.0,0.0,0.0,0.0,0.0,0.0,0.0,0.0,0.0,0.0,0.0,0.0,0.0,0.0,0.0,0.0,0.0,0.0,0.0,0.0,0.0,0.0,0.0,0.0,0.0,0.0,0.0,0.0,0.0,0.0,0.0,0.0,0.0,0.0,0.0,0.0,0.0,0.0,0.0,0.0,0.0,0.0,0.0,0.0,0.0,0.0,0.0,0.0,0.0,0.0,0.0,0.0,0.0,0.0,0.0,0.0,0.0,0.0,0.0,0.0,0.0,0.0,0.0,0.0,0.0,0.0,0.0,0.0,0.0,0.0,0.0,0.0,0.0,0.0,0.0,0.0,0.0,0.0,0.0,0.0,0.0,0.0,0.0,0.0,0.0,0.0,0.0,0.0,0.0,0.0,0.0,0.0,0.0,0.0,0.0,0.0,0.0,0.0,0.0,0.0,0.0,0.0,0.0,0.0,0.0,0.0,0.0,0.0,0.0,0.0,0.0,0.0,0.0,0.0,0.0,0.0,0.0,0.0,0.0,0.0,0.0,0.0,0.0,0.0,0.0,0.0,0.0,0.0,0.0,0.0,0.0,0.0,0.0,0.0,0.0,0.0,0.0,0.0,0.0,0.0,0.0,0.0,0.0,0.0,0.0,0.0,0.0,0.0,0.0,0.0,0.0,0.0,0.0,0.0,0.0,0.0,0.0,0.0,0.0,0.0,0.0,0.0,0.0,0.0,0.0,0.0,0.0,0.0,0.0,0.0,0.0,0.0,0.0,0.0,0.0,0.0,0.0,0.0,0.0,0.0,0.0,0.0,0.0,0.0,0.0,0.0,0.0,0.0,0.0,0.0,0.0,0.0,0.0,0.0,0.0,0.0,0.0,0.0,0.0,0.0,0.0,0.0,0.0,0.0,0.0,0.0,0.0,0.0,0.0,0.0,0.0,0.0,0.0,0.0,0.0,0.0,0.0,0.0,0.0,0.0,0.0,0.0,0.0,0.0,0.0,0.0,0.0,0.0,0.0,0.0,0.0,0.0,0.0,0.0,0.0,0.0,0.0,0.0,0.0,0.0,0.0,0.0,0.0,0.0,0.0,0.0,0.0,0.0,0.0,0.0,0.0,0.0,0.0,0.0,0.0,0.0,0.0,0.0,0.0,0.0,0.0,0.0,0.0,0.0,0.0,0.0,0.0,0.0,0.0,0.0,0.0,0.0,0.0,0.0,0.0,0.0,0.0,0.0,0.0,0.0,0.0,0.0,0.0,0.0,0.0,0.0,0.0,0.0,0.0,0.0,0.0,0.0,0.0,0.0,0.0,0.0,0.0,0.0,0.0,0.0,0.0,0.0,0.0,0.0,0.0,0.0,0.0,0.0,0.0,0.0,0.0,0.0,0.0,0.0,0.0,0.0,0.0,0.0,0.0,0.0,0.0,0.0,0.0,0.0,0.0,0.0,0.0,0.0,0.0,0.0,0.0,0.0,0.0,0.0,0.0,0.0,0.0,0.0,0.0,0.0,0.0,0.0,0.0,0.0,0.0,0.0,0.0,0.0,0.0,0.0,0.0,0.0,0.0,0.0,0.0,0.0,0.0,0.0,0.0,0.0,0.0,0.0,0.0,0.0,0.0,0.0,0.0,0.0,0.0,0.0,0.0,0.0,0.0,0.0,0.0,0.0,0.0,0.0,0.0,0.0,0.0,0.0,0.0,0.0,0.0,0.0,0.0,0.0,0.0,0.0,0.0,0.0,0.0,0.0,0.0,0.0,0.0,0.0,0.0,0.0,0.0,0.0,0.0,0.0,0.0,0.0,0.0,0.0,0.0,0.0,0.0,0.0,0.0,0.0,0.0,0.0,0.0,0.0,0.0,0.0,0.0,0.0,0.0,0.0,0.0,0.0,0.0,0.0,0.0,0.0,0.0,0.0,0.0,0.0,0.0,0.0,0.0,0.0,0.0,0.0,0.0,0.0,0.0,0.0,0.0,0.0,0.0,0.0,0.0,0.0,0.0,0.0,0.0,0.0,0.0,0.0,0.0,0.0,0.0,0.0,0.0,0.0,0.0,0.0,0.0,0.0,0.0,0.0,0.0,0.0,0.0,0.0,0.0,0.0,0.0,0.0,0.0,0.0,0.0,0.0,0.0,0.0,0.0,0.0,0.0,0.0,0.0,0.0,0.0,0.0,0.0,0.0,0.0,0.0,0.0,0.0,0.0,0.0,0.0,0.0,0.0,0.0,0.0,0.0,0.0,0.0,0.0,0.0,0.0,0.0,0.0,0.0,0.0,0.0,0.0,0.0,0.0,0.0,0.0,0.0,0.0,0.0,0.0,0.0,0.0,0.0,0.0,0.0,0.0,0.0,0.0,0.0,0.0,0.0,0.0,0.0,0.0,0.0,0.0,0.0,0.0,0.0,0.0,0.0,0.0,0.0,0.0,0.0,0.0,0.0,0.0,0.0,0.0,0.0,0.0,0.0,0.0,0.0,0.0,0.0,0.0,0.0,0.0,0.0,0.0,0.0,0.0,0.0,0.0,0.0,0.0,0.0,0.0,0.0,0.0,0.0,0.0,0.0,0.0,0.0,0.0,0.0,0.0,0.0,0.0,0.0,0.0,0.0,0.0,0.0,0.0,0.0,0.0,0.0,0.0,0.0,0.0,0.0,0.0,0.0,0.0,0.0,0.0,0.0,0.0,0.0,0.0,0.0,0.0,0.0,0.0,0.0,0.0,0.0,0.0,0.0,0.0,0.0,0.0,0.0,0.0,0.0,0.0,0.0,0.0,0.0,0.0,0.0,0.0,0.0,0.0,0.0,0.0,0.0,0.0,0.0,0.0,0.0,0.0,0.0,0.0,0.0,0.0,0.0,0.0,0.0,0.0,0.0,0.0,0.0,0.0,0.0,0.0,0.0,0.0,0.0,0.0,0.0,0.0,0.0,0.0,0.0,0.0,0.0,0.0,0.0,0.0,0.0,0.0,0.0,0.0,0.0,0.0,0.0,0.0,0.0,0.0,0.0,0.0,0.0,0.0,0.0,0.0,0.0,0.0,0.0,0.0,0.0,0.0,0.0,0.0,0.0,0.0,0.0,0.0,0.0,0.0,0.0,0.0,0.0,0.0,0.0,0.0,0.0,0.0,0.0,0.0,0.0,0.0,0.0,0.0,0.0,0.0,0.0,0.0,0.0,0.0,0.0,0.0,0.0,0.0,0.0,0.0,0.0,0.0,0.0,0.0,0.0,0.0,0.0,0.0,0.0,0.0,0.0,0.0,0.0,0.0,0.0,0.0,0.0,0.0,0.0,0.0,0.0,0.0,0.0,0.0,0.0,0.0,0.0,0.0,0.0,0.0,0.0,0.0,0.0,0.0,0.0,0.0,0.0,0.0,0.0,0.0,0.0,0.0,0.0,0.0,0.0,0.0,0.0,0.0,0.0,0.0,0.0,0.0,0.0,0.0,0.0,0.0,0.0,0.0,0.0,0.0,0.0,0.0,0.0,0.0,0.0,0.0,0.0,0.0,0.0,0.0,0.0,0.0,0.0,0.0,0.0,0.0,0.0,0.0,0.0,0.0,0.0,0.0,0.0,0.0,0.0,0.0,0.0,0.0,0.0,0.0,0.0,0.0,0.0,0.0,0.0,0.0,0.0,0.0,0.0,0.0,0.0,0.0,0.0,0.0,0.0,0.0,0.0,0.0,0.0,0.0,0.0,0.0,0.0,0.0,0.0,0.0,0.0,0.0,0.0,0.0,0.0,0.0,0.0,0.0,0.0,0.0,0.0,0.0,0.0,0.0,0.0,0.0,0.0,0.0,0.0,0.0,0.0,0.0,0.0,0.0,0.0,0.0,0.0,0.0,0.0,0.0,0.0,0.0,0.0,0.0,0.0,0.0,0.0,0.0,0.0,0.0,0.0,0.0,0.0,0.0,0.0,0.0,0.0,0.0,0.0,0.0,0.0,0.0,0.0,0.0,0.0,0.0,0.0,0.0,0.0,0.0,0.0,0.0,0.0,0.0,0.0,0.0,0.0,0.0,0.0,0.0,0.0,0.0,0.0,0.0,0.0,0.0,0.0,0.0,0.0,0.0,0.0,0.0,0.0,0.0,0.0,0.0,0.0,0.0,0.0,0.0,0.0,0.0,0.0,0.0,0.0,0.0,0.0,0.0,0.0,0.0,0.0,0.0,0.0,0.0,0.0,0.0,0.0,0.0,0.0,0.0,0.0,0.0,0.0,0.0,0.0,0.0,0.0,0.0,0.0,0.0,0.0,0.0,0.0,0.0,0.0,0.0,0.0,0.0,0.0,0.0,0.0,0.0,0.0,0.0,0.0,0.0,0.0,0.0,0.0,0.0,0.0,0.0,0.0,0.0,0.0,0.0,0.0,0.0,0.0,0.0,0.0,0.0,0.0,0.0,0.0,0.0,0.0,0.0,0.0,0.0,0.0,0.0,0.0,0.0,0.0,0.0,0.0,0.0,0.0,0.0,0.0,0.0,0.0,0.0,0.0,0.0,0.0,0.0,0.0,0.0,0.0,0.0,0.0,0.0,0.0,0.0,0.0,0.0,0.0,0.0,0.0,0.0,0.0,0.0,0.0,0.0,0.0,0.0,0.0,0.0,0.0,0.0,0.0,0.0,0.0,0.0,0.0,0.0,0.0,0.0,0.0,0.0,0.0,0.0,0.0,0.0,0.0,0.0,0.0,0.0,0.0,0.0,0.0,0.0,0.0,0.0,0.0,0.0,0.0,0.0,0.0,0.0,0.0,0.0,0.0,0.0,0.0,0.0,0.0,0.0,0.0,0.0,0.0,0.0,0.0,0.0,0.0,0.0,0.0,0.0,0.0,0.0,0.0,0.0,0.0,0.0,0.0,0.0,0.0,0.0,0.0,0.0,0.0,0.0,0.0,0.0,0.0,0.0,0.0,0.0,0.0,0.0,0.0,0.0,0.0,0.0,0.0,0.0,0.0,0.0,0.0,0.0,0.0,0.0,0.0,0.0,0.0,0.0,0.0,0.0,0.0,0.0,0.0,0.0,0.0,0.0,0.0,0.0,0.0,0.0,0.0,0.0,0.0,0.0,0.0,0.0,0.0,0.0,0.0,0.0,0.0,0.0,0.0,0.0,0.0,0.0,0.0,0.0,0.0,0.0,0.0,0.0,0.0,0.0,0.0,0.0,0.0,0.0,0.0,0.0,0.0,0.0,0.0,0.0,0.0,0.0,0.0,0.0,0.0,0.0,0.0,0.0,0.0,0.0,0.0,0.0,0.0,0.0,0.0,0.0,0.0,0.0,0.0,0.0,0.0,0.0,0.0,0.0,0.0,0.0,0.0,0.0,0.0,0.0,0.0,0.0,0.0,0.0,0.0,0.0,0.0,0.0,0.0,0.0,0.0,0.0,0.0,0.0,0.0,0.0,0.0,0.0,0.0,0.0,0.0,0.0,0.0,0.0,0.0,0.0,0.0,0.0,0.0,0.0,0.0,0.0,0.0,0.0,0.0,0.0,0.0,0.0,0.0,0.0,0.0,0.0,0.0,0.0,0.0,0.0,0.0,0.0,0.0,0.0,0.0,0.0,0.0,0.0,0.0,0.0,0.0,0.0,0.0,0.0,0.0,0.0,0.0,0.0,0.0,0.0,0.0,0.0,0.0,0.0,0.0,0.0,0.0,0.0,0.0,0.0,0.0,0.0,0.0,0.0,0.0,0.0,0.0,0.0,0.0,0.0,0.0,0.0,0.0,0.0,0.0,0.0,0.0,0.0,0.0,0.0,0.0,0.0,0.0,0.0,0.0,0.0,0.0,0.0,0.0,0.0,0.0,0.0,0.0,0.0,0.0,0.0,0.0,0.0,0.0,0.0,0.0,0.0,0.0,0.0,0.0,0.0,0.0,0.0,0.0,0.0,0.0,0.0,0.0,0.0,0.0,0.0,0.0,0.0,0.0,0.0,0.0,0.0,0.0,0.0,0.0,0.0,0.0,0.0,0.0,0.0,0.0,0.0,0.0,0.0,0.0,0.0,0.0,0.0,0.0,0.0,0.0,0.0,0.0,0.0,0.0,0.0,0.0,0.0,0.0,0.0,0.0,0.0,0.0,0.0,0.0,0.0,0.0,-0.6374,-0.5174,0.0,0.0,0.0,0.0,0.0,0.0,0.0,0.0,0.0,0.0,0.0,0.0,0.0,0.0,0.0,0.0,0.0,0.0,0.0,0.0,0.0,0.0,0.0,-0.6002,-0.5995,-0.5988,-0.5897,-0.5904,-0.6093,0.0,0.0,0.0,0.0,0.0,-0.6039,-0.5948,-0.6035,-0.6282,-0.6282,-0.6591,-0.7165,-0.69,-0.652,-0.6074,0.0,0.0,0.0,0.0,0.0,0.0,0.0,0.0,0.0,0.0,0.0,0.0,0.0,0.0,0.0,0.0,0.0,0.0,0.0,0.0,0.0,0.0,0.0,0.0,0.0,0.0,0.0,0.0,0.0,0.0,0.0,0.0,0.0,0.0,0.0,0.0,0.0,0.0,0.0,0.0,0.0,0.0,0.0,0.0,0.0,0.0,0.0,0.0,0.0,0.0,0.0,0.0,0.0,0.0,0.0,0.0,0.0,0.0,0.0,0.0,0.0,0.0,0.0,0.0,0.0,0.0,0.0,0.0,0.0,0.0,-0.7717,-0.6551,0.0,0.0,0.0,0.0,0.0,0.0,0.0,0.0,0.0,0.0,0.0,0.0,0.0,0.0,0.0,0.0,0.0,0.0,0.0,0.0,0.0,-0.5583,-0.6059,-0.6104,-0.6098,-0.6098,-0.608,-0.6111,-0.6254,-0.6295,0.0,0.0,0.0,-0.6135,-0.6295,-0.6135,-0.6317,-0.6869,-0.7083,-0.7598,-0.8385,-0.8798,-0.86,-0.7951,-0.7588,0.0,0.0,0.0,0.0,0.0,0.0,0.0,0.0,0.0,0.0,0.0,0.0,0.0,0.0,0.0,0.0,0.0,0.0,0.0,0.0,0.0,0.0,0.0,0.0,0.0,0.0,0.0,0.0,0.0,0.0,0.0,0.0,0.0,0.0,0.0,0.0,0.0,0.0,0.0,0.0,0.0,0.0,0.0,0.0,0.0,0.0,0.0,0.0,0.0,0.0,0.0,0.0,0.0,0.0,0.0,0.0,0.0,0.0,0.0,0.0,0.0,0.0,0.0,-1.1713,-1.0615,-0.9871,-1.0038,-1.0273,-1.0631,-0.8843,-0.7923,-0.7608,-0.6483,0.0,0.0,0.0,0.0,0.0,0.0,0.0,0.0,0.0,0.0,0.0,0.0,0.0,0.0,0.0,0.0,0.0,0.0,0.0,-0.6004,-0.6468,-0.653,-0.6512,-0.6512,-0.636,-0.6343,-0.6535,-0.6395,0.0,0.0,-0.6378,-0.6278,-0.6295,-0.6278,-0.6559,-0.7146,-0.8249,-0.9287,-1.0244,-1.0432,-1.0671,-1.0843,-0.9155,-0.8372,-0.8263,0.0,0.0,0.0,0.0,0.0,0.0,0.0,0.0,0.0,0.0,0.0,0.0,0.0,0.0,0.0,0.0,0.0,0.0,0.0,0.0,0.0,0.0,0.0,0.0,0.0,0.0,0.0,0.0,0.0,0.0,0.0,0.0,0.0,0.0,0.0,0.0,0.0,0.0,0.0,0.0,0.0,-0.5705,-0.5611,0.0,0.0,0.0,0.0,0.0,0.0,0.0,0.0,0.0,0.0,0.0,0.0,0.0,-0.558,-0.3509,-0.9364,-1.2345,-1.2425,-1.2742,-1.2616,-1.2236,-1.231,-1.229,-1.2398,-1.207,0.0,-0.8695,-0.8854,0.0,0.0,0.0,0.0,0.0,0.0,0.0,0.0,0.0,0.0,0.0,0.0,0.0,0.0,0.0,0.0,0.0,0.0,0.0,0.0,0.0,-0.691,-0.7117,-0.7117,-0.7299,-0.7356,-0.724,-0.7286,-0.7197,-0.6954,-0.6746,-0.675,-0.698,-0.7079,-0.7852,-0.929,-1.0556,-1.1599,-1.2397,-1.2745,-1.3038,-1.3264,-1.233,-1.1104,-0.9672,-0.8761,0.0,0.0,0.0,0.0,0.0,0.0,0.0,0.0,0.0,0.0,0.0,0.0,0.0,0.0,0.0,0.0,0.0,0.0,0.0,0.0,0.0,0.0,0.0,0.0,0.0,0.0,0.0,0.0,0.0,0.0,0.0,0.0,0.0,0.0,0.0,0.0,0.0,0.0,0.0,-0.6282,-0.7022,-0.6724,-0.7006,-0.6943,0.0,0.0,0.0,0.0,0.0,0.0,0.0,0.0,0.0,-0.8391,-0.8342,-0.8698,-0.951,-1.2067,-1.3389,-1.341,-1.2977,-1.2891,-1.3124,-1.3429,-1.3422,-1.3175,-1.3471,-1.2814,-1.1433,-1.0718,-0.9064,-0.6861,0.0,0.0,0.0,0.0,-0.6941,-0.7391,0.0,0.0,0.0,0.0,0.0,0.0,0.0,0.0,0.0,0.0,0.0,0.0,-0.6893,-0.7311,-0.7637,-0.7791,-0.8188,-0.8334,0.0,-0.8109,-0.7916,-0.7548,-0.7221,-0.727,-0.7758,-0.8563,-0.9895,-1.1773,-1.2949,-1.3912,-1.4673,-1.4917,-1.5143,-1.5374,-1.5282,-1.3877,-1.1543,-1.0464,-0.9654,0.0,0.0,0.0,0.0,0.0,0.0,0.0,0.0,0.0,0.0,0.0,0.0,0.0,0.0,0.0,0.0,0.0,0.0,0.0,0.0,0.0,0.0,0.0,0.0,0.0,0.0,0.0,0.0,0.0,0.0,0.0,0.0,0.0,0.0,0.0,0.0,0.0,0.0,-0.722,-0.8178,-0.7649,-0.848,-0.8629,0.0,0.0,0.0,0.0,0.0,0.0,-1.1209,-1.1508,-1.1648,-1.1683,-1.0888,-1.1858,-1.4516,-1.4235,-1.4174,-1.4254,-1.3118,-1.2826,-1.3234,-1.3649,-1.3814,-1.3737,-1.4129,-1.4002,-1.3411,-1.2071,-1.1057,-1.0061,-0.7543,-0.7385,-0.8618,-0.8656,-0.899,-0.9544,0.0,0.0,0.0,0.0,0.0,0.0,0.0,0.0,0.0,0.0,0.0,-0.7104,-0.7674,-0.7753,-0.8003,-0.8583,-0.8724,-0.8867,0.0,0.0,-0.8188,-0.8419,-0.7813,-0.7771,-0.8421,-1.0893,-1.282,-1.4126,-1.5008,-1.6014,-1.7019,-1.6653,-1.6743,-1.7169,-1.7156,-1.6086,-1.4195,-1.2628,-1.1932,-1.1707,0.0,0.0,0.0,0.0,0.0,0.0,0.0,0.0,0.0,0.0,0.0,0.0,0.0,0.0,0.0,0.0,0.0,0.0,0.0,0.0,0.0,0.0,0.0,0.0,0.0,0.0,0.0,0.0,0.0,0.0,0.0,0.0,0.0,0.0,0.0,0.0,0.0,0.0,0.0,-0.8439,-0.9955,0.0,0.0,0.0,0.0,-1.231,-1.2329,-1.3053,-1.4582,-1.3667,-1.349,-1.4494,-1.4121,-1.4442,-1.5732,-1.4643,-1.4115,-1.409,-1.3137,-1.2681,-1.2705,-1.2729,-1.3296,-1.4256,-1.4286,-1.4002,-1.3471,-1.2868,-1.2596,-1.2644,-1.3445,-1.3552,-1.3177,-1.3344,-1.3201,-1.2921,0.0,0.0,0.0,-0.4933,-0.5006,-0.5241,-0.5834,-0.6009,-0.6326,-0.6943,-0.7292,-0.7579,0.0,-0.8512,-0.9119,-0.9499,-0.9761,-0.985,-0.971,-0.9192,-0.9157,-0.9764,-0.9688,-1.0743,-1.308,-1.357,-1.4583,-1.6108,-1.6746,-1.752,-1.8309,-1.8167,-1.8204,-1.8468,-1.8377,-1.7971,-1.718,-1.5079,-1.4015,-1.3597,-1.1564,-1.025,0.0,0.0,0.0,0.0,0.0,0.0,0.0,0.0,0.0,0.0,0.0,0.0,0.0,0.0,0.0,0.0,0.0,0.0,0.0,0.0,0.0,0.0,0.0,0.0,0.0,0.0,0.0,0.0,0.0,0.0,0.0,0.0,0.0,0.0,0.0,0.0,0.0,-1.1455,-1.2814,0.0,-1.2771,-1.3078,-1.37,-1.4764,-1.5086,-1.5828,-1.7257,-1.7184,-1.6872,-1.6288,-1.5913,-1.564,-1.5264,-1.4482,-1.4088,-1.4088,-1.3743,-1.3686,-1.3731,-1.3731,-1.3936,-1.4298,-1.4298,-1.4063,-1.367,-1.3477,-1.3326,-1.3266,-1.3646,-1.3749,-1.3694,-1.3755,-1.3628,-1.3417,0.0,-0.4509,0.0,-0.5132,-0.5268,-0.5622,-0.647,-0.6603,-0.6819,-0.7455,-0.7743,-0.8094,-0.8594,-0.9313,-0.9944,-1.0403,-1.0657,-1.075,-1.062,-1.0109,-1.0069,-1.0673,-1.1392,-1.3014,-1.5652,-1.6013,-1.6828,-1.818,-1.8763,-1.9256,-1.9692,-1.9692,-1.9687,-1.966,-1.9687,-1.9636,-1.9411,-1.7683,-1.6515,-1.5632,-1.3946,-1.268,-1.1643,0.0,0.0,0.0,0.0,0.0,0.0,0.0,0.0,0.0,0.0,0.0,0.0,0.0,0.0,0.0,0.0,0.0,0.0,0.0,0.0,0.0,0.0,0.0,0.0,0.0,0.0,0.0,0.0,0.0,0.0,0.0,0.0,0.0,0.0,0.0,-1.3588,-1.3636,-1.5189,-1.5882,-1.5138,-1.5627,-1.635,-1.7087,-1.7561,-1.8168,-1.9091,-1.9038,-1.8521,-1.7374,-1.656,-1.5792,-1.4952,-1.4566,-1.4418,-1.4418,-1.4418,-1.4358,-1.4298,-1.4298,-1.4298,-1.4298,-1.4298,-1.4165,-1.3954,-1.3954,-1.3882,-1.3767,-1.3682,-1.3701,-1.3791,-1.3912,-1.3876,-1.3779,-0.3315,-0.3425,-0.3764,-0.4514,-0.5088,-0.572,-0.6522,-0.7085,-0.7587,-0.8122,-0.8162,-0.8613,-0.9933,-1.0115,-1.0462,-1.1253,-1.1378,-1.1512,-1.179,-1.1176,-1.0931,-1.1205,-1.2898,-1.4479,-1.5806,-1.8076,-1.9585,-2.0319,-2.0983,-2.1308,-2.1308,-2.1308,-2.1119,-2.0827,-2.115,-2.1119,-2.0794,-2.0395,-1.9361,-1.7906,-1.6731,-1.5659,-1.4612,0.0,0.0,0.0,0.0,0.0,0.0,0.0,0.0,0.0,0.0,0.0,0.0,0.0,0.0,0.0,0.0,0.0,0.0,0.0,0.0,0.0,0.0,0.0,0.0,0.0,0.0,0.0,0.0,0.0,0.0,0.0,0.0,0.0,-1.2403,-1.4055,-1.5273,-1.4924,-1.6895,-1.7928,-1.7189,-1.8699,-1.9636,-1.932,-1.9714,-1.9943,-1.9943,-1.9011,-1.8237,-1.781,-1.6199,-1.5154,-1.4696,-1.4993,-1.5083,-1.5083,-1.5083,-1.479,-1.4298,-1.4298,-1.4298,-1.4298,-1.4298,-1.4298,-1.4298,-1.4298,-1.4298,-1.4268,-1.4014,-1.387,-1.3839,-1.4171,-1.4298,-1.4298,-0.3511,-0.393,-0.4566,-0.5404,-0.6062,-0.6762,-0.7566,-0.7679,-0.7708,-0.7758,-0.8394,-0.9002,-0.9469,-1.0255,-1.1002,-1.1623,-1.149,-1.1579,-1.2003,-1.1398,-1.1893,-1.3838,-1.5845,-1.7543,-1.9014,-1.967,-2.0348,-2.1032,-2.121,-2.1308,-2.1308,-2.1308,-2.1245,-2.1182,-2.1276,-2.1245,-2.115,-2.1039,-2.075,-2.0206,-1.8297,-1.7132,-1.6442,0.0,0.0,0.0,0.0,0.0,0.0,0.0,0.0,0.0,0.0,0.0,0.0,0.0,0.0,0.0,0.0,0.0,0.0,0.0,0.0,0.0,0.0,0.0,0.0,0.0,0.0,0.0,0.0,0.0,0.0,0.0,-1.5538,-1.6351,-1.4804,-1.6101,-1.7514,-1.8169,-1.9107,-1.964,-1.9386,-1.9808,-2.0003,-1.976,-2.0127,-2.0356,-2.0356,-2.0359,-2.0033,-1.925,-1.8442,-1.7048,-1.5084,-1.5398,-1.5458,-1.5083,-1.4694,-1.4394,-1.4298,-1.4298,-1.4298,-1.4298,-1.4298,-1.4298,-1.4298,-1.4298,-1.4298,-1.4292,-1.422,-1.4177,-1.4165,-1.4262,-1.4298,-1.4298,-0.3648,-0.4222,-0.5003,-0.5829,-0.6515,-0.7223,-0.8057,-0.8041,-0.796,-0.8091,-0.8859,-0.9538,-0.9889,-1.0864,-1.1637,-1.206,-1.203,-1.2097,-1.2372,-1.2629,-1.3684,-1.5782,-1.779,-1.9361,-2.0488,-2.0933,-2.1325,-2.1721,-2.1751,-2.1751,-2.1721,-2.1781,-2.1705,-2.1524,-2.1691,-2.1691,-2.1493,-2.1493,-2.1493,-2.1383,-1.9964,-1.9012,-1.8392,-1.7181,-1.5906,-1.4614,-1.3544,-1.2537,-1.159,-1.0898,0.0,0.0,0.0,0.0,0.0,0.0,0.0,0.0,0.0,0.0,0.0,0.0,0.0,0.0,0.0,0.0,0.0,0.0,0.0,0.0,0.0,0.0,0.0,0.0,-1.837,-1.9527,-1.891,-1.9277,-1.9848,-2.0178,-2.0701,-2.0899,-2.0822,-2.0768,-2.0677,-2.0329,-2.0467,-2.067,-2.0759,-2.0824,-2.0575,-2.0004,-1.9525,-1.8499,-1.6755,-1.6448,-1.6103,-1.5825,-1.5064,-1.4592,-1.4496,-1.4496,-1.4394,-1.4298,-1.4298,-1.4298,-1.4298,-1.4298,-1.4298,-1.4298,0.0,0.0,0.0,0.0,-1.4298,-1.4298,-0.3836,-0.4549,-0.5383,-0.6104,-0.6756,-0.7422,-0.8198,-0.8218,-0.8284,-0.8663,0.0,-1.0073,-1.0677,-1.1566,-1.2231,-1.2518,-1.2777,-1.3027,-1.3228,-1.4607,-1.605,-1.7404,-1.9135,-2.036,-2.0961,-2.1872,-2.231,-2.231,-2.2394,-2.2394,-2.2338,-2.2432,-2.2276,-2.1869,-2.2248,-2.222,-2.1886,-2.1886,-2.1886,-2.1857,-2.1524,-2.0975,-2.0206,-1.928,-1.8346,-1.7346,-1.6043,-1.4986,-1.3998,-1.2784,0.0,0.0,0.0,0.0,0.0,0.0,0.0,0.0,0.0,0.0,0.0,0.0,0.0,0.0,0.0,0.0,0.0,0.0,0.0,0.0,0.0,0.0,0.0,0.0,-2.0603,-2.2476,-2.342,-2.2878,-2.2211,-2.16,-2.1967,-2.202,-2.1632,-2.1588,-2.1339,-2.0773,-2.0857,-2.0902,-2.1089,0.0,0.0,0.0,0.0,-1.9673,-1.9028,-1.7785,-1.703,-1.6936,-1.5737,-1.4987,-1.479,-1.4783,-1.4592,-1.4298,-1.449,-1.4484,-1.4298,-1.4394,-1.4394,-1.4298,-1.4298,-1.4298,-1.4298,-1.4298,-1.4298,-1.4298,-0.4698,-0.5742,-0.6763,-0.7016,-0.77,-0.8261,-0.8443,-0.8434,-0.8382,-0.8251,-0.939,-1.0245,-1.0318,-1.153,-1.2439,-1.2735,-1.3368,-1.4364,0.0,0.0,-1.8121,-1.9627,-2.0594,-2.1402,-2.2084,-2.2337,-2.2432,-2.2394,-2.246,-2.2487,-2.246,-2.2487,-2.246,-2.236,-2.246,-2.2432,-2.236,-2.2321,-2.2276,-2.2248,-2.2135,-2.1691,-2.1039,-2.0575,-1.9699,-1.8687,-1.813,-1.7329,-1.6415,-1.5688,-1.5015,-1.4215,-1.2469,0.0,0.0,0.0,0.0,0.0,0.0,0.0,0.0,0.0,0.0,0.0,0.0,0.0,0.0,0.0,0.0,0.0,0.0,0.0,0.0,-2.0552,-2.2586,-2.4153,-2.4515,-2.4808,-2.4602,-2.3863,-2.3881,-2.3387,-2.2129,-2.2251,-2.1833,-2.0464,-2.0969,-2.1284,-2.1108,-2.1355,-2.1624,-2.1907,-2.1545,-2.1077,-2.0534,-1.9116,-1.8056,-1.7232,-1.5737,0.0,-1.4987,-1.5159,-1.4867,-1.4394,-1.5629,-1.5439,-1.4394,-1.4962,-1.4867,-1.4298,-1.4298,-1.4298,-1.4298,-1.4298,-1.4298,-1.4298,-0.615,-0.679,-0.7339,-0.7481,-0.8067,-0.8522,-0.8595,-0.8547,-0.8476,-0.8364,-0.9286,-0.9937,-0.989,-1.0945,-1.171,-1.1843,-1.3004,0.0,0.0,-1.808,-1.9517,-2.1138,-2.1947,-2.2474,-2.2798,-2.2824,-2.2824,-2.2798,-2.2875,-2.2875,-2.2849,-2.2925,-2.29,-2.2849,-2.2875,-2.2875,-2.2849,-2.2798,-2.2798,-2.2773,-2.2581,-2.2303,-2.196,-2.1477,-2.0735,-1.9884,-1.9516,-1.8945,-1.8229,-1.7412,-1.6811,-1.6149,-1.4716,-1.3664,-1.2668,0.0,0.0,0.0,0.0,0.0,0.0,0.0,0.0,0.0,0.0,0.0,0.0,0.0,0.0,-1.6723,-1.7146,0.0,-2.1791,-2.2769,-2.4241,-2.5445,-2.5851,-2.5894,-2.5459,-2.4546,-2.381,-2.3187,-2.2631,-2.2231,-2.1693,-2.1015,-2.141,-2.1649,-2.1695,-2.1731,-2.1915,-2.2318,-2.1942,-2.1563,-2.1298,-2.0169,-1.9338,-1.8796,-1.7584,-1.6756,-1.6386,-1.6473,-1.619,-1.5534,-1.6298,-1.6204,-1.5439,-1.5825,-1.5534,-1.4867,-1.4867,-1.458,-1.4298,-1.4298,-1.4298,-1.4298,-0.7328,-0.7616,-0.7801,-0.7883,-0.8281,-0.8648,-0.8761,-0.8691,-0.8632,-0.8689,-0.932,-0.9735,-0.9719,-1.0486,-1.1138,0.0,0.0,0.0,0.0,-1.9026,-2.0565,-2.2233,-2.2939,-2.33,-2.3212,-2.3212,-2.3212,-2.3212,-2.33,-2.33,-2.3236,-2.3346,-2.3346,-2.3236,-2.33,-2.33,-2.3236,-2.3212,-2.3212,-2.3189,-2.2873,-2.2721,-2.2643,-2.2113,-2.154,-2.0942,-2.0548,-2.0062,-1.9441,-1.8655,-1.8014,-1.7379,-1.6542,-1.5556,-1.4533,-1.3595,-1.2724,0.0,0.0,0.0,0.0,0.0,0.0,0.0,0.0,0.0,-1.6325,-1.6987,-1.8736,-2.0145,-2.01,-2.227,-2.4206,-2.4602,-2.548,-2.625,-2.6707,-2.6382,-2.5722,-2.4847,-2.3764,-2.3144,-2.3217,-2.2371,-2.1824,-2.1864,-2.1988,-2.2058,-2.2272,-2.1906,-2.1887,-2.2199,-2.1906,-2.1741,-2.1741,-2.0808,-2.0339,-2.0257,-1.9247,-1.8419,-1.787,-1.7878,-1.7412,-1.677,-1.6676,-1.6588,-1.6588,-1.6588,-1.6015,-1.5242,-1.5337,-1.4962,-1.4298,-1.4298,-1.4298,-1.4298,-0.7221,-0.8095,-0.8704,-0.8593,-0.8795,-0.8976,-0.9054,-0.9036,-0.9047,-0.905,-0.978,-1.0267,-1.0157,-1.0917,-1.2004,0.0,0.0,0.0,-1.9049,-2.0153,-2.1374,-2.2933,-2.3236,-2.3369,-2.33,-2.3346,-2.3346,-2.33,-2.3369,-2.3392,-2.3392,-2.3392,-2.3392,-2.3392,-2.3392,-2.3392,-2.3369,-2.3305,-2.33,-2.3259,-2.3,-2.2807,-2.2669,-2.2426,-2.2061,-2.1631,-2.1308,-2.056,-1.9782,-1.9767,-1.9141,-1.8276,-1.7835,-1.7323,-1.682,-1.6084,0.0,-1.4276,-1.4731,-1.4537,-1.4768,-1.6973,-1.6701,-1.6777,0.0,0.0,-2.0872,-2.191,-2.3132,-2.3946,-2.3881,-2.4546,-2.5155,-2.5216,-2.5709,-2.6117,-2.6178,-2.6142,-2.6044,-2.5946,-2.5751,-2.5124,-2.3656,-2.3781,-2.3429,-2.2225,-2.2524,-2.2511,-2.2162,-2.2124,-2.1937,-2.1805,-2.1759,-2.1741,-2.1741,-2.0808,-2.0339,-2.0257,-1.9047,-1.8395,-1.8311,-1.8326,-1.7956,-1.721,-1.6763,-1.6588,-1.6588,-1.6588,-1.573,-1.4484,-1.5146,-1.4962,-1.4298,-1.4298,-1.4298,-1.4298,-0.8074,-0.8623,-0.8919,-0.8992,-0.906,-0.9136,-0.9152,-0.9199,-0.9218,-0.9228,-0.9529,-0.9751,-0.9749,-1.0051,-1.0908,-1.2476,-1.3605,-1.5608,-1.8886,-2.0312,-2.1782,-2.3419,-2.3732,-2.3837,-2.3816,-2.3837,-2.3837,-2.3816,-2.3837,-2.3876,-2.3876,-2.3876,-2.3876,-2.3876,-2.3876,-2.3876,-2.3858,-2.3855,-2.3816,-2.3795,-2.345,-2.3183,-2.2947,-2.2677,-2.2116,-2.1396,-2.1065,-2.0559,0.0,0.0,-1.8902,-1.8448,-1.7907,-1.7388,-1.692,-1.6855,-1.6478,0.0,-1.8115,-1.8745,-1.9108,0.0,-2.0605,-2.1442,-2.2525,-2.3237,-2.389,-2.4607,-2.5646,-2.6289,-2.5538,-2.5889,-2.625,0.0,-2.6166,-2.6093,-2.6093,-2.6093,-2.5985,-2.5673,-2.5913,-2.5526,-2.4061,-2.3726,-2.3279,-2.2573,-2.2522,-2.2441,-2.2097,-2.1919,-2.183,-2.1741,-2.1741,-2.1741,-2.1741,-2.15,-2.1416,-2.1425,-2.1177,-2.0908,-2.0619,-2.0636,-2.0165,-1.9225,-1.8755,-1.8563,-1.8563,-1.8563,-1.7592,-1.6235,-1.6528,-1.5745,-1.4521,-1.4358,-1.4298,-1.4298,-0.8746,-0.894,-0.8997,-0.9284,-0.9329,-0.9287,-0.9259,-0.9304,-0.9359,-0.9403,-0.9412,-0.9439,-0.9475,-0.9483,-1.0023,-1.1362,-1.2771,-1.4902,-1.8002,-1.9704,-2.1452,-2.3397,-2.3725,-2.3969,-2.419,-2.419,-2.419,-2.419,-2.419,-2.419,-2.419,-2.419,-2.419,-2.419,-2.419,-2.419,-2.419,-2.419,-2.419,-2.417,-2.3795,-2.3522,-2.33,-2.2892,-2.2177,-2.1301,-2.0971,-2.024,0.0,0.0,-1.8381,-1.8111,-1.7792,-1.7456,-1.7288,-1.7951,-1.8272,-1.8753,-2.0473,0.0,0.0,-2.2443,-2.363,-2.4737,-2.4738,-2.5668,-2.6542,-2.6747,-2.7403,-2.7733,-2.6736,-2.6755,-2.6875,-2.6731,-2.6358,-2.6045,-2.5901,-2.6009,-2.5901,-2.5372,-2.5769,-2.5636,-2.447,-2.3769,-2.3381,-2.3408,-2.2892,-2.253,-2.2608,-2.2087,-2.1741,-2.1741,-2.1841,-2.1896,-2.1896,-2.2291,-2.2502,-2.2502,-2.2711,-2.2762,-2.2366,-2.2271,-2.1605,-2.0669,-2.0265,-1.9868,-1.9568,-1.9771,-1.8973,-1.7498,-1.7498,-1.658,-1.519,-1.4979,-1.4618,-1.4298,-0.884,-0.8957,-0.9071,-0.9591,-0.9631,-0.9538,-0.9411,-0.9446,-0.9549,-0.9665,-0.9691,-0.9691,-0.9691,-0.9691,-1.0013,-1.0848,-1.2213,-1.4059,-1.652,-1.8169,-2.0138,-2.2526,-2.2903,-2.34,-2.4171,-2.419,-2.419,-2.419,-2.419,-2.419,-2.419,-2.419,-2.419,-2.419,-2.419,-2.419,-2.419,-2.419,-2.419,-2.417,-2.3896,-2.3753,-2.3628,-2.3116,-2.2404,-2.1635,-2.1318,0.0,0.0,0.0,-1.7804,-1.7145,-1.7701,-1.8102,0.0,-2.0143,-2.0864,0.0,0.0,0.0,-2.1686,-2.4731,-2.5238,-2.5439,-2.7203,-2.8519,-2.9188,-2.8563,-2.8515,-2.8356,-2.7803,-2.7272,-2.6755,-2.6214,-2.6105,-2.5913,-2.5408,-2.5769,-2.5901,-2.5372,-2.5769,-2.5716,-2.49,-2.4426,-2.4357,-2.4854,-2.3569,-2.3047,-2.3714,-2.2696,-2.2008,-2.1741,-2.2107,-2.2309,-2.2309,-2.2722,-2.2838,-2.2838,-2.2857,-2.2857,-2.2857,-2.2366,-2.1605,-2.0669,-2.0669,-1.9965,-1.8784,-1.9568,-1.8973,-1.7584,-1.7498,-1.7,-1.6393,-1.638,-1.543,-1.4298,-0.9044,-0.9214,-0.9322,-0.9654,-0.9674,-0.9649,-0.9601,-0.9617,-0.9649,-0.9698,-0.9698,0.0,0.0,0.0,0.0,0.0,-1.1706,-1.3202,-1.5569,-1.7287,-1.9035,-2.0933,-2.2282,-2.3144,-2.34,-2.3933,-2.419,-2.419,-2.419,-2.419,-2.419,-2.419,-2.419,-2.419,-2.419,-2.419,-2.419,-2.419,-2.419,-2.419,-2.4036,-2.3876,-2.3671,-2.3432,-2.2114,-2.0346,0.0,0.0,0.0,0.0,-1.6564,-1.6764,-1.6613,0.0,0.0,-2.0257,0.0,-2.2147,0.0,0.0,-2.6594,-2.6817,-2.8383,-2.9812,-2.9545,-2.9524,-2.9363,-2.8743,-2.8045,-2.7229,-2.6287,-2.5973,-2.5793,-2.5612,-2.5576,-2.5516,-2.5336,-2.6081,-2.6322,-2.542,-2.6418,0.0,-2.5787,-2.5038,0.0,-2.4962,-2.3856,-2.3403,-2.3943,-2.3034,-2.2497,-2.2407,-2.2621,-2.274,-2.274,-2.3143,-2.3345,-2.3249,-2.362,-2.3749,-2.3749,-2.3144,-2.2742,-2.2356,-2.1661,-2.1062,-2.0652,-2.0567,-1.9953,-1.903,-1.8935,-1.8389,-1.7482,-1.7482,-1.7027,-1.6491,-0.9259,-0.9385,-0.9461,-0.9668,-0.9706,0.0,0.0,0.0,0.0,0.0,0.0,0.0,0.0,0.0,0.0,0.0,0.0,-1.2242,-1.4059,-1.5759,-1.741,-1.905,-2.0567,-2.148,-2.1775,-2.2291,-2.2715,-2.301,-2.301,-2.3175,-2.347,-2.3766,-2.3913,-2.3914,-2.4155,-2.4266,-2.4284,-2.4228,-2.419,-2.4171,-2.384,-2.3596,-2.3365,-2.2625,-2.1155,0.0,0.0,0.0,0.0,-1.5592,0.0,0.0,0.0,0.0,0.0,0.0,-2.2113,-2.3409,-2.5272,-2.7067,-2.8472,-2.8795,-3.0144,-3.1185,-3.0542,-3.0137,-2.9605,-2.8389,-2.7075,-2.5834,-2.4703,-2.4326,-2.4326,-2.4699,-2.5071,-2.5372,-2.5564,-2.6526,-2.6887,-2.5997,-2.6971,-2.7368,0.0,0.0,0.0,-2.5939,-2.4522,-2.3985,-2.4771,-2.3514,-2.2758,-2.2907,-2.3036,-2.3067,-2.3067,-2.3556,-2.3758,-2.3767,-2.4024,-2.4152,-2.4152,-2.3845,-2.3538,-2.3229,-2.2526,-2.2021,-2.1623,-2.1326,-2.0814,-2.0094,-1.9783,-1.9229,-1.8628,-1.8628,-1.8498,-1.829,-0.9481,-0.9461,-0.9468,0.0,0.0,0.0,0.0,0.0,0.0,0.0,0.0,0.0,0.0,0.0,0.0,0.0,0.0,0.0,-1.2086,-1.3671,0.0,-1.7004,-1.7893,-1.8715,-1.9537,-1.9574,-2.0017,-2.0835,-2.0835,-2.1223,-2.2,-2.282,-2.3214,-2.3251,-2.3934,-2.4221,-2.4222,-2.4137,-2.4062,-2.3952,-2.318,-2.285,-2.2612,-2.0771,0.0,0.0,0.0,0.0,0.0,0.0,0.0,0.0,0.0,0.0,0.0,0.0,0.0,-2.5072,-2.7657,-2.7664,-2.7625,-3.0609,-3.0474,-2.9739,-3.0283,-3.0338,-2.9671,-2.7449,-2.5661,-2.4124,-2.2998,0.0,-2.2585,-2.3532,-2.4626,-2.5528,-2.6021,-2.7031,-2.7524,0.0,0.0,0.0,0.0,0.0,0.0,-2.7765,0.0,-2.475,-2.6066,-2.3959,-2.2935,-2.3317,-2.345,-2.3574,-2.3574,-2.396,-2.4152,-2.4152,-2.4152,-2.4152,-2.4152,-2.4152,-2.3845,-2.3329,-2.3329,-2.2728,-2.1827,-2.1725,-2.142,-2.0917,-2.0094,-1.9783,-1.9783,-1.9783,-1.9783,-1.9583,0.0,0.0,0.0,0.0,0.0,0.0,0.0,0.0,0.0,0.0,0.0,0.0,0.0,0.0,0.0,0.0,0.0,0.0,-1.1184,0.0,0.0,0.0,0.0,0.0,-1.8764,-1.9376,0.0,0.0,0.0,-2.0118,-2.0324,-2.0479,-2.0573,-2.061,-2.1423,-2.1782,-2.1838,-2.2402,-2.2232,-2.1565,0.0,-2.0855,-2.0189,0.0,0.0,0.0,0.0,0.0,0.0,0.0,0.0,0.0,0.0,0.0,-2.3258,0.0,0.0,-2.7535,-2.7767,-2.9349,-3.0939,-3.0729,-3.0807,-3.0915,-3.0501,-2.8851,-2.6959,-2.5612,-2.3389,-2.1292,-2.0234,-2.1541,0.0,-2.2609,-2.4774,0.0,-2.6154,-2.7031,0.0,-2.6995,0.0,-2.8102,-2.7572,-2.7885,0.0,0.0,-2.664,-2.5615,-2.6346,-2.4824,-2.3956,-2.406,-2.4078,-2.3996,-2.3996,-2.4106,-2.4152,-2.4152,-2.4152,-2.4152,-2.4152,-2.4152,-2.4152,-2.3945,-2.3538,-2.3129,-2.2828,-2.2426,-2.203,-2.1522,-2.1318,-2.0909,-2.0609,-2.0609,-2.0609,-2.0585,0.0,0.0,0.0,0.0,0.0,0.0,0.0,0.0,0.0,0.0,0.0,0.0,0.0,0.0,0.0,0.0,0.0,0.0,0.0,0.0,0.0,0.0,0.0,-1.5403,-1.5903,-1.6735,0.0,0.0,0.0,0.0,0.0,-1.8966,-1.9287,-1.9325,-2.0106,-2.0446,-2.0502,-2.0889,0.0,0.0,0.0,0.0,0.0,0.0,0.0,0.0,0.0,0.0,0.0,0.0,0.0,-2.1704,-2.3996,-2.4656,-2.5013,-2.6977,0.0,-2.8821,-2.9871,-3.1065,-3.1886,-3.1081,-3.0768,-3.0261,-2.8794,-2.7043,-2.5153,-2.2894,-2.0986,0.0,-1.7845,-1.9409,0.0,0.0,0.0,0.0,-2.6334,-2.7188,-2.7705,0.0,-2.815,0.0,-2.8426,-2.8679,-2.9076,0.0,-2.7793,-2.7048,-2.7752,-2.6064,-2.5146,-2.5236,-2.4604,-2.4251,-2.4152,-2.4152,-2.4152,-2.4152,-2.4152,-2.4152,-2.4152,-2.4152,-2.4152,-2.4152,-2.3845,-2.3538,-2.3329,-2.3029,-2.2526,-2.203,-2.1827,-2.1522,-2.1224,-2.1027,-2.0925,-2.0925,0.0,0.0,0.0,0.0,0.0,0.0,0.0,0.0,0.0,0.0,0.0,0.0,0.0,0.0,0.0,0.0,0.0,0.0,0.0,0.0,0.0,0.0,0.0,0.0,0.0,0.0,0.0,0.0,0.0,0.0,0.0,0.0,0.0,0.0,0.0,0.0,0.0,0.0,0.0,0.0,0.0,0.0,0.0,0.0,0.0,0.0,0.0,0.0,0.0,0.0,-2.2094,-2.3447,-2.5639,-2.6387,-2.6928,-2.9339,-2.9637,-2.9726,-3.257,-3.2509,-3.1632,-3.1521,-3.0354,-2.8675,-2.654,-2.5279,-2.3559,-2.0099,0.0,-1.7749,-1.6025,-1.7074,-1.8742,-2.0354,0.0,-2.4575,-2.6635,-2.7392,-2.7921,-2.845,-2.857,-2.8799,-2.9256,-2.9364,-2.9629,-3.0158,-2.9068,-2.8688,-2.9366,-2.7409,-2.6243,-2.6127,-2.5109,-2.444,-2.4152,-2.4152,-2.4152,-2.4152,-2.4152,-2.4152,-2.4152,-2.4152,-2.4152,-2.4152,-2.4152,-2.3945,-2.3429,-2.3429,-2.3129,-2.2526,-2.2021,-2.1725,-2.1623,-2.1121,-2.0925,-2.0925,0.0,0.0,0.0,0.0,0.0,0.0,0.0,0.0,0.0,0.0,0.0,0.0,0.0,0.0,0.0,0.0,0.0,0.0,0.0,0.0,0.0,0.0,0.0,0.0,0.0,0.0,0.0,0.0,0.0,0.0,0.0,0.0,0.0,0.0,0.0,0.0,0.0,0.0,0.0,0.0,0.0,0.0,0.0,0.0,0.0,0.0,0.0,0.0,0.0,0.0,-2.406,-2.5786,-2.7457,-2.8578,-2.9638,-3.1494,-3.1931,-3.1985,-3.2795,-3.268,-3.2199,-3.1562,-2.9725,-2.7841,-2.6849,-2.3995,0.0,0.0,-1.7346,-1.5856,-1.5235,-1.6839,-1.8747,-2.035,0.0,0.0,0.0,0.0,-2.7921,0.0,0.0,0.0,-2.9292,-2.9689,0.0,0.0,-3.0565,-3.0135,-2.9412,-2.7708,-2.6078,-2.4913,-2.4627,-2.444,-2.4152,-2.4152,-2.4152,-2.4152,-2.4152,-2.4152,-2.4152,-2.4152,-2.4152,-2.4152,-2.4152,0.0,-2.4044,-2.4044,-2.3746,-2.3129,-2.2526,-2.2123,-2.1623,-2.1121,-2.0925,-2.0925,0.0,0.0,0.0,0.0,0.0,0.0,0.0,0.0,0.0,0.0,0.0,0.0,0.0,0.0,0.0,0.0,0.0,0.0,0.0,0.0,0.0,0.0,0.0,0.0,0.0,0.0,0.0,0.0,0.0,0.0,0.0,0.0,0.0,0.0,0.0,0.0,0.0,0.0,0.0,0.0,0.0,0.0,0.0,0.0,0.0,0.0,0.0,0.0,0.0,0.0,-2.301,-2.5316,-2.7661,-2.9166,-3.0393,-3.1891,-3.2208,-3.2212,-3.3076,-3.2865,-3.2176,-3.1216,-2.9362,-2.7314,-2.5381,0.0,0.0,0.0,-1.6092,-1.5051,-1.399,0.0,0.0,0.0,0.0,0.0,0.0,0.0,0.0,0.0,0.0,0.0,0.0,-3.0194,-3.0723,-3.1252,-3.1288,-3.1101,-3.0637,-2.9215,-2.7284,-2.503,-2.5197,-2.5001,-2.4341,-2.4251,-2.4152,-2.4152,-2.4152,-2.4152,-2.4152,-2.4152,-2.4152,-2.4152,-2.4152,-2.4152,-2.4152,-2.4152,-2.4053,-2.3637,-2.2828,-2.2325,-2.2021,-2.1224,-2.0925,-2.0925,0.0,0.0,0.0,0.0,0.0,0.0,0.0,0.0,0.0,0.0,0.0,0.0,0.0,0.0,0.0,0.0,0.0,0.0,0.0,0.0,0.0,0.0,0.0,0.0,0.0,0.0,0.0,0.0,0.0,0.0,0.0,0.0,0.0,0.0,0.0,0.0,0.0,0.0,0.0,0.0,0.0,0.0,0.0,0.0,0.0,0.0,0.0,0.0,0.0,0.0,-2.1138,-2.3323,-2.6264,-2.8401,-3.0055,-3.138,-3.1614,-3.1748,-3.3146,-3.2869,-3.1921,-3.0807,-2.8956,-2.6648,-2.3859,-2.1192,0.0,0.0,-1.5054,-1.4422,-1.3119,0.0,-1.6137,0.0,-1.8374,0.0,0.0,0.0,0.0,0.0,0.0,0.0,-3.005,-3.0675,0.0,-3.1637,-3.1661,-3.1572,-3.1383,-3.0453,-2.8598,-2.5713,-2.5964,-2.5664,-2.4637,-2.4341,-2.4251,-2.4251,-2.4251,-2.4152,-2.4152,-2.4152,-2.4152,-2.4152,-2.4152,-2.4152,-2.4152,-2.4152,-2.4152,-2.4053,-2.3038,-2.2627,-2.2526,-2.1428,-2.1121,-2.1019,0.0,0.0,0.0,0.0,0.0,0.0,0.0,0.0,0.0,0.0,0.0,0.0,0.0,0.0,0.0,0.0,0.0,0.0,0.0,0.0,0.0,0.0,0.0,0.0,0.0,0.0,0.0,0.0,0.0,0.0,0.0,0.0,0.0,0.0,0.0,0.0,0.0,0.0,0.0,0.0,0.0,0.0,0.0,0.0,0.0,0.0,0.0,0.0,0.0,0.0,0.0,-2.0119,-2.2488,-2.5687,-2.88,-2.9947,0.0,0.0,-3.2504,-3.2221,-3.1422,-3.0703,-2.8297,-2.5652,-2.3671,0.0,0.0,-1.5685,-1.44,-1.3623,-1.3459,-1.3626,-1.4578,0.0,0.0,-2.0165,0.0,0.0,0.0,0.0,0.0,0.0,-3.0086,-3.0999,-3.1613,-3.1661,-3.1661,-3.1294,-3.0362,-3.026,-2.905,-2.6733,-2.6733,-2.6167,-2.4833,-2.4637,-2.444,-2.444,-2.4251,-2.4152,-2.4152,-2.4152,-2.4152,-2.4152,-2.4152,-2.4152,0.0,-2.4152,-2.4152,-2.4152,-2.3438,-2.3229,-2.3129,-2.2021,-2.1623,-2.1522,0.0,0.0,0.0,0.0,0.0,0.0,0.0,0.0,0.0,0.0,0.0,0.0,0.0,0.0,0.0,0.0,0.0,0.0,0.0,0.0,0.0,0.0,0.0,0.0,0.0,0.0,0.0,0.0,0.0,0.0,0.0,0.0,0.0,0.0,0.0,0.0,0.0,0.0,0.0,0.0,0.0,0.0,0.0,0.0,0.0,0.0,0.0,0.0,0.0,0.0,0.0,0.0,-1.9711,-2.1987,0.0,0.0,-2.8585,-3.0116,-3.1612,-3.1744,-3.1261,-3.0674,-2.8527,-2.5853,-2.3262,0.0,-1.7424,-1.5659,-1.4323,-1.342,-1.3083,-1.3288,-1.3951,-1.5326,-1.6137,-1.7616,-2.049,0.0,0.0,0.0,0.0,0.0,0.0,0.0,-3.1661,-3.1661,-3.1661,-3.1572,-3.1104,-3.1104,-2.9886,-2.7094,-2.7484,-2.6924,-2.5137,-2.4833,-2.4637,-2.4529,-2.444,-2.4341,-2.4152,-2.4152,-2.4152,-2.4152,-2.4152,-2.4152,0.0,-2.4152,-2.4152,-2.4152,-2.3538,-2.3329,-2.3229,-2.2426,-2.2224,-2.2123,0.0,0.0,0.0,0.0,0.0,0.0,0.0,0.0,0.0,0.0,0.0,0.0,0.0,0.0,0.0,0.0,0.0,0.0,0.0,0.0,0.0,0.0,0.0,0.0,0.0,0.0,0.0,0.0,0.0,0.0,0.0,0.0,0.0,0.0,0.0,0.0,0.0,0.0,0.0,0.0,0.0,0.0,0.0,0.0,0.0,0.0,0.0,0.0,0.0,0.0,0.0,0.0,0.0,0.0,0.0,0.0,-2.6324,-2.8313,-2.9943,-3.0319,-3.01,-2.9813,-2.7783,-2.516,0.0,-1.9696,-1.7076,-1.5594,-1.4287,-1.3254,-1.278,-1.3143,-1.3674,-1.4205,-1.5091,-1.6524,-1.8891,-2.055,0.0,0.0,0.0,-2.8691,0.0,-3.0951,-3.1661,-3.1661,-3.1661,-3.1661,-3.1661,-3.1661,-3.0633,-2.8121,-2.8588,-2.8038,-2.636,-2.579,-2.5304,-2.5099,-2.4726,-2.444,-2.4152,-2.4152,-2.4152,-2.4152,-2.4152,-2.4152,0.0,-2.4152,-2.4152,-2.4152,-2.3737,-2.3538,-2.3538,-2.2929,-2.2728,-2.2728,0.0,0.0,0.0,0.0,0.0,0.0,0.0,0.0,0.0,0.0,0.0,0.0,0.0,0.0,0.0,0.0,0.0,0.0,0.0,0.0,0.0,0.0,0.0,0.0,0.0,0.0,0.0,0.0,0.0,0.0,0.0,0.0,0.0,0.0,0.0,0.0,0.0,0.0,0.0,0.0,0.0,0.0,0.0,0.0,0.0,0.0,0.0,0.0,0.0,0.0,0.0,0.0,0.0,0.0,-1.8454,0.0,-2.3956,-2.5818,-2.7188,-2.761,-2.7639,-2.7719,-2.5455,-2.2943,0.0,-1.8943,-1.6374,-1.5465,-1.412,-1.3037,-1.2745,-1.3143,-1.3674,-1.4205,-1.6017,-1.7953,-1.954,-2.2115,0.0,0.0,0.0,-2.815,-2.9208,-3.0735,-3.1661,-3.1661,-3.1661,0.0,-3.1661,-3.1661,-3.1193,-3.017,-3.017,-2.9704,-2.868,-2.7379,-2.6638,-2.633,-2.5099,-2.444,-2.4152,-2.4152,-2.4152,-2.4152,-2.4152,-2.4152,0.0,-2.4152,-2.4152,-2.4152,-2.4152,-2.4152,-2.4152,-2.3538,-2.3329,-2.3229,0.0,0.0,0.0,0.0,0.0,0.0,0.0,0.0,0.0,0.0,0.0,0.0,0.0,0.0,0.0,0.0,0.0,0.0,0.0,0.0,0.0,0.0,0.0,0.0,0.0,0.0,0.0,0.0,0.0,0.0,0.0,0.0,0.0,0.0,0.0,0.0,0.0,0.0,0.0,0.0,0.0,0.0,0.0,0.0,0.0,0.0,0.0,0.0,0.0,0.0,0.0,0.0,0.0,0.0,0.0,-1.8522,-2.0888,-2.3467,-2.501,-2.541,-2.5209,-2.4644,-2.3376,-2.1705,-1.95,-1.7773,-1.6255,-1.4935,-1.3841,-1.3037,-1.2745,-1.2842,-1.3602,-1.5548,-1.6438,0.0,0.0,0.0,0.0,0.0,-2.7693,-2.9749,0.0,0.0,-3.1661,-3.1661,-3.1661,-3.1661,-3.1661,-3.1661,-3.1193,-3.026,-3.017,-2.9704,-2.868,-2.8308,-2.7558,-2.6426,-2.5954,-2.5197,-2.4152,-2.4152,-2.4152,-2.4152,-2.4152,-2.4152,-2.4152,-2.4152,-2.4152,-2.4152,-2.4152,-2.4152,-2.4152,-2.3954,-2.3945,-2.3845,0.0,0.0,0.0,0.0,0.0,0.0,0.0,0.0,0.0,0.0,0.0,0.0,0.0,0.0,0.0,0.0,0.0,0.0,0.0,0.0,0.0,0.0,0.0,0.0,0.0,0.0,0.0,0.0,0.0,0.0,0.0,0.0,0.0,0.0,0.0,0.0,0.0,0.0,0.0,0.0,0.0,0.0,-1.3797,0.0,0.0,0.0,0.0,0.0,0.0,0.0,0.0,0.0,0.0,0.0,0.0,0.0,-1.8269,-2.0368,0.0,-2.2909,-2.273,-2.2352,-2.1382,-2.0083,-1.8303,-1.6783,-1.5511,-1.4575,-1.3644,-1.2885,-1.2745,-1.3035,-1.3843,-1.5464,-1.6402,0.0,0.0,0.0,0.0,0.0,0.0,0.0,0.0,-3.1432,-3.1661,-3.1661,-3.1661,-3.1661,-3.1661,-3.1661,-3.1383,-3.0824,-3.0734,-3.0453,-2.9795,-2.9429,-2.868,-2.7369,-2.6999,-2.6061,-2.4637,-2.4637,-2.444,-2.4152,-2.4152,-2.4152,0.0,-2.4152,-2.4152,-2.4152,-2.4152,-2.4152,-2.4152,-2.4152,-2.4152,-2.4152,0.0,0.0,0.0,0.0,0.0,0.0,0.0,0.0,0.0,0.0,0.0,0.0,0.0,0.0,0.0,0.0,0.0,0.0,0.0,0.0,0.0,0.0,0.0,0.0,0.0,0.0,0.0,0.0,-1.4423,-1.5666,-1.7188,0.0,0.0,0.0,0.0,0.0,0.0,0.0,0.0,0.0,0.0,-1.3614,0.0,0.0,0.0,0.0,0.0,0.0,0.0,0.0,0.0,0.0,0.0,0.0,0.0,0.0,0.0,0.0,0.0,-2.0106,-2.0233,-2.0531,-1.9319,-1.8032,-1.7704,-1.5938,0.0,-1.431,-1.343,-1.2745,-1.2854,-1.3626,-1.4337,-1.4639,-1.6293,0.0,0.0,0.0,0.0,0.0,-2.8751,0.0,-3.0146,-3.1096,-3.1661,-3.1661,-3.1661,-3.1661,-3.1661,-3.1661,-3.1661,-3.1661,-3.1661,-3.1661,-3.1661,-3.0734,-2.9897,-2.9176,-2.8154,-2.6924,-2.5392,-2.5382,-2.4913,-2.4251,-2.4251,-2.4152,-2.4152,-2.4152,-2.4152,-2.4152,-2.4152,-2.4152,-2.4152,-2.4152,-2.4152,-2.4152,0.0,0.0,0.0,0.0,0.0,0.0,0.0,0.0,0.0,0.0,0.0,0.0,0.0,0.0,0.0,0.0,0.0,0.0,0.0,0.0,0.0,0.0,0.0,0.0,0.0,0.0,0.0,-1.3504,-1.5536,-1.704,-1.8024,-1.8024,0.0,0.0,0.0,0.0,0.0,0.0,0.0,0.0,-1.3887,-1.364,0.0,0.0,0.0,0.0,-1.2817,-1.3152,0.0,0.0,0.0,0.0,0.0,0.0,0.0,0.0,-1.4581,-1.518,-1.6208,0.0,-1.7548,-1.6822,-1.6484,-1.6035,0.0,-1.4598,-1.4197,-1.3544,0.0,-1.3047,-1.4221,-1.4033,-1.4747,-1.8003,0.0,0.0,0.0,0.0,0.0,-2.9325,-2.9749,-3.0266,-3.1204,-3.1517,-3.1661,-3.1661,-3.1661,-3.1661,-3.1661,-3.1661,-3.1661,-3.1661,-3.1661,-3.1661,-3.1661,-3.1472,-3.0734,-2.9624,-2.898,-2.8038,-2.6713,-2.5771,-2.5197,-2.5011,-2.444,-2.4152,-2.4152,-2.4152,-2.4152,-2.4152,-2.4152,-2.4152,-2.4152,-2.4152,-2.4152,-2.4152,0.0,0.0,0.0,0.0,0.0,0.0,0.0,0.0,0.0,0.0,0.0,0.0,0.0,0.0,0.0,0.0,0.0,0.0,0.0,0.0,0.0,0.0,0.0,0.0,0.0,0.0,0.0,0.0,0.0,-1.7356,0.0,0.0,0.0,0.0,0.0,0.0,0.0,0.0,0.0,0.0,-1.2681,0.0,0.0,0.0,0.0,0.0,-1.2379,-1.2714,0.0,-1.3357,-1.3345,-1.3192,0.0,0.0,0.0,0.0,-1.3568,-1.4146,-1.4618,-1.5525,-1.6308,-1.6131,-1.5945,-1.5627,-1.5025,0.0,0.0,0.0,0.0,-1.3521,-1.4323,-1.5039,0.0,0.0,-2.0113,0.0,0.0,0.0,0.0,-3.033,-3.0563,-3.099,0.0,-3.2189,-3.2013,-3.1749,-3.1661,-3.1661,-3.1661,-3.1661,-3.1661,-3.1661,-3.1661,-3.1661,-3.1661,-3.1661,-3.1205,-3.0283,-3.0011,-2.9257,-2.8038,-2.7094,-2.633,-2.5567,-2.5001,-2.4538,-2.4152,-2.4152,-2.4152,-2.4152,-2.4152,-2.4152,-2.4152,-2.4152,-2.4152,-2.4152,0.0,0.0,0.0,0.0,0.0,0.0,0.0,0.0,0.0,0.0,0.0,0.0,0.0,0.0,0.0,0.0,0.0,0.0,0.0,0.0,0.0,0.0,0.0,0.0,0.0,0.0,0.0,0.0,0.0,0.0,0.0,0.0,0.0,0.0,0.0,0.0,0.0,0.0,0.0,0.0,-1.1265,0.0,0.0,0.0,0.0,0.0,0.0,0.0,0.0,-1.289,-1.3074,-1.303,-1.2848,0.0,0.0,0.0,0.0,0.0,-1.4139,-1.5046,-1.598,-1.6702,-1.6398,-1.5994,-1.6126,0.0,0.0,0.0,0.0,0.0,0.0,-1.6384,0.0,0.0,0.0,0.0,0.0,-2.7911,-2.9093,-3.1035,-3.1379,0.0,-3.2732,-3.2907,-3.2612,-3.1925,-3.1837,-3.1837,-3.1673,-3.1661,-3.1661,-3.1661,-3.1661,-3.1661,-3.1661,-3.1661,-3.1484,-3.1038,-3.0949,-3.0385,-2.936,-2.8702,-2.7746,-2.6406,-2.5761,-2.5001,-2.444,-2.4251,-2.4152,-2.4152,-2.4152,-2.4152,-2.4152,-2.4152,-2.4152,-2.4152,0.0,0.0,0.0,0.0,0.0,0.0,0.0,0.0,0.0,0.0,0.0,0.0,0.0,0.0,0.0,0.0,0.0,0.0,0.0,0.0,0.0,0.0,0.0,0.0,0.0,0.0,0.0,0.0,0.0,0.0,-1.8525,-1.9954,-1.8636,0.0,0.0,0.0,0.0,0.0,0.0,-1.0504,0.0,0.0,0.0,0.0,0.0,0.0,0.0,0.0,0.0,-1.2156,-1.2503,-1.2848,-1.2811,0.0,0.0,0.0,0.0,0.0,-1.4813,-1.5771,-1.6301,-1.6332,-1.6326,-1.6298,-1.6267,0.0,0.0,0.0,0.0,0.0,0.0,0.0,0.0,0.0,0.0,-2.7407,0.0,0.0,-3.1483,-3.1985,0.0,-3.3014,-3.3247,-3.3713,-3.3674,-3.2624,-3.2537,-3.2276,-3.1749,-3.1661,-3.1661,-3.1661,-3.1661,-3.1661,-3.1661,-3.1661,-3.1661,-3.1572,-3.1128,-3.0758,-3.0578,-2.9452,-2.8888,-2.8505,-2.6703,-2.5838,-2.5654,-2.4627,-2.4152,-2.4152,-2.4152,-2.4152,-2.4152,-2.4152,-2.4152,-2.4152,0.0,0.0,0.0,0.0,0.0,0.0,0.0,0.0,0.0,0.0,0.0,0.0,0.0,0.0,0.0,0.0,0.0,0.0,0.0,0.0,0.0,0.0,0.0,0.0,0.0,0.0,0.0,0.0,0.0,-1.8416,-1.8841,-1.88,-1.7509,-1.511,0.0,0.0,0.0,0.0,0.0,-0.9792,0.0,0.0,0.0,0.0,0.0,0.0,0.0,0.0,0.0,0.0,-1.1987,-1.2111,-1.2511,0.0,0.0,0.0,0.0,0.0,-1.4239,-1.5337,-1.6292,-1.7279,-1.7892,-1.8176,-1.8009,0.0,0.0,0.0,0.0,0.0,0.0,0.0,0.0,0.0,0.0,-2.9699,-3.1225,-3.1591,-3.1965,0.0,0.0,-3.35,-3.4179,-3.4286,-3.4005,-3.3066,-3.2785,-3.245,-3.1749,-3.1661,-3.1661,-3.1661,-3.1661,-3.1661,-3.1661,-3.1661,-3.1661,-3.1661,-3.1484,-3.1306,-3.1306,-3.0476,-2.9829,-2.9349,-2.7923,-2.6788,-2.5935,-2.5099,-2.4529,-2.4152,-2.4152,-2.4152,-2.4152,-2.4152,-2.4152,-2.4152,0.0,0.0,0.0,0.0,0.0,0.0,0.0,0.0,0.0,0.0,0.0,0.0,0.0,0.0,0.0,0.0,0.0,0.0,0.0,0.0,0.0,0.0,0.0,0.0,0.0,0.0,0.0,-1.5892,-1.761,-1.8746,-1.9286,-1.7923,-1.6483,0.0,0.0,0.0,0.0,0.0,0.0,-0.9187,0.0,0.0,0.0,0.0,0.0,0.0,0.0,0.0,0.0,0.0,0.0,0.0,0.0,0.0,0.0,-1.2514,-1.2514,-1.2749,-1.3966,-1.5152,-1.6458,-1.8305,0.0,-1.9727,-2.0426,0.0,0.0,0.0,0.0,0.0,0.0,-2.4049,0.0,-3.1223,-3.1237,-3.1196,-3.2414,-3.2345,-3.2526,-3.347,-3.3737,-3.4094,-3.4858,-3.4845,-3.4407,-3.3585,-3.3284,-3.2871,-3.2176,-3.2176,-3.2101,-3.1925,-3.1925,-3.1837,-3.1661,-3.1661,-3.1661,-3.1661,-3.1661,-3.1661,-3.1661,-3.1306,-3.0746,-3.0181,-2.9154,-2.8017,-2.6788,-2.5848,-2.5099,-2.4627,-2.435,-2.4152,-2.4152,-2.4152,-2.4152,-2.4152,0.0,0.0,0.0,0.0,0.0,0.0,0.0,0.0,0.0,0.0,0.0,0.0,0.0,0.0,0.0,0.0,0.0,0.0,0.0,0.0,0.0,0.0,0.0,0.0,0.0,-1.4497,-1.5383,-1.6817,-1.8624,-1.9456,-1.9372,-1.8334,-1.6219,-1.3236,0.0,0.0,0.0,0.0,0.0,-0.912,-0.9174,0.0,0.0,0.0,0.0,0.0,0.0,0.0,0.0,0.0,0.0,0.0,0.0,0.0,-1.2514,-1.2514,-1.2514,-1.2957,-1.494,-1.6099,-1.709,-1.851,-1.8891,0.0,-2.3231,-2.2671,0.0,-2.4182,0.0,0.0,0.0,-2.5199,-2.7774,-3.2123,-3.1859,-3.1864,-3.3951,0.0,-3.421,-3.4336,-3.4857,-3.5107,-3.4754,-3.5451,-3.5452,-3.4366,-3.4481,-3.4301,-3.3628,-3.3543,-3.33,-3.2624,-3.2624,-3.2363,-3.1673,-3.1661,-3.1661,-3.1661,-3.1661,-3.1661,-3.1661,-3.1661,-3.1572,-3.1472,-3.0272,-2.9624,-2.9338,-2.6979,-2.5935,-2.5741,-2.4627,-2.4152,-2.4152,-2.4152,-2.4152,-2.4152,0.0,0.0,0.0,0.0,0.0,0.0,0.0,0.0,0.0,0.0,0.0,0.0,0.0,0.0,0.0,0.0,0.0,0.0,0.0,0.0,0.0,0.0,0.0,-1.255,-1.3563,-1.5147,-1.6497,-1.7642,-1.8265,-1.8529,-1.8432,-1.6543,0.0,0.0,0.0,0.0,0.0,0.0,0.0,-0.9867,-0.9342,-0.913,0.0,0.0,0.0,0.0,0.0,0.0,0.0,0.0,-1.0288,-1.0901,0.0,-1.2135,-1.2514,-1.2514,-1.2514,-1.2821,-1.4327,-1.6509,-1.8449,-1.887,-2.037,0.0,0.0,-2.4442,-2.5257,-2.6946,-2.7551,0.0,0.0,0.0,-3.0511,-3.3368,-3.3178,-3.3054,-3.4216,-3.4414,-3.4414,-3.4414,-3.4617,-3.4853,-3.5105,-3.5009,-3.4849,-3.477,-3.4353,-3.4005,-3.37,-3.3713,-3.3543,-3.33,-3.2884,-3.2537,-3.2363,-3.1925,-3.1661,-3.1661,-3.1661,-3.1661,-3.1661,-3.1661,-3.1661,-3.1661,-3.0836,-3.0193,-2.9624,-2.7746,-2.7084,-2.7063,-2.5848,-2.4903,-2.4152,-2.4152,-2.4152,-2.4152,0.0,0.0,0.0,0.0,0.0,0.0,0.0,0.0,0.0,0.0,0.0,0.0,0.0,0.0,0.0,0.0,0.0,0.0,0.0,0.0,0.0,0.0,0.0,-1.2008,-1.2731,-1.4849,-1.6373,-1.7256,-1.7379,-1.7318,-1.7028,0.0,0.0,0.0,0.0,0.0,0.0,0.0,0.0,0.0,-0.9381,-0.9028,0.0,0.0,0.0,0.0,0.0,0.0,0.0,0.0,-0.9778,-1.0239,0.0,0.0,0.0,0.0,-1.2815,-1.3372,-1.4366,-1.6709,-1.905,0.0,0.0,0.0,-2.5507,-2.6185,-2.7113,-2.9421,-2.9914,0.0,0.0,0.0,0.0,0.0,-3.4008,-3.3761,-3.4588,-3.4545,-3.4414,-3.4414,-3.4414,-3.4588,-3.5024,-3.4668,-3.4489,-3.4761,-3.4492,-3.4259,-3.4097,-3.421,-3.4217,-3.405,-3.3556,-3.3129,-3.2711,-3.2276,-3.1925,-3.1661,-3.1661,-3.1661,-3.1661,-3.1661,-3.1661,-3.1661,-3.1306,-3.0836,-3.0272,-2.8888,-2.7945,-2.7358,-2.6512,-2.5382,-2.4251,-2.4251,-2.4242,-2.4152,0.0,0.0,0.0,0.0,0.0,0.0,0.0,0.0,0.0,0.0,0.0,0.0,0.0,0.0,0.0,0.0,0.0,0.0,0.0,0.0,0.0,0.0,0.0,-1.1092,-1.1961,-1.3479,-1.4637,-1.5402,-1.613,-1.6069,-1.5267,-1.4326,0.0,0.0,0.0,0.0,0.0,0.0,0.0,0.0,-0.9253,-0.8919,-0.888,0.0,0.0,0.0,0.0,0.0,0.0,0.0,-0.9401,-0.9638,0.0,0.0,0.0,-1.2293,-1.351,-1.4742,-1.5406,-1.674,-1.8654,0.0,0.0,0.0,-2.9104,-2.7983,-2.7084,-3.1584,0.0,-3.138,-3.3935,-3.2324,0.0,-3.4835,-3.4365,-3.3906,-3.5238,-3.4806,-3.4414,-3.4414,-3.4414,-3.4414,-3.4414,-3.455,-3.4569,-3.4239,-3.4913,-3.5205,-3.4828,-3.5384,-3.5372,-3.4703,-3.4716,-3.405,-3.2711,-3.2711,-3.2363,-3.1749,-3.1661,-3.1661,-3.1661,-3.1661,-3.1661,-3.1661,-3.1661,-3.1661,-3.1572,-3.0362,-2.8495,-2.6426,-2.6426,-2.5664,-2.4529,-2.4529,-2.4341,-2.4152,0.0,0.0,0.0,0.0,0.0,0.0,0.0,0.0,0.0,0.0,0.0,0.0,0.0,0.0,0.0,0.0,0.0,0.0,0.0,0.0,0.0,0.0,0.0,0.0,0.0,0.0,-1.2837,-1.5325,-1.4988,-1.4635,0.0,0.0,0.0,-1.2665,0.0,0.0,0.0,0.0,0.0,0.0,0.0,-0.9503,-0.9069,0.0,0.0,0.0,0.0,0.0,0.0,0.0,0.0,0.0,-1.0412,0.0,0.0,-1.2578,-1.3826,-1.5318,-1.5323,-1.7582,0.0,0.0,0.0,0.0,0.0,-2.8106,0.0,0.0,-3.217,-3.2783,-3.358,-3.3431,0.0,-3.454,-3.4008,-3.3761,-3.4574,-3.453,-3.4414,-3.4414,-3.4414,-3.4414,-3.4414,-3.4232,-3.4227,-3.4541,-3.4562,-3.4599,-3.4561,-3.5164,-3.5244,-3.4767,-3.4751,-3.4551,-3.4134,-3.3129,-3.2624,-3.2363,-3.1925,-3.1661,-3.1661,-3.1661,-3.1661,-3.1661,-3.1661,-3.1661,-3.1661,-3.1294,-2.9338,-2.6723,-2.7474,-2.6532,-2.4735,-2.4735,-2.4637,-2.444,0.0,0.0,0.0,0.0,0.0,0.0,0.0,0.0,0.0,0.0,0.0,-0.9801,0.0,0.0,0.0,0.0,0.0,0.0,0.0,0.0,0.0,0.0,0.0,0.0,0.0,-1.0275,-1.1405,0.0,0.0,0.0,0.0,0.0,0.0,-1.27,0.0,-1.2213,0.0,0.0,0.0,0.0,0.0,-0.9858,-0.9475,0.0,0.0,0.0,0.0,0.0,0.0,0.0,0.0,0.0,0.0,0.0,0.0,-1.2783,-1.4363,-1.6155,-1.6858,0.0,0.0,0.0,0.0,0.0,0.0,0.0,0.0,0.0,0.0,-3.3739,-3.4362,-3.4303,0.0,-3.4955,-3.4389,-3.4066,-3.4704,-3.4574,-3.4414,-3.4414,-3.4414,-3.4414,-3.4414,-3.4196,-3.4134,-3.4298,-3.4356,-3.4379,-3.439,-3.4761,-3.4939,-3.4708,-3.4727,-3.4618,-3.4373,-3.3766,-3.3215,-3.2711,-3.2276,-3.1925,-3.1661,-3.1661,-3.1661,-3.1661,-3.1661,-3.1661,-3.1661,-3.1661,-3.026,-2.8121,-2.8402,-2.7284,-2.5596,-2.5226,-2.4932,-2.4637,0.0,0.0,-0.9801,-0.9801,0.0,0.0,0.0,0.0,0.0,0.0,0.0,-0.9801,0.0,0.0,0.0,-0.9706,0.0,0.0,0.0,0.0,0.0,0.0,0.0,0.0,0.0,0.0,0.0,0.0,0.0,0.0,0.0,0.0,-1.2665,-1.2805,0.0,-1.3191,0.0,0.0,0.0,0.0,-1.0322,-0.9966,-0.9878,-0.9683,0.0,0.0,0.0,0.0,0.0,0.0,0.0,0.0,-0.9337,-1.0097,-1.1043,-1.2878,-1.4979,-1.7117,-1.9057,0.0,0.0,0.0,0.0,0.0,0.0,0.0,-3.3163,-3.3712,0.0,-3.4379,-3.5594,-3.5067,-3.4793,-3.5919,-3.5236,-3.4738,-3.539,-3.4957,-3.4607,-3.4481,-3.4525,-3.454,-3.4414,-3.4414,-3.4264,-3.3908,-3.4368,-3.4555,-3.414,-3.4363,-3.4471,-3.4471,-3.4667,-3.451,-3.386,-3.4294,-3.3894,-3.2734,-3.2562,-3.224,-3.1677,-3.1725,-3.1661,-3.1661,-3.1661,-3.1661,-3.1661,-3.1661,-3.1104,-3.0079,-2.9235,-2.8028,-2.6733,-2.58,-2.5226,-2.4932,0.0,0.0,-0.9801,-0.9801,0.0,0.0,0.0,0.0,-0.9801,-0.9801,-0.9801,-0.9801,-0.9801,-0.9758,0.0,-0.9698,-0.9552,0.0,0.0,0.0,0.0,0.0,0.0,0.0,0.0,0.0,0.0,0.0,0.0,0.0,0.0,0.0,0.0,-1.3472,0.0,-1.2411,0.0,0.0,0.0,-0.9617,-0.9884,-0.9649,-0.9168,-0.9472,-0.9137,0.0,0.0,0.0,0.0,0.0,0.0,0.0,-1.0587,-1.1835,-1.2815,-1.2751,-1.4979,-1.7531,0.0,-2.0376,0.0,0.0,0.0,0.0,0.0,0.0,-3.3824,-3.3221,-3.3854,-3.466,-3.5033,-3.5722,-3.6136,-3.5967,-3.5763,-3.5653,-3.5789,-3.6165,-3.6094,-3.5177,-3.5496,-3.5413,-3.4457,-3.4414,-3.4346,-3.4264,-3.4394,-3.4261,-3.3915,-3.4356,-3.4552,-3.4276,-3.443,-3.4519,-3.4353,-3.3672,-3.3172,-3.2852,-3.1807,-3.1546,-3.1809,-3.1731,-3.1661,-3.1661,-3.1661,-3.1661,-3.1661,-3.1661,-3.1104,-3.017,-2.9977,-2.8773,-2.7094,-2.6914,-2.6167,-2.5235,0.0,0.0,0.0,0.0,0.0,0.0,0.0,0.0,-0.9801,-0.9801,-0.9801,-0.9794,-0.9758,-0.9721,0.0,0.0,-0.9492,-0.9448,0.0,0.0,0.0,0.0,0.0,0.0,0.0,0.0,0.0,0.0,0.0,0.0,0.0,0.0,0.0,-1.3731,0.0,-1.2664,0.0,0.0,0.0,-0.9561,-0.9859,-0.9743,-0.9354,-0.9524,-0.9137,-0.8485,-0.8345,0.0,0.0,0.0,0.0,0.0,0.0,0.0,-1.2562,-1.2878,-1.4742,-1.6959,0.0,0.0,0.0,0.0,0.0,0.0,0.0,0.0,-3.4998,-3.3805,-3.4057,-3.4748,-3.5484,-3.5919,-3.6199,-3.6275,-3.6054,-3.5913,-3.5913,-3.6231,-3.6258,-3.5589,-3.6144,-3.6229,-3.5228,-3.5466,-3.5525,-3.5118,-3.492,-3.4721,-3.4505,-3.4347,-3.4199,-3.3988,-3.4234,-3.4261,-3.4098,-3.3832,-3.3429,-3.287,-3.2236,-3.1757,-3.141,-3.1636,-3.1661,-3.1661,-3.1661,-3.1661,-3.1661,-3.1661,-3.1383,-3.0913,-3.0351,-2.9521,-2.8495,-2.7558,-2.6819,-2.6177,0.0,0.0,0.0,0.0,0.0,0.0,0.0,0.0,0.0,-0.9787,-0.9787,-0.9758,-0.9672,-0.9649,-0.9577,0.0,0.0,0.0,-0.9394,0.0,0.0,0.0,0.0,0.0,0.0,0.0,0.0,0.0,0.0,0.0,0.0,0.0,0.0,-1.3955,0.0,0.0,0.0,0.0,-1.0058,-0.9855,-0.9813,-0.9739,-0.9596,-0.9465,-0.9013,-0.8447,-0.8332,-0.8293,-0.8435,-0.929,0.0,0.0,0.0,0.0,-1.1819,-1.2988,-1.4316,-1.5943,0.0,0.0,0.0,0.0,0.0,0.0,0.0,0.0,-3.5947,-3.4873,-3.4557,-3.481,-3.5868,-3.59,-3.6007,-3.6566,-3.6368,-3.618,-3.618,-3.6272,-3.6239,-3.6054,-3.6664,-3.6862,-3.6155,-3.652,-3.6596,-3.6125,-3.5554,-3.5169,-3.5169,-3.437,-3.3908,-3.3908,-3.4073,-3.3984,-3.3668,-3.4034,-3.3834,-3.2954,-3.2906,-3.216,-3.0852,-3.1369,-3.1608,-3.1529,-3.1625,-3.1661,-3.1661,-3.1661,-3.1661,-3.1661,-3.0812,-3.0351,-2.9977,-2.8308,-2.7652,-2.7379,0.0,0.0,0.0,0.0,0.0,0.0,0.0,0.0,0.0,0.0,-0.9713,-0.9665,-0.9549,-0.9474,-0.9394,-0.9321,-0.9274,-0.9265,0.0,0.0,0.0,0.0,0.0,0.0,0.0,0.0,0.0,0.0,0.0,0.0,0.0,0.0,0.0,0.0,0.0,0.0,0.0,0.0,0.0,-0.9215,-0.9089,-0.8958,-0.884,-0.8706,-0.8515,-0.8319,-0.8306,-0.8293,-0.8499,-0.9813,-1.027,0.0,0.0,0.0,0.0,-1.2593,-1.3636,-1.4932,0.0,0.0,0.0,0.0,0.0,0.0,0.0,0.0,-3.5647,0.0,-3.5663,-3.511,-3.4652,-3.5528,-3.6337,-3.6432,-3.6892,-3.7285,-3.7285,-3.7804,-3.7762,-3.6724,-3.7156,-3.7415,-3.6903,-3.6353,-3.6277,-3.6793,-3.5824,-3.5169,-3.5169,-3.4668,-3.4346,-3.4346,-3.4008,-3.3829,-3.3746,-3.3551,-3.3381,-3.3225,-3.2847,-3.1798,-3.0363,-3.082,-3.1027,-3.1011,-3.1468,-3.1661,-3.1661,-3.1661,-3.1661,-3.1661,-3.1572,-3.1003,-3.017,-2.9886,-2.9235,-2.8495,0.0,0.0,0.0,0.0,0.0,0.0,0.0,0.0,0.0,0.0,0.0,-0.9625,-0.9403,-0.9358,-0.9321,-0.9312,-0.9265,0.0,0.0,0.0,0.0,0.0,0.0,0.0,0.0,0.0,0.0,0.0,0.0,0.0,0.0,-1.3979,-1.5107,0.0,0.0,0.0,0.0,0.0,0.0,-0.9566,-0.9095,-0.9592,-1.0458,-0.9122,-0.931,-1.0151,-0.8869,0.0,-0.8514,-0.9923,-1.0412,-1.0649,-1.2053,0.0,0.0,0.0,0.0,0.0,0.0,0.0,0.0,0.0,0.0,0.0,0.0,0.0,-3.5821,-3.5331,-3.5631,-3.5758,-3.5047,-3.5078,-3.5363,-3.5774,-3.6105,-3.6437,-3.6832,-3.7148,-3.7251,-3.715,-3.7761,-3.7888,-3.7344,-3.7359,-3.7313,-3.7297,-3.6505,-3.5943,-3.5608,-3.5103,-3.4721,-3.4414,-3.4196,-3.4059,-3.377,-3.3632,-3.3479,-3.3269,-3.2504,-3.1576,-3.0612,-3.0566,-3.0658,-3.0891,-3.112,-3.1384,-3.1661,-3.1661,-3.1661,-3.1661,-3.1661,-3.1472,-3.1003,-3.0441,-2.9886,-2.9418,0.0,0.0,0.0,0.0,0.0,0.0,0.0,0.0,0.0,0.0,0.0,-0.955,-0.9303,0.0,0.0,0.0,-0.9301,0.0,0.0,0.0,0.0,0.0,0.0,0.0,0.0,0.0,0.0,0.0,0.0,0.0,-1.4795,-1.4813,-1.6664,0.0,-1.7711,0.0,0.0,0.0,0.0,-1.0595,-1.0049,-1.0754,-1.2034,-1.091,-1.1456,-1.2538,-1.0401,0.0,0.0,0.0,0.0,0.0,0.0,0.0,0.0,0.0,0.0,0.0,0.0,0.0,0.0,0.0,0.0,0.0,0.0,0.0,-3.4999,0.0,-3.5268,-3.5774,-3.5458,-3.4936,-3.4683,-3.5047,-3.5268,-3.5568,-3.609,-3.6311,-3.6611,-3.7148,-3.7828,-3.8112,-3.778,-3.8049,-3.8112,-3.7765,-3.7077,-3.6461,-3.5913,-3.5479,-3.4986,-3.4414,-3.4414,-3.4264,-3.3977,-3.3977,-3.377,-3.3409,-3.2676,-3.1856,-3.1132,-3.0585,-3.0537,-3.0737,-3.0845,-3.1168,-3.1661,-3.1661,-3.1661,-3.1661,-3.1661,-3.1661,-3.1572,-3.0824,-3.0543,-3.0453,0.0,0.0,0.0,0.0,0.0,0.0,0.0,0.0,0.0,0.0,0.0,-0.9439,-0.9224,-0.9255,-0.9293,-0.931,-0.9293,0.0,0.0,0.0,0.0,0.0,0.0,0.0,0.0,0.0,0.0,0.0,0.0,0.0,-1.4796,-1.4795,-1.7181,-2.1418,-1.9849,-1.7124,-1.3708,0.0,0.0,0.0,-1.2327,-1.2307,-1.251,-1.4552,-1.5327,-1.5093,0.0,0.0,0.0,0.0,0.0,0.0,0.0,0.0,-1.128,0.0,0.0,0.0,0.0,0.0,0.0,0.0,0.0,0.0,0.0,0.0,0.0,-3.481,-3.4841,-3.4604,-3.5268,-3.5363,-3.5126,-3.4446,-3.4936,-3.5394,-3.5442,-3.6011,-3.6437,-3.6469,-3.7101,-3.778,-3.8397,-3.7891,-3.7796,-3.8412,-3.7342,-3.6461,-3.5913,-3.5479,-3.4986,-3.4414,-3.4414,-3.4414,-3.4346,-3.4346,-3.4196,-3.377,-3.3701,-3.303,-3.1723,-3.1145,-3.0663,-3.0295,-3.0689,-3.1168,-3.1661,-3.1661,-3.1661,-3.1661,-3.1661,-3.1661,-3.1661,-3.1661,-3.1661,-3.1572,0.0,0.0,0.0,0.0,0.0,0.0,0.0,0.0,0.0,0.0,0.0,0.0,0.0,-0.935,-0.9386,-0.943,-0.9394,0.0,0.0,0.0,0.0,0.0,0.0,0.0,0.0,0.0,0.0,0.0,0.0,-1.058,-1.3392,-1.3826,-1.5193,-1.7248,-1.7659,-1.7604,-1.7073,-1.414,0.0,0.0,-1.3415,-1.4366,0.0,-1.5894,-1.6638,-1.7543,0.0,0.0,0.0,0.0,0.0,0.0,0.0,-1.1485,-1.0712,-1.0475,0.0,0.0,0.0,0.0,0.0,0.0,0.0,0.0,0.0,-2.9453,-3.1918,-3.2029,-3.3245,-3.4241,-3.4083,-3.4778,-3.53,-3.5031,-3.4826,-3.4857,-3.5315,-3.5205,-3.5236,-3.571,-3.6374,-3.6896,-3.7148,-3.7354,-3.7575,-3.7828,-3.7427,-3.6968,-3.6445,-3.6258,-3.5752,-3.492,-3.492,-3.4721,-3.4414,-3.4414,-3.4346,-3.4196,-3.3908,-3.3325,-3.2506,-3.1783,-3.1133,-3.0545,-3.0486,-3.076,-3.118,-3.1529,-3.1661,-3.1661,-3.1661,-3.1661,-3.1661,-3.1661,-3.1661,-3.1661,0.0,0.0,0.0,-0.9801,0.0,-0.9801,-0.9801,0.0,0.0,0.0,0.0,0.0,0.0,0.0,-0.9446,-0.9497,-0.943,0.0,0.0,0.0,0.0,0.0,0.0,0.0,0.0,0.0,0.0,0.0,0.0,0.0,0.0,-1.2653,-1.3553,-1.483,-1.5279,-1.6622,0.0,0.0,0.0,-1.5521,0.0,0.0,-1.8245,0.0,-1.9281,0.0,0.0,0.0,0.0,0.0,0.0,0.0,0.0,-1.1657,-1.0097,-1.0333,-1.1217,0.0,-1.3842,0.0,0.0,0.0,0.0,0.0,-2.4578,0.0,-2.9532,-2.9769,-3.1665,-3.3198,-3.2993,-3.4083,-3.5015,-3.5015,-3.4826,-3.4826,-3.5315,-3.4968,-3.4841,-3.5331,-3.5789,-3.6074,-3.6074,-3.6722,-3.7133,-3.7133,-3.7338,-3.7285,-3.6723,-3.6723,-3.6258,-3.5234,-3.5052,-3.4787,-3.4414,-3.4414,-3.4414,-3.4414,-3.4128,-3.3687,-3.3157,-3.2519,-3.1837,-3.1304,-3.0669,-3.0503,-3.0651,-3.118,-3.1396,-3.142,-3.1589,-3.1661,-3.1661,-3.1661,-3.1661,-3.1661,-0.9801,-0.9801,-0.9801,-0.9801,-0.9801,-0.9801,-0.9801,-0.9801,0.0,0.0,0.0,0.0,0.0,0.0,0.0,0.0,0.0,0.0,0.0,0.0,0.0,0.0,0.0,0.0,0.0,0.0,0.0,0.0,0.0,0.0,0.0,0.0,-1.2566,0.0,-1.3156,-1.4141,-1.6898,0.0,-1.6915,-1.7104,0.0,-1.8211,-1.8711,0.0,0.0,0.0,-2.1704,-2.0918,0.0,-1.836,0.0,0.0,0.0,-1.1916,-0.9591,-1.0254,-1.0933,0.0,0.0,0.0,0.0,0.0,0.0,0.0,-2.3897,0.0,-2.4855,-2.8223,-3.0085,-3.1286,-3.2029,-3.3261,-3.4178,-3.4225,-3.4857,-3.5347,-3.5379,-3.5379,-3.5363,-3.5363,-3.5379,-3.5379,-3.5363,-3.5995,-3.639,-3.639,-3.7054,-3.7254,-3.6693,-3.6708,-3.6274,-3.5299,-3.4721,-3.4414,-3.4414,-3.4414,-3.4414,-3.4414,-3.4414,-3.4196,-3.377,-3.3241,-3.272,-3.239,-3.1317,-3.0568,-3.0157,-3.0736,-3.0879,-3.0927,-3.1456,-3.1661,-3.1661,-3.1661,-3.1661,-3.1661,-0.9801,-0.9801,-0.9801,-0.9801,-0.9801,-0.9801,-0.9801,0.0,0.0,0.0,0.0,0.0,0.0,0.0,0.0,0.0,0.0,0.0,0.0,0.0,0.0,0.0,0.0,0.0,0.0,0.0,0.0,0.0,0.0,0.0,0.0,0.0,0.0,0.0,-1.2448,-1.326,-1.4469,-1.3415,0.0,0.0,-1.6898,-1.819,0.0,0.0,0.0,0.0,0.0,-2.2922,-2.2507,0.0,-2.0338,-1.7948,0.0,0.0,0.0,-1.1706,-1.2404,0.0,-1.3384,0.0,0.0,0.0,0.0,0.0,0.0,0.0,-2.3591,-2.5061,-2.6467,-2.7968,-2.9674,-3.0717,-3.165,-3.2661,-3.3419,-3.4241,-3.5252,-3.4936,-3.4589,-3.4589,-3.5063,-3.5189,-3.4652,-3.5252,-3.5679,-3.5679,-3.6327,-3.6648,-3.6472,-3.6627,-3.6585,-3.6274,-3.5429,-3.4986,-3.4986,-3.4601,-3.4414,-3.4414,-3.4414,-3.4346,-3.4196,-3.3756,-3.3241,-3.272,-3.2164,-3.1435,-3.0713,-3.0819,-3.0879,-3.0927,-3.1456,-3.1661,-3.1661,-3.1661,-3.1661,-3.1661,-0.9812,-0.9812,-0.9794,-0.9801,-1.0072,-1.0295,-1.0302,0.0,0.0,0.0,0.0,0.0,0.0,0.0,0.0,0.0,0.0,0.0,0.0,0.0,0.0,0.0,0.0,0.0,0.0,0.0,0.0,0.0,0.0,0.0,0.0,0.0,0.0,0.0,-1.0889,-1.1481,-1.2103,-1.0941,0.0,0.0,-1.7662,0.0,0.0,-2.2773,-2.3648,0.0,0.0,0.0,-2.4132,-2.4132,-2.2344,0.0,0.0,-1.4603,-1.3299,-1.2998,-1.3605,0.0,0.0,0.0,0.0,0.0,0.0,0.0,-1.9704,-2.0842,-2.1963,0.0,-2.4602,-2.5945,-2.7162,-2.8221,-2.9264,-3.0354,-3.1112,-3.2345,-3.462,-3.4557,-3.4288,-3.4288,-3.4431,-3.4352,-3.3925,-3.451,-3.4936,-3.4936,-3.5584,-3.6121,-3.6421,-3.6328,-3.6429,-3.6708,-3.5928,-3.5429,-3.5169,-3.492,-3.4601,-3.4414,-3.4414,-3.4414,-3.4414,-3.4128,-3.3839,-3.352,-3.2875,-3.229,-3.1716,-3.1506,-3.1199,-3.1004,-3.1293,-3.1468,-3.1661,-3.1661,-3.1661,-3.1661,0.0,-0.9791,-0.9835,-0.9924,-1.0528,-1.1021,0.0,0.0,0.0,0.0,0.0,0.0,0.0,0.0,0.0,0.0,0.0,0.0,0.0,0.0,0.0,0.0,0.0,0.0,0.0,0.0,0.0,0.0,0.0,0.0,0.0,0.0,0.0,0.0,-0.9109,-0.9461,-1.0065,-0.9749,0.0,-1.6058,-1.8776,-2.0674,0.0,0.0,-2.5094,-2.5322,-2.5981,-2.5801,-2.5276,-2.5114,-2.3584,0.0,0.0,-1.7167,-1.6231,-1.4492,-1.49,0.0,0.0,-1.6386,0.0,0.0,-1.844,0.0,-2.0778,-2.0589,-2.0304,0.0,-2.3454,-2.4388,-2.4625,-2.5724,-2.6846,-2.7525,-2.841,-3.0196,-3.3593,-3.4067,-3.4067,-3.4067,-3.3625,-3.3277,-3.3198,-3.3799,-3.4178,-3.4178,-3.4857,-3.5568,-3.6263,-3.5966,-3.604,-3.6645,-3.6212,-3.5737,-3.5285,-3.5234,-3.492,-3.4414,-3.4414,-3.4414,-3.4414,-3.4414,-3.4414,-3.4346,-3.3451,-3.3017,-3.2974,-3.2515,-3.1798,-3.1009,-3.1052,-3.1329,-3.1677,-3.1725,-3.1749,-3.1749,-0.9728,-0.9772,-0.9995,-1.065,-1.0909,-1.1224,0.0,0.0,0.0,0.0,0.0,0.0,0.0,0.0,0.0,0.0,0.0,0.0,0.0,0.0,0.0,0.0,0.0,0.0,0.0,0.0,0.0,0.0,0.0,0.0,0.0,0.0,0.0,0.0,-0.9109,-0.9168,-0.9472,-1.1815,0.0,-1.5367,-1.5819,0.0,-2.2659,-2.3196,-2.4557,-2.6156,-2.6371,-2.669,-2.6866,-2.5953,-2.4923,-2.3629,0.0,0.0,-1.913,-1.7395,-1.746,-1.7982,-1.7444,-1.8219,-1.9135,-1.8961,0.0,0.0,-1.8898,-1.9198,-1.9751,0.0,-1.9736,-2.0462,-2.2185,-2.3164,-2.3939,-2.4618,-2.6735,-2.9311,-3.225,-3.2713,-3.2713,-3.2713,-3.304,-3.3087,-3.2534,-3.3087,-3.3498,-3.3498,-3.4115,-3.4826,-3.5552,-3.6006,-3.631,-3.6436,-3.649,-3.6321,-3.5785,-3.5415,-3.492,-3.4414,-3.4414,-3.4414,-3.4414,-3.4414,-3.4414,-3.4414,-3.4182,-3.3908,-3.3548,-3.2986,-3.2131,-3.1194,-3.2035,-3.2012,-3.159,-3.1867,-3.1937,-3.1937,-0.9747,-0.9747,-1.0013,-1.0843,-1.1335,0.0,0.0,0.0,0.0,0.0,0.0,0.0,0.0,0.0,0.0,0.0,0.0,0.0,0.0,0.0,0.0,0.0,0.0,0.0,0.0,0.0,0.0,0.0,0.0,0.0,0.0,0.0,0.0,0.0,-0.9913,-1.0128,-1.1018,0.0,-1.3558,-1.5309,-1.7079,0.0,-2.3681,-2.4059,-2.5345,-2.6999,-2.7028,-2.7243,-2.7344,-2.6333,-2.5515,0.0,0.0,-2.2465,-2.1562,0.0,-1.9817,-1.9869,-1.899,-1.9277,-1.9894,-2.021,0.0,0.0,0.0,-1.9815,-1.9894,-2.0225,-1.9751,-1.9688,-2.1094,-2.1616,-2.2074,-2.2785,-2.495,-2.7063,-2.8471,-3.0417,-3.1744,-3.1744,-3.2045,-3.2124,-3.1776,-3.2376,-3.2929,-3.3277,-3.3609,-3.4099,-3.4794,-3.5173,-3.5679,-3.6406,-3.6519,-3.6352,-3.5913,-3.5672,-3.5169,-3.4414,-3.4414,-3.4414,-3.4414,-3.4414,-3.4414,-3.4414,-3.4414,-3.4278,-3.4059,-3.3756,-3.3056,-3.2158,-3.1966,-3.1946,-3.2059,-3.1859,-3.1968,-3.2213,-0.9772,-0.9747,-0.9995,-1.0851,0.0,0.0,0.0,0.0,0.0,0.0,0.0,0.0,0.0,0.0,0.0,0.0,0.0,0.0,0.0,0.0,0.0,0.0,0.0,-0.9603,0.0,0.0,0.0,0.0,0.0,0.0,0.0,0.0,0.0,0.0,0.0,0.0,0.0,0.0,0.0,-1.6388,0.0,-2.2028,-2.391,-2.4882,-2.6106,-2.7286,-2.7584,-2.763,-2.7404,-2.6514,-2.5825,-2.5276,-2.4752,-2.4228,0.0,0.0,0.0,0.0,0.0,0.0,0.0,0.0,0.0,-2.1268,0.0,0.0,0.0,-2.1126,-2.0383,0.0,0.0,0.0,0.0,-2.1189,0.0,0.0,0.0,-2.7466,0.0,-2.999,-3.037,-3.0607,-3.0607,-3.1255,-3.2013,-3.2835,-3.2787,-3.3056,-3.3862,-3.4146,-3.4889,-3.6184,-3.6358,-3.631,-3.6039,-3.6054,-3.5608,-3.4668,-3.4601,-3.4534,-3.4534,-3.4481,-3.4414,-3.4414,-3.4414,-3.4414,-3.4414,-3.4414,-3.4045,-3.3283,-3.2128,-3.2096,-3.2605,-3.1997,-3.2068,-3.2388,-0.9728,-0.9747,-1.0032,-1.0854,0.0,0.0,0.0,0.0,0.0,0.0,0.0,0.0,0.0,0.0,0.0,0.0,0.0,0.0,-1.5584,0.0,0.0,0.0,-1.0449,-1.001,-1.0738,0.0,0.0,0.0,0.0,0.0,0.0,0.0,-0.9877,-1.0785,-1.1416,0.0,0.0,0.0,-1.6845,0.0,-2.0896,-2.1312,0.0,-2.3904,-2.5301,-2.616,-2.7549,-2.7897,-2.7549,0.0,-2.6312,-2.6063,0.0,-2.4862,-2.5071,-2.4014,0.0,0.0,0.0,0.0,0.0,0.0,-2.4097,0.0,0.0,0.0,-2.1158,-1.942,0.0,0.0,0.0,0.0,0.0,0.0,0.0,0.0,-2.2232,-2.3535,-2.4766,-2.5614,-2.732,-2.8442,-2.8442,-2.9074,-3.0022,-3.1349,-3.0891,-3.1112,-3.2475,-3.364,-3.4668,-3.5489,-3.6105,-3.646,-3.6585,-3.6585,-3.6321,-3.5721,-3.5299,-3.5103,-3.5103,-3.4601,-3.4414,-3.4414,-3.4414,-3.4414,-3.4414,-3.4414,-3.4346,-3.4254,-3.3858,-3.3314,-3.2644,-3.2838,-3.2819,-3.2636,-0.9768,-0.978,-1.0057,-1.0862,0.0,0.0,0.0,0.0,0.0,0.0,0.0,0.0,0.0,0.0,0.0,0.0,0.0,-1.8336,0.0,0.0,0.0,-1.3583,-1.1976,-1.1259,-1.1599,0.0,0.0,0.0,-0.9649,0.0,0.0,0.0,-1.0449,-1.2245,-1.293,0.0,-1.6305,0.0,-1.7682,0.0,0.0,0.0,0.0,-2.4847,-2.6718,-2.7425,-2.7906,-2.802,-2.7844,0.0,-2.6504,0.0,0.0,0.0,0.0,0.0,0.0,0.0,0.0,0.0,0.0,0.0,0.0,0.0,-2.1732,0.0,-2.1126,0.0,0.0,0.0,0.0,0.0,0.0,0.0,-1.9799,0.0,0.0,0.0,-2.2508,-2.4491,0.0,0.0,-2.7089,-2.7674,-2.8521,-2.9896,-2.9738,-3.018,-3.1586,-3.2582,-3.3625,-3.4715,-3.5458,-3.5922,-3.6119,-3.6522,-3.6445,-3.5913,-3.5737,-3.5608,-3.5608,-3.5103,-3.4854,-3.4854,-3.4534,-3.4414,-3.4414,-3.4414,-3.4414,-3.4375,-3.4278,-3.3942,-3.3506,-3.3577,-3.3687,-3.3832,-1.0079,0.0,0.0,0.0,0.0,0.0,-1.3866,-1.613,-1.7907,0.0,0.0,0.0,-2.2927,-2.2723,0.0,0.0,-2.2074,-2.0793,0.0,0.0,-1.6544,-1.6103,-1.3966,-1.2917,0.0,0.0,0.0,0.0,0.0,0.0,0.0,0.0,-1.0794,-1.309,0.0,-1.5868,-1.8005,0.0,0.0,-2.0122,-2.1073,-2.206,-2.3253,-2.6096,-2.7796,-2.8621,-2.842,-2.838,-2.8386,-2.8118,-2.7391,0.0,-2.8746,0.0,0.0,0.0,0.0,0.0,-2.4895,0.0,0.0,0.0,0.0,0.0,0.0,0.0,0.0,0.0,0.0,0.0,0.0,0.0,0.0,0.0,0.0,-1.9546,0.0,-1.9218,0.0,0.0,0.0,0.0,0.0,-2.5748,-2.6466,-2.8007,-2.805,-2.8758,-3.0543,-3.1492,-3.2613,-3.3972,-3.4905,-3.5556,-3.5879,-3.6565,-3.6708,-3.6368,-3.618,-3.6117,-3.6117,-3.5608,-3.5285,-3.5169,-3.4787,-3.4534,-3.4414,-3.4414,-3.4414,-3.4414,-3.4414,-3.4333,-3.4171,-3.4209,-3.4412,-3.4697,-1.0803,-1.0321,0.0,0.0,0.0,0.0,-1.5444,-1.5908,-1.6888,0.0,0.0,0.0,0.0,0.0,0.0,0.0,0.0,-2.4716,-2.3743,0.0,-1.8982,-1.9781,-1.6423,-1.4953,0.0,-1.3383,-1.1673,-1.0857,-1.0076,0.0,0.0,0.0,0.0,0.0,0.0,-1.6544,-1.8036,-1.9908,-2.2419,-2.5109,-2.4579,-2.6265,-2.892,0.0,-2.761,-2.898,-2.898,0.0,0.0,-2.9165,-2.947,0.0,0.0,0.0,0.0,0.0,0.0,0.0,0.0,0.0,0.0,-2.4538,0.0,0.0,0.0,0.0,-2.2438,0.0,0.0,0.0,0.0,0.0,0.0,0.0,0.0,0.0,0.0,0.0,0.0,0.0,0.0,0.0,0.0,-2.2887,-2.3507,-2.5555,-2.535,-2.6293,-2.8996,-3.0496,-3.1887,-3.3293,-3.4668,-3.5726,-3.6364,-3.7133,-3.748,-3.7421,-3.6907,-3.6646,-3.6662,-3.6117,-3.5608,-3.5169,-3.5169,-3.4854,-3.4414,-3.4414,-3.4414,-3.4414,-3.4414,-3.4428,-3.4452,-3.4836,-3.4858,-3.479,0.0,0.0,0.0,0.0,0.0,0.0,-1.5444,-1.7819,0.0,0.0,0.0,0.0,0.0,-2.7106,-2.7439,0.0,0.0,-2.6608,-2.5619,-2.3414,0.0,0.0,0.0,-1.7873,0.0,-1.6172,-1.4475,-1.2547,-1.229,0.0,0.0,0.0,0.0,0.0,0.0,-1.7021,0.0,0.0,0.0,0.0,0.0,-2.6935,-2.9312,0.0,-2.8783,-2.924,-2.9048,-2.9399,0.0,-3.0599,-3.0569,-3.0619,-3.2142,-3.1934,-3.1096,-3.1289,-3.162,-3.1578,0.0,0.0,-3.1653,-2.7138,0.0,0.0,0.0,0.0,0.0,0.0,0.0,0.0,0.0,0.0,0.0,0.0,0.0,0.0,0.0,0.0,0.0,0.0,0.0,0.0,0.0,0.0,-2.2273,-2.3538,-2.4029,-2.5487,-2.83,-2.9769,-3.1176,-3.2566,-3.3957,-3.5015,-3.5742,-3.6437,-3.7022,-3.748,-3.7285,-3.7225,-3.7225,-3.6646,-3.6321,-3.6133,-3.5494,-3.5103,-3.492,-3.4534,-3.4414,-3.4414,-3.4414,-3.4414,-3.4491,-3.5525,-3.5825,-3.5858,-1.1943,0.0,0.0,0.0,0.0,0.0,0.0,0.0,0.0,0.0,-2.5393,0.0,-2.8096,0.0,-2.8357,0.0,-2.8529,-2.7958,-2.6998,-2.5603,0.0,-2.474,-2.24,0.0,0.0,0.0,-1.6816,-1.4332,-1.3994,-1.3399,0.0,0.0,0.0,0.0,0.0,0.0,-1.9221,0.0,-2.324,0.0,0.0,-2.7976,0.0,0.0,-2.9407,-2.9442,0.0,-3.0286,-3.1224,-3.2386,-3.2769,-3.3024,-3.4481,-3.42,-3.3336,-3.3125,-3.3384,-3.3465,-3.2059,-3.2831,0.0,-2.9042,-2.8499,0.0,-2.3769,0.0,-2.3786,0.0,0.0,0.0,0.0,0.0,0.0,0.0,0.0,0.0,0.0,-1.7452,0.0,0.0,0.0,0.0,0.0,0.0,-2.0654,-2.2082,-2.2729,-2.4209,0.0,-2.8774,-3.0322,-3.1541,-3.3324,-3.4636,-3.5379,-3.6074,-3.6785,-3.748,-3.7583,-3.7626,-3.7626,-3.7254,-3.6997,-3.6815,-3.5864,-3.535,-3.5169,-3.4601,-3.4414,-3.4414,-3.4414,-3.4414,-3.4559,-3.5836,-3.6591,-3.7026,0.0,0.0,0.0,0.0,-1.4462,0.0,0.0,0.0,-2.3094,0.0,-2.6088,-2.7313,-2.9071,-2.9264,-2.9592,-3.0432,-2.9727,-2.8917,-2.8077,-2.7157,0.0,0.0,-2.4908,-2.3921,-2.3951,0.0,0.0,0.0,0.0,0.0,0.0,0.0,0.0,0.0,-1.5959,0.0,-1.8581,-2.1773,-2.4612,-2.7065,-2.8738,-2.9407,-2.9407,-2.9407,-2.9463,-2.9667,-3.0668,-3.175,-3.2908,-3.4449,-3.583,-3.6997,-3.7399,-3.7505,-3.7147,-3.5287,-3.5692,-3.6142,-3.3136,-3.3083,-3.3179,-3.0297,-2.9225,0.0,0.0,0.0,-2.552,0.0,0.0,0.0,0.0,0.0,0.0,0.0,0.0,0.0,0.0,0.0,0.0,0.0,0.0,0.0,0.0,0.0,-1.8658,-2.11,-2.1439,-2.2535,0.0,-2.7541,-2.9374,-3.0148,-3.2787,-3.4557,-3.5331,-3.6026,-3.6722,-3.7492,-3.777,-3.7943,-3.7943,-3.7943,-3.7637,-3.7131,-3.6337,-3.5721,-3.5285,-3.4721,-3.4481,-3.4481,-3.4414,-3.4457,-3.4661,-3.5865,-3.7114,-3.8202,-1.4665,-1.5965,-1.7274,0.0,-1.742,-1.8046,0.0,0.0,0.0,0.0,-2.7898,-2.8926,-3.0037,-3.0162,-3.0258,-3.0491,-3.0297,0.0,0.0,0.0,0.0,-2.8538,-2.7285,-2.6065,-2.4889,-2.3429,0.0,-1.8892,0.0,0.0,-1.5297,0.0,0.0,0.0,0.0,0.0,-1.9397,-2.1439,-2.4092,-2.7065,-2.8738,-2.9407,-2.9407,0.0,-3.015,-3.1206,-3.1485,-3.2535,-3.4018,-3.5395,-3.649,-3.7288,-3.7469,-3.7505,-3.7361,-3.6612,-3.6632,-3.6773,-3.585,-3.5401,-3.4753,-3.273,-3.1305,-2.9782,0.0,0.0,0.0,0.0,0.0,0.0,0.0,0.0,0.0,0.0,0.0,0.0,0.0,0.0,0.0,-1.8918,0.0,0.0,0.0,-1.7757,-1.8913,-1.9648,-2.0995,-2.2749,-2.4894,-2.6656,-2.841,-3.0133,-3.1871,-3.3356,-3.4557,-3.5474,-3.6318,-3.7052,-3.7906,-3.8262,-3.8262,-3.8262,-3.8205,-3.8017,-3.7429,-3.7115,-3.6919,-3.5897,-3.5544,-3.5479,-3.4883,-3.5132,-3.5865,-3.6185,-3.7114,-3.8202,-1.6712,0.0,0.0,-2.1089,0.0,0.0,-2.3389,-2.4419,0.0,-2.7591,-2.8954,0.0,-3.0492,-3.1196,-3.1641,-3.1632,-3.1641,0.0,-3.0539,0.0,0.0,-2.9222,-2.8595,-2.7819,-2.691,-2.5569,0.0,-2.1117,0.0,0.0,-1.6064,0.0,0.0,0.0,0.0,-1.7615,0.0,-2.2848,-2.5224,-2.7084,-2.8739,-2.9429,0.0,-3.0251,-3.1291,-3.2515,-3.3594,-3.4537,-3.5454,-3.6574,-3.7497,-3.8129,-3.8002,-3.7877,-3.7685,-3.7319,-3.7108,-3.697,-3.6908,-3.6348,-3.5434,-3.4172,-3.2948,-3.1463,-2.9281,-2.9042,-2.8973,0.0,-2.7722,-2.7712,0.0,0.0,0.0,0.0,0.0,0.0,0.0,0.0,0.0,0.0,-1.8816,0.0,-1.6188,-1.7316,-1.8342,-1.8889,-2.0092,-2.1497,0.0,-2.5751,-2.7922,-2.94,-3.1404,-3.3173,-3.4665,-3.5422,-3.6252,-3.7118,-3.8091,-3.8544,-3.8544,-3.8544,-3.8544,-3.8544,-3.7895,-3.7589,-3.7531,-3.6676,-3.615,-3.5864,-3.5052,-3.5648,-3.6821,-3.6514,-3.7186,-3.8202,0.0,0.0,0.0,0.0,0.0,0.0,0.0,-2.6422,0.0,-2.8357,0.0,-3.1081,-3.1255,-3.2474,-3.3314,-3.343,0.0,-3.2792,-3.1284,-3.1785,-3.1405,-2.9773,-2.9528,-2.9344,-2.9113,-2.7359,-2.5264,0.0,0.0,-1.8602,-1.6369,0.0,0.0,0.0,0.0,0.0,0.0,-2.5034,-2.7046,-2.7345,-2.8818,-2.9603,-2.9978,-3.1456,-3.2664,-3.3883,-3.6025,-3.6812,-3.6965,-3.7782,-3.8525,-3.9027,-3.8718,-3.841,-3.8083,-3.765,-3.7301,-3.7031,-3.6886,-3.625,-3.5478,-3.4723,-3.3933,-3.2739,-3.0404,-2.9885,-2.9834,-2.9713,-2.8459,-2.8117,-3.0585,0.0,0.0,0.0,0.0,0.0,0.0,0.0,0.0,0.0,0.0,0.0,-1.7349,-1.7181,-1.7546,-1.8446,-1.8999,-1.9797,0.0,0.0,-2.7352,-2.8469,-3.1037,-3.3189,-3.481,-3.546,-3.6271,-3.7248,-3.8221,-3.8778,-3.886,-3.886,-3.886,-3.8805,-3.8141,-3.7822,-3.7764,-3.7203,-3.6615,-3.5976,-3.5415,-3.6207,-3.7586,-3.699,-3.7461,-3.8412,0.0,0.0,0.0,0.0,0.0,-2.852,-2.856,-2.9255,-3.0114,-3.1023,-3.2638,-3.4002,-3.4737,-3.4427,-3.4466,-3.5182,-3.524,0.0,0.0,0.0,0.0,-3.2461,-3.1653,-3.0598,-2.9212,-2.7456,-2.5677,0.0,-2.0641,-1.8474,-1.7317,0.0,0.0,0.0,0.0,0.0,-2.3009,-2.6027,0.0,-2.8327,-2.9285,-3.0415,-3.1586,-3.1885,-3.3773,-3.6291,-3.6665,-3.7166,-3.7801,-3.8618,-3.8971,-3.9027,-3.8718,-3.8548,-3.8392,-3.7703,-3.7469,-3.7197,-3.6257,-3.546,-3.4688,-3.3898,-3.3143,-3.2476,-3.2004,-3.1898,-3.1864,-3.1725,-3.1533,-3.1046,-2.9867,0.0,0.0,0.0,0.0,0.0,0.0,0.0,0.0,0.0,0.0,-2.0583,0.0,-1.8251,-1.7974,-1.7584,-1.834,0.0,0.0,0.0,-2.541,-2.8543,-3.0303,-3.1869,-3.3323,-3.4903,-3.6032,-3.6836,-3.7821,-3.8639,-3.9202,-3.9202,-3.9202,-3.9202,-3.9077,-3.9023,-3.8969,-3.8294,-3.7573,-3.689,-3.6753,-3.7514,-3.8565,-3.7819,-3.8476,-3.9478,0.0,0.0,0.0,0.0,0.0,0.0,0.0,-3.255,-3.287,-3.1912,-3.2917,-3.3895,-3.4311,-3.4775,-3.524,-3.5665,-3.6071,-3.6149,-3.5723,-3.5681,-3.5272,-3.4422,-3.3963,-3.2918,-3.121,-2.9946,-2.8009,-2.5399,-2.2399,-2.003,-1.8279,-1.646,0.0,-1.5727,0.0,-2.1171,0.0,0.0,0.0,-2.8802,-3.0406,-3.1506,-3.2391,-3.4017,-3.5619,-3.705,-3.7904,-3.8413,-3.8726,-3.8998,-3.9101,-3.9073,-3.8913,-3.8748,-3.8444,-3.7657,-3.7214,-3.6702,-3.5704,-3.4764,-3.3968,-3.3599,-3.295,-3.2406,-3.2406,-3.2406,-3.2388,-3.2319,-3.2669,-3.2459,-3.0905,-2.8951,0.0,0.0,0.0,0.0,0.0,0.0,0.0,0.0,0.0,0.0,0.0,0.0,0.0,0.0,0.0,0.0,0.0,0.0,-2.4903,-2.8298,-3.0131,-3.1821,-3.3383,-3.4857,-3.6056,-3.6898,-3.7812,-3.8593,-3.9272,-3.9272,-3.9272,-3.9272,-3.9272,-3.9272,-3.9272,-3.859,-3.8294,-3.8197,-3.7546,-3.8191,-3.9408,-3.8335,-3.8804,-3.9763,0.0,-2.7586,0.0,0.0,-2.8183,0.0,-3.2916,-3.4842,-3.524,-3.2938,-3.3381,-3.3981,-3.4165,-3.524,-3.6033,-3.6226,-3.6806,-3.6903,-3.6265,-3.6648,-3.652,-3.5651,-3.5608,-3.4863,-3.3307,-3.2304,-3.0267,0.0,-2.4416,-2.1779,0.0,-1.7819,-1.7225,-1.7516,0.0,0.0,0.0,0.0,-2.8727,-2.9822,-3.1879,-3.301,-3.3715,-3.6031,-3.7065,-3.7416,-3.8559,-3.8945,-3.885,-3.8681,-3.8738,-3.885,-3.8664,-3.8423,-3.8063,-3.7349,-3.678,-3.6141,-3.5148,-3.4268,-3.3547,-3.3318,-3.2845,-3.2406,-3.2406,-3.2406,-3.2441,-3.2599,-3.3231,-3.3351,-3.2033,-3.0429,0.0,0.0,0.0,0.0,0.0,0.0,0.0,0.0,0.0,0.0,-1.891,0.0,0.0,0.0,0.0,0.0,-2.0265,-2.1956,-2.4337,-2.7547,-2.9707,-3.155,-3.3048,-3.4626,-3.6009,-3.7119,-3.7698,-3.8427,-3.9272,-3.9272,-3.9272,-3.9272,-3.9272,-3.9272,-3.9272,-3.8717,-3.8827,-3.9218,-3.8197,-3.8782,-4.0043,-3.8983,-3.9303,-4.0178,0.0,0.0,0.0,0.0,0.0,-3.0588,-3.0878,-3.4524,-3.6787,-3.5491,-3.6033,-3.6864,-3.7638,-3.7154,-3.7116,-3.7909,-3.8025,-3.8063,-3.7967,-3.7309,-3.6535,-3.5723,-3.5631,-3.5156,-3.4191,-3.2624,-3.0865,0.0,0.0,-2.2673,-2.0161,-2.0004,-2.0271,-2.1005,-2.2956,0.0,0.0,-2.9128,-3.1072,-3.2513,-3.3596,-3.5184,-3.688,-3.6443,-3.7074,-3.8107,-3.7478,-3.7224,-3.7224,-3.7131,-3.7541,-3.8,-3.7254,-3.6935,-3.6811,-3.6415,-3.6252,-3.5921,-3.4494,-3.4046,-3.3732,-3.2738,-3.2458,-3.2406,-3.2406,-3.2406,-3.2581,-3.3248,-3.4021,-3.4036,-3.2137,-3.3512,-3.3554,0.0,0.0,0.0,0.0,0.0,0.0,0.0,0.0,0.0,0.0,-1.8257,0.0,0.0,-1.7221,-1.8177,-2.1111,-2.097,-2.2407,-2.5967,-2.8355,-2.9889,-3.0645,-3.3515,-3.5662,-3.7102,-3.7168,-3.793,-3.9272,-3.9272,-3.9272,-3.9272,-3.9272,-3.9272,-3.9272,-3.9218,-3.9255,-3.9272,-3.9148,-3.9643,-4.0364,-4.0248,-4.0659,-4.1244,0.0,0.0,0.0,0.0,0.0,0.0,0.0,-3.5201,-3.6226,-3.58,-3.6013,-3.6303,-3.6651,-3.6381,-3.6323,-3.6671,-3.7135,-3.7425,-3.7425,-3.758,-3.7541,-3.7212,-3.7162,-3.6745,-3.5875,-3.5198,-3.3506,0.0,0.0,0.0,-2.2582,-2.21,-2.2546,-2.3897,-2.6206,-2.8145,-2.9813,-3.1941,-3.3197,-3.3875,-3.513,-3.5863,-3.6258,-3.6673,-3.7215,-3.7637,-3.7216,-3.7052,-3.6977,-3.6466,-3.6769,-3.7287,-3.6901,-3.6782,-3.6619,-3.5962,-3.5653,-3.5255,-3.4157,-3.3579,-3.3191,-3.2758,-3.2523,-3.2406,-3.2406,-3.2406,-3.2616,-3.3336,-3.4477,-3.5282,-3.4976,-3.4443,-3.3575,-3.2314,0.0,0.0,0.0,0.0,0.0,0.0,0.0,0.0,0.0,0.0,0.0,0.0,0.0,-1.7816,-2.0487,-2.0882,-2.2327,-2.5146,-2.8378,-3.0187,-3.0401,-3.3396,-3.5644,-3.7102,-3.7102,-3.7864,-3.9272,-3.9272,-3.9272,-3.9272,-3.9272,-3.9272,-3.9272,-3.9272,-3.9272,-3.9272,-3.9272,-3.9736,-4.0409,-4.0382,-4.0901,-4.1475,-3.0849,0.0,-3.2861,0.0,-3.5704,-3.5704,-3.5704,-3.5704,-3.5723,-3.5781,-3.5786,-3.5737,-3.5695,-3.5704,-3.5704,-3.5704,-3.6226,-3.6555,-3.6555,-3.7116,-3.7464,-3.7464,-3.7696,0.0,-3.6903,-3.6671,-3.5229,-3.257,-3.111,0.0,-2.5983,-2.5663,-2.6281,-2.773,-2.9583,-3.1081,-3.228,-3.377,-3.4543,-3.4891,-3.6177,-3.6463,-3.62,-3.6822,-3.6994,-3.6914,-3.6512,-3.6348,-3.6273,-3.5709,-3.5829,-3.6208,-3.6136,-3.6087,-3.5951,-3.5324,-3.4988,-3.4613,-3.3981,-3.3447,-3.3045,-3.2858,-3.2654,-3.2507,-3.2422,-3.2564,-3.3003,-3.3968,-3.5232,-3.6338,-3.6882,-3.5409,-3.397,-3.3577,0.0,0.0,0.0,-2.5993,0.0,0.0,-2.2396,-2.1154,-2.1019,-2.0058,0.0,0.0,0.0,-1.9235,-2.1005,-2.1534,-2.2916,-2.536,-2.8741,-3.0584,-3.0757,-3.3541,-3.5644,-3.7102,-3.7102,-3.7864,-3.9272,-3.9272,-3.9272,-3.9272,-3.9272,-3.9272,-3.9272,-3.9272,-3.9272,-3.9272,-3.9272,-3.9587,-4.0111,-4.0549,-4.101,-4.1504,-3.0936,-3.3325,-3.5646,-3.5684,-3.5704,-3.5704,-3.5704,-3.5704,-3.5723,-3.5781,-3.5862,-3.5859,-3.5716,-3.5704,-3.5704,-3.5704,-3.5704,-3.5704,-3.5704,-3.5723,-3.5723,0.0,0.0,-3.6903,-3.6903,-3.611,-3.5259,-3.4369,0.0,0.0,-3.0434,-3.1284,-3.2173,-3.3004,-3.3044,-3.3063,-3.314,-3.4021,-3.4891,-3.5762,-3.6574,-3.7302,-3.7766,-3.6782,-3.629,-3.5986,-3.4988,-3.462,-3.462,-3.462,-3.462,-3.462,-3.4555,-3.4423,-3.433,-3.4311,-3.4264,-3.4167,-3.3868,-3.3788,-3.3634,-3.2952,-3.2795,-3.2734,-3.2439,-3.2967,-3.3914,-3.5478,-3.6426,-3.697,-3.6987,-3.6952,-3.5688,-3.1776,0.0,0.0,0.0,-2.5193,0.0,-2.3868,-2.172,-2.0734,-2.177,-2.1028,0.0,0.0,0.0,-2.3027,-2.3452,-2.2965,-2.3998,-2.689,-2.9287,-3.079,-3.1369,-3.3697,-3.5644,-3.7102,-3.7102,-3.7864,-3.9272,-3.9272,-3.9272,-3.9272,-3.9272,-3.9272,-3.9272,-3.9272,-3.9272,-3.9272,-3.9272,-3.9342,-3.9454,-4.0895,-4.1409,-4.151,-3.4367,-3.5165,-3.5903,-3.5903,-3.5903,-3.5903,-3.5903,-3.59,-3.5908,-3.5927,-3.5943,-3.5923,-3.5852,-3.5756,-3.5704,0.0,-3.5704,-3.5704,0.0,-3.5704,-3.5704,-3.5704,-3.5955,-3.6342,-3.6884,-3.6651,-3.611,-3.5278,0.0,0.0,-3.14,-3.1671,-3.227,-3.316,-3.435,-3.4872,-3.4969,-3.64,-3.6806,-3.6535,-3.6806,-3.6706,-3.6337,-3.5878,-3.558,-3.5358,-3.4965,-3.471,-3.4602,-3.4602,-3.4602,-3.4695,-3.5274,-3.5004,-3.4427,-3.4363,-3.4316,-3.4245,-3.4173,-3.3972,-3.3707,-3.3243,-3.297,-3.2716,-3.2439,-3.3389,-3.446,-3.4951,-3.6075,-3.6987,-3.6987,-3.6987,-3.5899,-3.2529,-3.2178,0.0,-2.7579,0.0,-2.509,-2.4902,-2.3613,-2.2907,-2.322,-2.2836,0.0,0.0,0.0,-2.2337,-2.2801,-2.4159,-2.5363,-2.6233,-2.9518,-3.1345,-3.1533,-3.3743,-3.5644,-3.7102,-3.7102,-3.7864,-3.9272,-3.9272,-3.9272,-3.9272,-3.9272,-3.9272,-3.9272,-3.9272,-3.9272,-3.9272,-3.9272,-3.9272,-3.9454,-4.0878,-4.1409,-4.1567,-3.5974,-3.5996,-3.6406,-3.7692,-3.6852,-3.5993,-3.5993,-3.5994,-3.6,-3.6,-3.7124,-3.7733,-3.723,-3.7481,0.0,-3.5824,-3.5697,-3.5697,-3.5697,-3.5697,-3.5697,-3.5697,-3.5697,-3.5949,-3.6452,-3.6452,0.0,-3.5706,-3.5463,-3.4949,-3.4195,-3.4195,-3.4485,-3.5035,-3.582,-3.6149,-3.6207,-3.6942,-3.6942,-3.6458,-3.6458,-3.6149,-3.5673,-3.5477,-3.5316,-3.5197,-3.4982,-3.502,-3.516,-3.5093,-3.5484,-3.6085,-3.6629,-3.6625,-3.626,-3.5577,-3.532,-3.5216,-3.4918,-3.468,-3.4334,-3.3679,-3.3273,-3.2979,-3.2843,-3.3564,-3.4337,-3.4635,-3.5688,-3.6549,-3.6549,-3.6794,-3.5969,-3.2897,-3.2406,-3.1194,-2.7771,0.0,-2.5725,0.0,0.0,0.0,0.0,-2.493,-2.5302,0.0,0.0,0.0,0.0,-2.5617,-2.6652,-2.818,-3.0675,-3.2282,-3.2845,-3.4343,-3.5821,-3.7336,-3.7903,-3.8653,-3.9537,-3.9379,-3.9272,-3.9272,-3.9272,-3.9272,-3.9272,-3.9272,-3.9272,-3.9272,-3.9272,-3.9272,-3.9454,-4.0878,-4.1409,-4.1624,-3.5996,-3.6387,-3.7713,-4.0918,-3.8726,-3.6579,-3.6696,-3.6716,-3.6716,-3.6716,-3.9348,-4.0794,-3.966,-4.0408,-3.9669,-3.6357,0.0,0.0,-3.5883,-3.5883,-3.5844,-3.5786,-3.5786,-3.5786,-3.5786,-3.5786,-3.5757,-3.5688,-3.6461,-3.7232,-3.8025,-3.8025,-3.8025,-3.7986,-3.7174,-3.6826,-3.6767,-3.6071,-3.5781,-3.5781,-3.5916,-3.5955,-3.5944,-3.5824,-3.5771,-3.571,-3.5377,-3.5742,-3.6326,-3.6189,-3.7155,-3.8394,-3.8469,-3.9032,-3.9352,-3.7671,-3.713,-3.6894,-3.6091,-3.5861,-3.5584,-3.4367,-3.3771,-3.3467,-3.3458,-3.3512,-3.3758,-3.446,-3.5214,-3.5741,-3.5741,-3.6338,-3.5829,-3.2809,-3.2318,-3.1001,-2.721,-2.6683,-2.6317,0.0,0.0,-2.5996,-2.5409,-2.7206,-2.8174,0.0,0.0,0.0,0.0,-2.7356,-2.8035,-3.2015,-3.261,-3.3532,-3.4977,-3.5287,-3.6211,-3.7759,-3.9227,-3.9935,-3.9901,-3.9537,-3.9325,-3.9272,-3.9272,-3.9272,-3.9272,-3.9272,-3.9272,-3.9272,-3.9272,-3.9272,-3.9454,-4.0878,-4.1409,-4.1624,0.0,0.0,-4.4123,-4.4937,-4.3294,-4.2337,-4.3665,-4.386,-4.386,-4.386,-4.3001,-4.2292,-4.2009,-4.1387,-4.0671,-3.9825,-3.9703,-3.9111,-3.7763,-3.7686,-3.7395,-3.6716,-3.6678,-3.6678,-3.6678,-3.6678,-3.6367,-3.5699,-3.5883,-3.6096,-3.6289,-3.6289,-3.6299,-3.6278,-3.6084,-3.5977,-3.6013,-3.6439,-3.6613,-3.6729,-3.8063,-3.8586,-3.8663,-3.9296,-3.943,-3.9258,-3.9028,-3.8975,-3.8961,-3.879,-3.8976,-3.9389,-4.0009,-4.0347,-4.0309,-3.9295,-3.8946,-3.869,-3.7823,-3.7573,-3.7249,-3.6091,-3.5092,-3.4164,-3.3248,-3.3529,-3.3928,-3.3829,-3.4424,-3.4951,-3.4951,-3.5109,-3.4407,-3.1879,-3.1475,-3.0527,-2.7824,-2.7438,-2.7338,0.0,-2.7752,-2.8172,-2.8027,-2.9029,-2.9283,0.0,0.0,-2.9259,-2.959,-2.9452,-3.0292,-3.2429,-3.3709,-3.4788,-3.5627,-3.5732,-3.6559,-3.8091,-3.9572,-4.0154,-3.9901,-3.9798,-3.959,-3.9272,-3.9272,-3.9272,-3.9272,-3.9272,-3.9272,-3.9272,-3.9272,-3.9272,-3.9454,-4.0878,-4.1409,-4.1624,-3.5991,-4.1557,-4.63,-4.63,-4.5519,-4.5031,-4.546,-4.5968,-4.63,-4.63,-4.5187,-4.4384,-4.435,-4.3779,-4.3345,-4.3296,-4.182,-4.05,-3.9549,-3.9491,-3.9277,-3.8792,-3.8772,-3.8772,-3.8772,-3.8772,-3.8549,-3.8074,-3.8083,-3.8083,-3.8083,-3.8083,-3.8073,-3.8082,-3.8082,-3.8072,-3.81,-3.8504,-3.8686,-3.8764,-3.9719,-4.0075,-4.0152,-4.0616,-4.0733,-4.0612,-4.0406,-4.0444,-4.0551,-4.0352,-4.0734,-4.136,-4.1811,-4.2205,-4.2412,-4.1961,-4.1259,-4.0465,-3.9621,-3.9352,-3.8976,-3.7413,-3.6251,-3.5182,-3.3984,-3.3713,-3.3615,-3.3407,-3.388,-3.4305,-3.4305,-3.4515,-3.3915,-3.1581,-3.1194,-3.0264,-2.7578,-2.7806,-2.8105,-2.7736,-2.9035,-2.9825,-2.9492,-3.0492,-3.0793,-2.9857,-3.0136,-3.066,-3.1393,-3.202,-3.2671,-3.3326,-3.4357,-3.5215,-3.589,-3.6783,-3.7732,-3.8728,-4.0048,-4.058,-4.0419,-4.0204,-3.9918,-3.959,-3.959,-3.9484,-3.9272,-3.9272,-3.9272,-3.9272,-3.9272,-3.9272,-3.9454,-4.0878,-4.1409,-4.1624,-3.7458,-4.2279,-4.63,-4.63,-4.63,-4.5968,-4.4992,-4.5675,-4.63,-4.63,-4.63,-4.6204,-4.5961,-4.608,-4.6097,-4.5833,-4.3287,-4.1568,-4.1315,-4.1296,-4.1238,-4.1102,-4.1102,-4.1102,-4.1102,-4.0966,-4.0898,-4.0898,-4.0897,-4.0906,-4.0906,-4.0906,-4.0906,-4.0906,-4.0906,-4.0906,-4.0895,-4.097,-4.0986,-4.1025,-4.1292,-4.1383,-4.1383,-4.1519,-4.1557,-4.1532,-4.1335,-4.1579,-4.1972,-4.1746,-4.2478,-4.3517,-4.3509,-4.3951,-4.4515,-4.4515,-4.3501,-4.2205,-4.1398,-4.1079,-4.0558,-3.8699,-3.7662,-3.6712,-3.5449,-3.4397,-3.364,-3.3412,-3.3552,-3.3683,-3.3667,-3.4076,-3.3635,-3.1421,-3.1157,-3.0159,-2.7192,0.0,-2.8947,-2.8157,-3.0018,-3.1142,-3.051,-3.1633,-3.216,-3.1581,-3.2177,-3.2897,-3.3652,-3.4424,-3.4751,-3.4467,-3.4956,-3.5503,-3.6079,-3.7958,-3.9058,-3.9364,-4.0612,-4.1146,-4.11,-4.0737,-4.0417,-4.007,-4.0037,-3.9781,-3.9468,-3.9379,-3.9325,-3.9325,-3.9325,-3.9325,-3.9437,-4.0763,-4.1326,-4.1607,-4.4114,-4.5558,-4.63,-4.63,-4.63,-4.6241,-4.6066,-4.6183,-4.63,-4.63,-4.63,-4.5907,-4.4881,-4.5574,-4.5805,-4.5051,-4.5113,-4.4617,-4.3199,-4.3102,-4.2772,-4.2034,-4.1995,-4.1995,-4.1995,-4.1276,-4.0907,-4.0898,-4.0898,-4.0898,-4.0898,-4.0898,-4.0908,-4.0907,-4.0907,-4.0897,-4.0934,-4.1602,-4.1892,-4.2028,-4.349,-4.4047,-4.4079,-4.4828,-4.5073,-4.4993,-4.4787,-4.478,-4.4804,-4.4376,-4.4378,-4.455,-4.4371,-4.4402,-4.4515,-4.4515,-4.4327,-4.3951,-4.3125,-4.2374,-4.1578,-4.0596,-4.0214,-3.9631,-3.7765,-3.6638,-3.5634,-3.4456,-3.3713,-3.3229,-3.3062,-3.2989,-3.2378,-3.0716,-3.0871,-3.0334,-2.7877,-2.9439,-3.0562,-2.9825,-3.1194,-3.2177,-3.2055,-3.2265,-3.2616,-3.3125,-3.3248,-3.3687,-3.446,-3.5232,-3.5674,-3.5806,-3.6373,-3.6729,-3.6834,-3.8602,-3.9499,-3.9557,-4.1257,-4.1917,-4.1578,-4.1516,-4.1258,-4.0874,-4.048,-4.0269,-4.022,-3.9816,-3.959,-3.9448,-3.9448,-3.9379,-3.9371,-4.0233,-4.0912,-4.1541,-4.5617,-4.63,-4.63,-4.63,-4.63,-4.63,-4.63,-4.63,-4.63,-4.63,-4.63,-4.6092,-4.5522,-4.4181,-4.3639,-4.4459,-4.5036,-4.5025,-4.4248,-4.4617,-4.4676,-4.4248,-4.4248,-4.4248,-4.4248,-4.384,-4.3646,-4.3646,-4.3646,-4.3646,-4.3646,-4.3646,-4.3646,-4.3656,-4.3656,-4.3645,-4.3673,-4.4051,-4.4195,-4.4234,-4.4579,-4.4672,-4.4659,-4.4582,-4.4499,-4.4453,-4.4351,-4.4261,-4.4168,-4.4279,-4.4231,-4.4178,-4.4428,-4.4515,-4.4515,-4.4515,-4.4515,-4.4421,-4.4064,-4.3651,-4.3163,-4.2355,-4.1792,-4.1083,-3.9735,-3.8324,-3.7124,-3.6463,-3.553,-3.4623,-3.4003,-3.3728,-3.3319,-3.2464,-3.1852,-3.1207,-3.0472,-3.0935,-3.1203,-3.0738,-3.1786,-3.2666,-3.3123,-3.365,-3.4092,-3.4429,-3.4783,-3.5136,-3.5598,-3.5842,-3.6251,-3.6897,-3.7177,-3.7317,-3.7317,-3.8937,-3.974,-3.9757,-4.1479,-4.2187,-4.2044,-4.2044,-4.1796,-4.1393,-4.1185,-4.1001,-4.075,-4.0252,-4.0037,-3.9952,-3.9729,-3.959,-3.9621,-4.0354,-4.1033,-4.1766,-4.5773,-4.63,-4.63,-4.63,-4.63,-4.63,-4.63,-4.63,-4.63,-4.63,-4.63,-4.6131,-4.5712,-4.3294,-4.2285,-4.3685,-4.4229,-4.4579,-4.4792,-4.5375,-4.5802,-4.5977,-4.5997,-4.5997,-4.5997,-4.5997,-4.5997,-4.5997,-4.5997,-4.5997,-4.5997,-4.5997,-4.5997,-4.5977,-4.5802,-4.5725,-4.5705,-4.5509,-4.542,-4.5362,-4.4699,-4.4405,-4.4327,-4.3637,-4.3373,-4.333,-4.333,-4.3206,-4.3137,-4.3541,-4.3552,-4.3459,-4.3849,-4.3941,-4.3933,-4.3933,-4.3933,-4.4008,-4.4402,-4.4515,-4.4364,-4.3726,-4.3088,-4.2374,-4.1567,-4.0113,-3.8861,-3.8622,-3.771,-3.6684,-3.5831,-3.5526,-3.5162,-3.4407,-3.3329,-3.259,-3.2503,-3.2435,-3.2335,-3.2153,-3.3101,-3.3984,-3.4622,-3.5383,-3.5827,-3.5827,-3.6275,-3.6577,-3.6667,-3.6523,-3.6826,-3.7649,-3.7613,-3.7684,-3.7862,-3.9274,-4.0081,-4.0277,-4.1729,-4.2432,-4.2432,-4.2432,-4.2292,-4.1948,-4.1864,-4.163,-4.1313,-4.0844,-4.0577,-4.04,-4.0037,-3.9816,-3.9744,-4.033,-4.1117,-4.1988,-4.6241,-4.63,-4.63,-4.63,-4.63,-4.63,-4.63,-4.63,-4.63,-4.63,-4.63,-4.5655,-4.3976,-4.3997,-4.3656,-4.2461,-4.3122,-4.3938,-4.4753,-4.4851,-4.522,-4.5958,-4.5997,-4.5997,-4.5997,-4.5997,-4.5997,-4.5997,-4.5997,-4.5997,-4.5997,-4.5997,-4.5997,-4.5958,-4.522,-4.4889,-4.4831,-4.4035,-4.3675,-4.3675,-4.3617,-4.3548,-4.3497,-4.3419,-4.3397,-4.3393,-4.3393,-4.333,-4.326,-4.3108,-4.2926,-4.2733,-4.2534,-4.2329,-4.216,-4.216,-4.216,-4.2517,-4.4083,-4.4515,-4.4496,-4.4439,-4.4364,-4.412,-4.3294,-4.2366,-4.1432,-4.0504,-3.9647,-3.8951,-3.8645,-3.8483,-3.7588,-3.5137,-3.5121,-3.456,-3.221,-3.3684,-3.5023,-3.4988,-3.6327,-3.7256,-3.7309,-3.7381,-3.7417,-3.7417,-3.747,-3.7506,-3.7487,-3.7505,-3.7596,-3.7864,-3.7703,-3.797,-3.8702,-3.9748,-4.0596,-4.1297,-4.2352,-4.2862,-4.2862,-4.2862,-4.2844,-4.2806,-4.2338,-4.2157,-4.2074,-4.1613,-4.1076,-4.0577,-4.0546,-4.017,-3.9729,-3.9744,-4.0665,-4.1921,-4.63,-4.63,-4.63,-4.63,-4.63,-4.63,-4.63,-4.63,-4.5483,-4.3248,-4.487,-4.5562,-4.3791,-4.3409,-4.2769,-4.15,-4.2189,-4.283,-4.3161,-4.3685,-4.4598,-4.5938,-4.5997,-4.5997,-4.5997,-4.5997,-4.5997,-4.5997,-4.5997,-4.5744,-4.5258,-4.5258,-4.4967,-4.4443,-4.4132,-4.3996,-4.3976,-4.3646,-4.351,-4.3452,-4.2908,-4.2685,-4.2597,-4.2053,-4.1839,-4.1856,-4.1856,-4.1815,-4.18,-4.2145,-4.2178,-4.2103,-4.2303,-4.229,-4.2165,-4.2025,-4.1991,-4.2123,-4.276,-4.3351,-4.3876,-4.4383,-4.4515,-4.4421,-4.412,-4.3407,-4.2685,-4.2331,-4.1555,-4.0753,-4.0021,-3.9844,-3.961,-3.8951,-3.818,-3.7607,-3.7337,-3.7217,-3.7063,-3.6773,-3.7345,-3.7972,-3.8474,-3.8636,-3.8724,-3.8724,-3.8582,-3.8367,-3.7987,-3.7951,-3.8003,-3.8072,-3.8003,-3.8347,-3.9157,-3.9987,-4.0817,-4.1594,-4.2464,-4.2882,-4.2882,-4.2882,-4.2882,-4.2882,-4.2711,-4.2634,-4.2595,-4.2115,-4.1803,-4.1525,-4.0955,-4.0611,-4.0336,-4.007,-4.0592,-4.1536,-4.63,-4.63,-4.63,-4.63,-4.63,-4.63,-4.63,-4.63,-4.5016,-4.1427,-4.3716,-4.492,-4.2998,-4.2624,-4.2071,-4.0985,-4.1451,-4.1898,-4.217,-4.3025,-4.4132,-4.555,-4.5861,-4.5997,-4.5997,-4.5997,-4.5997,-4.5997,-4.5744,-4.5336,-4.4792,-4.452,-4.4074,-4.3491,-4.3219,-4.3083,-4.3063,-4.2811,-4.2675,-4.2636,-4.2034,-4.1781,-4.1723,-4.1121,-4.0898,-4.0898,-4.0898,-4.0858,-4.0904,-4.1358,-4.1431,-4.1386,-4.1705,-4.1696,-4.1518,-4.1306,-4.1248,-4.1304,-4.1567,-4.2074,-4.2769,-4.3857,-4.412,-4.4195,-4.4458,-4.4083,-4.3688,-4.3688,-4.32,-4.2565,-4.1875,-4.1754,-4.167,-4.1468,-4.0492,-3.993,-4.0441,-3.9786,-3.9217,-3.917,-3.9476,-3.9801,-4.0039,-4.0164,-3.9999,-3.9423,-3.9282,-3.8886,-3.8228,-3.8192,-3.8192,-3.8192,-3.8445,-3.8952,-3.9731,-4.0256,-4.1035,-4.2085,-4.2629,-4.2882,-4.2882,-4.2882,-4.2882,-4.2882,-4.2882,-4.2882,-4.2882,-4.2537,-4.2338,-4.2115,-4.1499,-4.1157,-4.0972,-4.0483,-4.078,-4.1529,-4.63,-4.63,-4.63,-4.63,-4.63,-4.63,-4.63,-4.63,-4.5051,-4.1579,-4.3084,-4.3603,-4.1267,-4.1772,-4.1928,-4.0975,-4.0907,-4.1276,-4.2131,-4.3005,-4.3879,-4.4753,-4.555,-4.5977,-4.5997,-4.5997,-4.5997,-4.5997,-4.5181,-4.4792,-4.4773,-4.3899,-4.3491,-4.3452,-4.2578,-4.2189,-4.2131,-4.1276,-4.0907,-4.0907,-4.0907,-4.0907,-4.0907,-4.0907,-4.0907,-4.0907,-4.0907,-4.0908,-4.0907,-4.0907,-4.0711,-4.0491,-4.0491,-4.0206,-3.9857,-3.9679,-3.9602,-3.9789,-4.0572,-4.0797,-4.1191,-4.2862,-4.3294,-4.3501,-4.4327,-4.4496,-4.4496,-4.4515,-4.4515,-4.4515,-4.4515,-4.4515,-4.3896,-4.2025,-4.1717,-4.1352,-4.0256,-4.0818,-4.1601,-4.2382,-4.3195,-4.3281,-4.2184,-4.2077,-4.1334,-3.9549,-3.9387,-3.9025,-3.8228,-3.8192,-3.8192,-3.8192,-3.8971,-3.9749,-4.051,-4.0528,-4.1325,-4.2882,-4.2882,-4.2882,-4.2882,-4.2882,-4.2882,-4.2882,-4.2882,-4.2882,-4.2882,-4.2882,-4.2634,-4.2216,-4.2198,-4.1931,-4.1437,-4.0972,-4.1267,-4.2009,-4.63,-4.63,-4.63,-4.63,-4.63,-4.63,-4.63,-4.63,-4.5333,-4.2636,-4.3745,-4.3821,-4.1284,-4.1731,-4.1877,-4.0985,-4.0907,-4.1005,-4.1276,-4.2092,-4.2986,-4.386,-4.4695,-4.5414,-4.5977,-4.5997,-4.5997,-4.5997,-4.5181,-4.4481,-4.3879,-4.3005,-4.2267,-4.1665,-4.1393,-4.1296,-4.1276,-4.1005,-4.0907,-4.0907,-4.0907,-4.0907,-4.0907,-4.0907,-4.0907,-4.0907,-4.0907,-4.0898,-4.0898,-4.0898,-4.0858,-4.0742,-4.0552,-4.0323,-4.0081,-3.9982,-3.9958,-3.9973,-3.9995,-4.0042,-4.0414,-4.2006,-4.2393,-4.2618,-4.3463,-4.3651,-4.382,-4.4383,-4.4515,-4.4515,-4.4515,-4.4515,-4.413,-4.3015,-4.2819,-4.2417,-4.1314,-4.1349,-4.1531,-4.1588,-4.1796,-4.182,-4.1498,-4.084,-4.0196,-3.9641,-3.8946,-3.8445,-3.8192,-3.8192,-3.8192,-3.8192,-3.8971,-3.9749,-4.051,-4.1071,-4.1886,-4.2882,-4.2882,-4.2882,-4.2882,-4.2882,-4.2882,-4.2882,-4.2882,-4.2882,-4.2882,-4.2882,-4.2806,-4.2673,-4.2338,-4.2115,-4.1931,-4.1437,-4.1415,-4.1799,-4.63,-4.63,-4.63,-4.63,-4.63,-4.6066,-4.5382,-4.546,-4.4787,-4.2439,-4.3157,-4.3131,-4.1208,-4.1412,-4.1471,-4.0946,-4.0907,-4.1043,-4.1393,-4.1898,-4.2733,-4.3957,-4.452,-4.5181,-4.5977,-4.5997,-4.5841,-4.553,-4.4695,-4.384,-4.2966,-4.2092,-4.1393,-4.0907,-4.0907,-4.0907,-4.0907,-4.0907,-4.0907,-4.0907,-4.0907,-4.0907,-4.0907,-4.0907,-4.0907,-4.0907,-4.0907,-4.0907,-4.0907,-4.0907,-4.0898,-4.0858,-4.063,-4.0468,-4.0323,-4.0192,-4.012,-4.0061,-3.9897,-3.9829,-4.0004,-4.0928,-4.1362,-4.1755,-4.26,-4.2787,-4.2919,-4.3426,-4.352,-4.352,-4.352,-4.352,-4.3369,-4.2862,-4.2787,-4.2546,-4.1866,-4.1764,-4.1689,-4.1526,-4.1526,-4.1338,-4.0915,-4.0332,-3.9774,-3.926,-3.8642,-3.8289,-3.8192,-3.8192,-3.8337,-3.8645,-3.9423,-4.0202,-4.0981,-4.1778,-4.2411,-4.2882,-4.2882,-4.2882,-4.2882,-4.2882,-4.2882,-4.2882,-4.2882,-4.2882,-4.2882,-4.2882,-4.2882,-4.2882,-4.2595,-4.2458,-4.2418,-4.1931,-4.176,-4.198,-4.63,-4.63,-4.63,-4.63,-4.63,-4.5753,-4.4172,-4.4309,-4.3801,-4.1615,-4.1972,-4.2051,-4.1114,-4.102,-4.1003,-4.0917,-4.0897,-4.1238,-4.2034,-4.2151,-4.2928,-4.4617,-4.4753,-4.5181,-4.5977,-4.5919,-4.553,-4.4792,-4.386,-4.2986,-4.217,-4.1315,-4.0907,-4.0907,-4.0907,-4.0907,-4.0907,-4.0907,-4.0907,-4.0907,-4.0907,-4.0907,-4.0907,-4.0985,-4.1024,-4.1024,-4.1102,-4.1121,-4.1121,-4.1121,-4.1121,-4.1102,-4.0919,-4.0862,-4.0783,-4.0457,-4.0306,-4.0234,-4.0158,-4.004,-3.9933,-3.9933,-4.0321,-4.0917,-4.1743,-4.1931,-4.195,-4.1999,-4.2018,-4.2018,-4.2018,-4.1991,-4.1972,-4.1897,-4.1905,-4.186,-4.1811,-4.1811,-4.1811,-4.1811,-4.1811,-4.1394,-4.042,-4.0318,-3.9806,-3.8578,-3.851,-3.8433,-3.8225,-3.8264,-3.8627,-3.9369,-4.0202,-4.0981,-4.1668,-4.2502,-4.2882,-4.2882,-4.2882,-4.2882,-4.2882,-4.2882,-4.2882,-4.2882,-4.2882,-4.2882,-4.2882,-4.2882,-4.2882,-4.2882,-4.2882,-4.2882,-4.2844,-4.2418,-4.2239,-4.2382,-4.63,-4.63,-4.63,-4.63,-4.63,-4.6163,-4.5792,-4.509,-4.425,-4.3255,-4.3298,-4.2792,-4.1249,-4.1632,-4.1721,-4.1045,-4.0932,-4.0985,-4.116,-4.182,-4.2675,-4.3743,-4.4443,-4.5181,-4.5977,-4.5375,-4.4967,-4.4792,-4.3238,-4.2384,-4.217,-4.1315,-4.0907,-4.0907,-4.0907,-4.0907,-4.0907,-4.0907,-4.0907,-4.0907,-4.0907,-4.0907,-4.0966,-4.1665,-4.1917,-4.2015,-4.2694,-4.2947,-4.2947,-4.2947,-4.2947,-4.2918,-4.2886,-4.2867,-4.271,-4.1867,-4.1602,-4.1393,-4.0569,-4.0285,-4.0196,-4.008,-4.0089,-4.0314,-4.1108,-4.1297,-4.1463,-4.204,-4.2146,-4.2121,-4.2018,-4.1991,-4.1811,-4.1173,-4.106,-4.0835,-4.0196,-4.0103,-4.0103,-4.0103,-4.0103,-4.0046,-3.9808,-3.9597,-3.9184,-3.8541,-3.851,-3.8433,-3.8225,-3.879,-3.9206,-3.9387,-4.0745,-4.1505,-4.1723,-4.2502,-4.2882,-4.2882,-4.2882,-4.2882,-4.2882,-4.2882,-4.2882,-4.2882,-4.2882,-4.2882,-4.2882,-4.2882,-4.2882,-4.2882,-4.2882,-4.2882,-4.2882,-4.2806,-4.2768,-4.2967,-4.63,-4.63,-4.63,-4.63,-4.63,-4.6163,-4.5734,-4.5168,-4.4524,-4.3801,-4.3706,-4.334,-4.2397,-4.2299,-4.1942,-4.1023,-4.0915,-4.1082,-4.149,-4.2345,-4.3219,-4.4074,-4.4559,-4.5006,-4.5414,-4.419,-4.3763,-4.419,-4.285,-4.1995,-4.1568,-4.1102,-4.0907,-4.0907,-4.0907,-4.0907,-4.0907,-4.0907,-4.0907,-4.0946,-4.1354,-4.151,-4.1626,-4.2481,-4.2811,-4.2889,-4.3335,-4.351,-4.351,-4.351,-4.351,-4.351,-4.351,-4.351,-4.3403,-4.2876,-4.2656,-4.2414,-4.1434,-4.1108,-4.0924,-4.0382,-4.0177,-4.0214,-4.0463,-4.0514,-4.0647,-4.1033,-4.1104,-4.1057,-4.0941,-4.0917,-4.076,-4.0315,-4.0215,-4.0065,-3.9677,-3.9602,-3.9602,-3.9602,-3.9602,-3.9602,-3.9602,-3.9458,-3.9256,-3.8855,-3.9105,-3.9158,-3.8919,-3.9565,-4.0111,-4.0492,-4.1289,-4.1886,-4.2266,-4.2683,-4.2882,-4.2882,-4.2882,-4.2882,-4.2882,-4.2882,-4.2882,-4.2882,-4.2882,-4.2882,-4.2882,-4.2882,-4.2882,-4.2882,-4.2882,-4.2882,-4.2882,-4.2882,-4.2882,-4.3118,-4.63,-4.63,-4.63,-4.63,-4.63,-4.6066,-4.5324,-4.5109,-4.4738,-4.4016,-4.3917,-4.3789,-4.3429,-4.2611,-4.1747,-4.0982,-4.0917,-4.1218,-4.1917,-4.2792,-4.3607,-4.4326,-4.4637,-4.4734,-4.4579,-4.3161,-4.2694,-4.3277,-4.2403,-4.1607,-4.0907,-4.0907,-4.0907,-4.0907,-4.0907,-4.0907,-4.0907,-4.0907,-4.0985,-4.1199,-4.1898,-4.2287,-4.252,-4.3394,-4.3724,-4.3743,-4.3879,-4.3938,-4.3938,-4.3938,-4.3938,-4.3938,-4.3938,-4.3938,-4.3899,-4.3763,-4.3643,-4.3373,-4.2489,-4.2196,-4.1933,-4.1097,-4.0861,-4.078,-4.0478,-4.0184,-3.9954,-3.9933,-3.9933,-3.9889,-3.9762,-3.9739,-3.9712,-3.9656,-3.9626,-3.9626,-3.9626,-3.9602,-3.9602,-3.9602,-3.9602,-3.9658,-3.9808,-3.9802,-3.9764,-3.962,-4.0073,-4.0253,-3.9983,-4.0484,-4.1089,-4.176,-4.185,-4.223,-4.2882,-4.2882,-4.2882,-4.2882,-4.2882,-4.2882,-4.2882,-4.2882,-4.2882,-4.2882,-4.2882,-4.2882,-4.2882,-4.2882,-4.2882,-4.2882,-4.2882,-4.2882,-4.2882,-4.2882,-4.2882,-4.3099,-4.63,-4.63,-4.63,-4.63,-4.63,-4.6261,-4.6144,-4.548,-4.4953,-4.4836,-4.482,-4.4257,-4.2739,-4.1735,-4.1124,-4.1,-4.0932,-4.0946,-4.1063,-4.1879,-4.2422,-4.2539,-4.3996,-4.4443,-4.3685,-4.3433,-4.3005,-4.2384,-4.149,-4.1024,-4.0907,-4.0907,-4.0907,-4.0907,-4.0907,-4.0907,-4.0907,-4.0907,-4.1335,-4.2034,-4.2151,-4.2656,-4.3413,-4.4287,-4.4617,-4.4715,-4.5414,-4.5666,-4.5666,-4.5666,-4.5666,-4.5666,-4.5666,-4.5666,-4.553,-4.4831,-4.4607,-4.4413,-4.3529,-4.3203,-4.3073,-4.2944,-4.2772,-4.2633,-4.2598,-4.136,-4.0215,-4.0096,-4.0057,-4.0036,-3.9889,-3.9867,-3.9867,-3.9845,-3.9758,-3.9689,-3.9689,-3.9631,-3.9602,-3.9602,-3.9602,-3.9858,-4.0572,-4.0647,-4.0851,-4.1325,-4.1436,-4.1356,-4.1108,-4.1592,-4.1951,-4.2061,-4.2505,-4.2774,-4.2882,-4.2882,-4.2882,-4.2882,-4.2882,-4.2882,-4.2882,-4.2882,-4.2882,-4.2882,-4.2882,-4.2882,-4.2882,-4.2882,-4.2882,-4.2882,-4.2882,-4.2882,-4.2882,-4.2882,-4.2882,-4.3009,-4.6284,-4.63,-4.63,-4.63,-4.63,-4.63,-4.63,-4.5968,-4.5734,-4.5734,-4.5734,-4.5233,-4.3939,-4.2954,-4.2195,-4.1716,-4.1634,-4.1412,-4.0927,-4.1723,-4.2189,-4.2189,-4.3394,-4.3666,-4.2792,-4.2772,-4.2345,-4.1471,-4.1082,-4.0907,-4.0907,-4.0907,-4.0907,-4.0907,-4.0907,-4.0907,-4.0927,-4.1412,-4.184,-4.2287,-4.3258,-4.3879,-4.4326,-4.5142,-4.5472,-4.5511,-4.5861,-4.5997,-4.5997,-4.5997,-4.5997,-4.5997,-4.5997,-4.5997,-4.5919,-4.5569,-4.5472,-4.5297,-4.4443,-4.4189,-4.399,-4.3439,-4.3173,-4.3041,-4.3013,-4.2315,-4.1685,-4.1627,-4.1607,-4.1568,-4.1445,-4.1423,-4.1383,-4.1317,-4.123,-4.1207,-4.1207,-4.1108,-4.1029,-4.0947,-4.0947,-4.1079,-4.1454,-4.1473,-4.1571,-4.1846,-4.2174,-4.2318,-4.2192,-4.2701,-4.2944,-4.2772,-4.3013,-4.3069,-4.2882,-4.2882,-4.2882,-4.2882,-4.2882,-4.2882,-4.2882,-4.2882,-4.2882,-4.2882,-4.2882,-4.2882,-4.2882,-4.2882,-4.2882,-4.2882,-4.2882,-4.2882,-4.2882,-4.2882,-4.2882,-4.3009]}]]